     2.11           OBSERVATION DATA    G (GPS)             RINEX VERSION / TYPE
teqc 2010Oct21 OPUS Account 20111028 01:34:24UTC            PGM / RUN BY / DATE
N 1526                                                      MARKER NAME
3049                                                        MARKER NUMBER
CSMIDDLETON NGS                                             OBSERVER / AGENCY
0220316069 TRIMBLE 5700 1.30                                REC # / TYPE / VERS
60183425 TRM41249.00 NONE                                   ANT # / TYPE
  -752199.6580 -5571255.1369  3002567.3642                  APPROX POSITION XYZ
        2.0010        0.0000        0.0000                  ANTENNA: DELTA H/E/N
     1     1                                                WAVELENGTH FACT L1/2
     5    L1    L2    C1    P1    P2                        # / TYPES OF OBSERV
    15                                                      LEAP SECONDS
  2011     8    21     0     0   30.0000000     GPS         TIME OF FIRST OBS
                                                            END OF HEADER
 11  8 21  0  0 30.0000000  0  7G12G09G17G10G05G04G02
 -32975243.83258 -25676307.23256  21840997.1484                   21840996.7624
 -44403336.68756 -34580493.90554  23177635.2814                   23177638.2544
 -96845310.26657 -75444392.67555  22859022.5944                   22859022.5904
 -50399128.55958 -39252764.85156  20924944.1094                   20924944.0824
 -23667543.84457 -18423371.00555  22514435.3594                   22514437.4144
 -76882253.84057 -59887728.63256  21240604.6254                   21240604.7504
 -59814656.51258 -46589192.92057  20635339.0474                   20635336.5704
 11  8 21  0  1  0.0000000  0  7G12G09G17G10G05G04G02
 -33156581.61348 -25817609.35346  21806489.7584                   21806489.0084
 -44441095.57846 -34609916.56444  23170449.1174                   23170452.7774
 -96906333.91847 -75491943.58945  22847409.8364                   22847410.3834
 -50526627.92648 -39352114.98946  20900681.7894                   20900681.9104
 -23873823.57447 -18584108.32945  22475181.7664                   22475183.8094
 -76919311.71148 -59916604.91746  21233552.5634                   21233553.3594
 -59932805.36748 -46681256.96446  20612856.0474                   20612853.4694
 11  8 21  0  1 30.0000000  0  7G12G09G17G10G05G04G02
 -33337513.50448 -25958595.18946  21772059.3364                   21772058.9534
 -44478522.59447 -34639080.60544  23163327.9144                   23163331.1334
 -96967164.21947 -75539343.85145  22835834.6254                   22835834.9884
 -50653461.26248 -39450946.12346  20876546.1094                   20876545.9494
 -24079832.71147 -18744634.80545  22435979.7194                   22435981.3594
 -76956110.84048 -59945279.58446  21226550.2734                   21226550.4144
 -60050575.82048 -46773026.13546  20590445.2274                   20590442.3874
 11  8 21  0  2  0.0000000  0  7G12G09G17G10G05G04G02
 -33518034.83248 -26099261.12546  21737707.3284                   21737706.4454
 -44515618.86747 -34667986.92244  23156269.4224                   23156271.9534
 -97027798.03147 -75586590.99345  22824296.2194                   22824297.0234
 -50779625.35548 -39549255.78846  20852537.6024                   20852538.0124
 -24285565.87147 -18904946.23945  22396829.5704                   22396831.7034
 -76992651.37948 -59973752.75746  21219596.8054                   21219597.2934
 -60167966.96548 -46864499.74046  20568106.1954                   20568103.3634
 11  8 21  0  2 30.0000000  0  7G12G09G17G10G05G04G02
 -33698148.46548 -26239609.36546  21703432.9224                   21703431.9024
 -44552392.85946 -34696642.11444  23149271.2504                   23149273.9064
 -97088239.73847 -75633688.44145  22812794.2034                   22812795.3404
 -50905123.78148 -39647046.73446  20828656.1884                   20828656.5124
 -24491025.24647 -19065044.32345  22357732.1954                   22357733.6684
 -77028940.40247 -60002029.93746  21212691.2424                   21212691.9614
 -60284984.78148 -46955682.44147  20545838.4384                   20545835.8554
 11  8 21  0  3  0.0000000  0  7G12G09G17G10G05G04G02
 -33877847.44948 -26379634.50546  21669236.9384                   21669236.4024
 -44588843.68746 -34725045.48444  23142334.6884                   23142338.2424
 -97148484.51647 -75680632.47945  22801330.5234                   22801330.7584
 -51029951.71547 -39744315.22246  20804902.6484                   20804902.4774
 -24696203.53547 -19224923.36245  22318687.7664                   22318688.8524
 -77064976.19547 -60030109.80546  21205834.1094                   21205834.5084
 -60401626.15648 -47046571.79947  20523642.2114                   20523639.9494
 11  8 21  0  3 30.0000000  0  8G12G09G17G10G05G04G30G02
 -34057133.98448 -26519338.25746  21635119.9144                   21635119.4804
 -44624979.62946 -34753203.50144  23135458.4454                   23135462.0474
 -97208536.31647 -75727426.12545  22789902.9384                   22789902.9614
 -51154112.64848 -39841063.95446  20781275.1954                   20781275.1644
 -24901102.58647 -19384584.83245  22279696.5314                   22279697.5824
 -77100765.54348 -60057997.61946  21199023.7034                   21199023.5704
   -313267.73856   -225592.38053  24190328.4144                   24190330.7344
 -60517896.74648 -47137172.23646  20501516.7814                   20501514.7384
 11  8 21  0  4  0.0000000  0  9G12G09G17G10G05G04G30G02G25
 -32660592.36348 -25431123.98746  21900872.8984                   21900872.5234
 -43085395.25447 -33553527.50444  23428432.0004                   23428434.7154
 -95692985.30147 -74546477.33245  23078302.5944                   23078302.6844
 -49702194.11348 -38709698.82046  21057566.0394                   21057566.0864
 -23530305.00447 -18316430.74945  22540550.6334                   22540551.7344
 -75560902.20348 -58858104.12946  21492049.7504                   21492049.9654
   1049134.44146    836019.79343  24449585.3054                   24449586.4384
 -59058386.58648 -45999891.57247  20779252.3524                   20779250.2544
   1265314.07856   1004608.23453  24773580.1174                   24773584.9884
 11  8 21  0  4 30.0000000  0  9G12G09G17G10G05G04G30G02G25
 -32839085.24248 -25570209.29746  21866906.6094                   21866906.8834
 -43120949.88347 -33581232.53144  23421665.9384                   23421669.2734
 -95752688.33247 -74592999.20445  23066941.5704                   23066941.9454
 -49825056.58248 -38805435.77346  21034186.1414                   21034185.9924
 -23734675.12947 -18475680.07845  22501660.1644                   22501661.3554
 -75596243.98848 -58885643.19246  21485324.4224                   21485324.7464
    836317.50446    670188.50743  24409087.6414                   24409087.5634
 -59173957.55548 -46089946.84647  20757260.0004                   20757257.3594
   1054061.04346    839995.54643  24733380.2034                   24733384.8134
 11  8 21  0  5  0.0000000  0  9G12G09G17G10G05G04G30G02G25
 -33017187.34848 -25708990.13846  21833015.3134                   21833015.0354
 -43156229.16447 -33608723.02044  23414952.9534                   23414955.7814
 -95812225.94947 -74639392.19745  23055611.7974                   23055612.5864
 -49947278.74248 -38900673.78946  21010927.8834                   21010928.0824
 -23938786.78547 -18634727.97845  22462819.0944                   22462820.4104
 -75631375.32048 -58913018.27146  21478639.0084                   21478638.7194
    623707.69946    504518.52843  24368628.6174                   24368630.0274
 -59289190.47348 -46179738.71446  20735331.9304                   20735329.3984
    842940.37546    675486.04144  24693205.0944                   24693210.0474
 11  8 21  0  5 30.0000000  0  9G12G09G17G10G05G04G30G02G25
 -33194886.69148 -25847457.12946  21799200.1174                   21799199.8484
 -43191226.94547 -33635994.13444  23408293.0164                   23408295.8134
 -95871587.82847 -74685648.25645  23044315.9454                   23044316.9264
 -50068849.41448 -38995404.14146  20987793.7034                   20987793.8444
 -24142626.94947 -18793564.32745  22424029.4304                   22424031.5044
 -75666288.74648 -58940223.54946  21471995.1414                   21471995.8404
    411317.66446    339019.94143  24328212.0474                   24328213.3204
 -59404076.10248 -46269259.96047  20713469.9924                   20713467.0234
    631964.53146    511089.42344  24653057.7894                   24653062.9454
 11  8 21  0  6  0.0000000  0  9G12G09G17G10G05G04G30G02G25
 -33372174.77748 -25985603.66046  21765463.2194                   21765462.5274
 -43225940.28147 -33663043.67244  23401688.2114                   23401690.1134
 -95930767.77047 -74731762.52045  23033054.1484                   23033054.7424
 -50189762.02348 -39089621.73446  20964784.9384                   20964785.1254
 -24346186.73447 -18952182.20945  22385292.9384                   22385294.4804
 -75700980.39148 -58967256.03046  21465393.3134                   21465394.3014
    199155.96546    173699.29043  24287838.4454                   24287839.8444
 -59518609.53548 -46358506.77247  20691675.1254                   20691672.4264
    421141.68446    346811.95043  24612940.2894                   24612944.2074
 11  8 21  0  6 30.0000000  0  9G12G09G17G10G05G04G30G02G25
 -33549047.27348 -26123426.37846  21731805.8754                   21731804.9804
 -43260371.26247 -33689873.09344  23395135.7034                   23395138.3794
 -95989763.13346 -74777732.98445  23021827.6414                   23021828.4454
 -50310014.25448 -39183324.73546  20941901.5554                   20941901.4964
 -24549461.50047 -19110577.99745  22346611.0474                   22346612.2934
 -75735450.68748 -58994116.03046  21458834.5234                   21458834.7194
    -12772.99246      8559.92444  24247510.0234                   24247511.0664
 -59632790.41048 -46447478.85947  20669947.0554                   20669944.5944
    210475.97346    182657.02744  24572851.7734                   24572855.5944
 11  8 21  0  7  0.0000000  0  9G12G09G17G10G05G04G30G02G25
 -33725503.10548 -26260924.39346  21698227.3284                   21698226.0594
 -43294524.23047 -33716485.95044  23388636.3914                   23388640.1604
 -96048574.37947 -74823559.96245  23010636.0944                   23010637.1884
 -50429606.32848 -39276513.32446  20919144.0864                   20919144.0514
 -24752449.66847 -19268750.45245  22307983.3204                   22307984.9734
 -75769703.11348 -59020806.24946  21452316.3364                   21452316.4184
   -224467.55946   -156396.79443  24207225.2894                   24207226.7734
 -59746620.90248 -46536177.92447  20648285.7504                   20648283.1484
       -31.32046     18625.43744  24532793.8754                   24532797.0984
 11  8 21  0  7 30.0000000  0  9G12G09G17G10G05G04G30G02G25
 -33901538.55548 -26398094.86646  21664728.8054                   21664727.8404
 -43328401.25847 -33742883.77344  23382190.5634                   23382193.5824
 -96107199.60547 -74869242.01245  22999480.7274                   22999481.0124
 -50548536.11348 -39369185.86246  20896512.3984                   20896512.2234
 -24955146.80947 -19426696.13946  22269411.6954                   22269413.4454
 -75803738.38348 -59047327.24246  21445839.1564                   21445839.8484
   -435923.50446   -321167.57743  24166987.0864                   24166987.8014
 -59860100.72348 -46624603.74247  20626691.3834                   20626688.7464
   -210376.14146   -145279.52244  24492766.0554                   24492770.0084
 11  8 21  0  8  0.0000000  0  9G12G09G17G10G05G04G30G02G25
 -34077146.74648 -26534932.40246  21631311.7344                   21631310.8204
 -43362001.57447 -33769065.98644  23375795.8134                   23375799.6604
 -96165634.30147 -74914775.55345  22988360.9144                   22988361.8164
 -50666798.68748 -39461338.49346  20874008.1094                   20874007.4844
 -25157545.83247 -19584409.52646  22230896.1024                   22230897.6764
 -75837554.64148 -59073677.58446  21439404.5704                   21439404.7274
   -647134.11346   -485747.19343  24126794.8284                   24126796.4104
 -59973226.82048 -46712753.93746  20605164.2274                   20605161.6414
   -420552.11346   -309052.89544  24452770.7274                   24452774.2384
 11  8 21  0  8 30.0000000  0  9G12G09G17G10G05G04G30G02G25
 -34252327.36348 -26671436.77146  21597975.9924                   21597975.3404
 -43395330.75446 -33795036.90544  23369453.4384                   23369457.2384
 -96223879.84447 -74960161.73045  22977277.1884                   22977277.5314
 -50784395.66448 -39552972.46746  20851629.7504                   20851629.8444
 -25359646.06647 -19741890.07746  22192437.6564                   22192439.2114
 -75871156.22348 -59099860.63446  21433010.2194                   21433010.7704
   -858098.65247   -650135.00743  24086650.2814                   24086651.5704
 -60086002.60548 -46800631.15847  20583703.3134                   20583700.9224
   -630558.83647   -472694.39344  24412807.0784                   24412810.9454
 11  8 21  0  9  0.0000000  0  9G12G09G17G10G05G04G30G02G25
 -34427074.63748 -26807603.46446  21564722.6094                   21564721.6254
 -43428388.74246 -33820796.54344  23363163.5314                   23363165.9494
 -96281932.00847 -75005397.22245  22966230.1334                   22966230.2854
 -50901322.43748 -39644084.21446  20829379.4064                   20829379.1374
 -25561441.08247 -19899132.82546  22154037.3134                   22154038.4574
 -75904541.94148 -59125875.49746  21426657.2664                   21426657.5634
  -1068810.89547   -814326.34543  24046552.4224                   24046554.0004
 -60198425.28548 -46888233.22846  20562310.0234                   20562307.4384
   -840390.27347   -636199.37643  24372877.6024                   24372880.3634
 11  8 21  0  9 30.0000000  0  9G12G09G17G10G05G04G30G02G25
 -34601380.49648 -26943426.21146  21531553.3444                   21531552.2624
 -43461173.97346 -33846343.60244  23356924.5864                   23356927.9384
 -96339785.20747 -75050477.64445  22955221.2664                   22955222.0274
 -51017573.22348 -39734669.21746  20807257.5704                   20807257.6524
 -25762922.43447 -20056131.14246  22115696.7734                   22115698.2814
 -75937708.41048 -59151719.51145  21420345.8524                   21420346.2194
  -1279263.00046   -978314.97343  24006504.3524                   24006506.2504
 -60310490.96948 -46975557.11747  20540984.9304                   20540982.3054
  -1050038.86747   -799561.85543  24332983.0164                   24332985.7704
 11  8 21  0 10  0.0000000  0  9G12G09G17G10G05G04G30G02G25
 -34775245.02047 -27078905.03946  21498468.0314                   21498467.2664
 -43493692.12147 -33871682.60744  23350736.5704                   23350740.3594
 -96397441.31247 -75095404.51944  22944249.2664                   22944250.1294
 -51133149.76247 -39824728.83446  20785263.9614                   20785264.3204
 -25964090.00047 -20212884.96746  22077415.5234                   22077416.9774
 -75970660.40648 -59177396.42245  21414075.3054                   21414075.4414
  -1489454.45346  -1142100.39043  23966506.4844                   23966508.5664
 -60422203.06248 -47062605.49147  20519726.6414                   20519724.0554
  -1259504.45747   -962781.78043  24293122.5704                   24293125.4414
 11  8 21  0 10 30.0000000  0  9G12G09G17G10G05G04G30G02G25
 -34948662.45747 -27214035.51446  21465467.3754                   21465466.8554
 -43525942.76247 -33896813.08144  23344599.9924                   23344603.6454
 -96454895.80547 -75140174.30344  22933316.1484                   22933316.8484
 -51248047.62548 -39914259.60346  20763399.3524                   20763399.7074
 -26164936.54347 -20369388.65046  22039195.8594                   22039197.0204
 -76003395.84848 -59202904.58846  21407846.1254                   21407846.4734
  -1699378.39146  -1305677.53643  23926559.7664                   23926560.7624
 -60533558.69148 -47149376.08647  20498536.4774                   20498533.6724
  -1468780.35547  -1125853.83743  24253298.6954                   24253301.5164
 11  8 21  0 11  0.0000000  0  9G12G09G17G10G05G04G30G02G25
 -33546202.25047 -26121209.37246  21732346.9064                   21732346.3594
 -41982506.30947 -32694135.49044  23638305.6564                   23638310.2114
 -94936724.06647 -73957183.37745  23222215.2584                   23222215.5784
 -49786840.68448 -38775656.77946  21041458.0944                   21041458.2624
 -24790030.78547 -19298033.38546  22300831.5554                   22300832.4734
 -74460494.22348 -58000643.59946  21701450.3594                   21701450.6414
   -333603.34846   -241437.25143  24186457.6564                   24186458.1914
 -59069133.48848 -46008265.53047  20777207.2584                   20777204.4614
   -102435.42246    -61169.45943  24513305.3204                   24513308.4774
 11  8 21  0 11 30.0000000  0  9G12G09G17G10G05G04G30G02G25
 -33718712.39147 -26255632.83446  21699519.2734                   21699518.5394
 -42014227.12146 -32718853.17044  23632269.9384                   23632273.1374
 -94993768.18447 -74001633.36544  23211359.3914                   23211360.2344
 -49900374.55947 -38864124.71946  21019852.8914                   21019852.8244
 -24990221.87147 -19454026.31246  22262736.1884                   22262737.0824
 -74492798.18048 -58025815.55146  21695303.4454                   21695303.7384
   -542979.23846   -404587.21143  24146613.5084                   24146614.4924
 -59179774.71148 -46094479.45146  20756152.8834                   20756150.2504
   -311319.73046   -223936.46543  24473556.3134                   24473559.9924
 11  8 21  0 12  0.0000000  0  9G12G09G17G10G05G04G30G02G25
 -33890766.04747 -26389700.61946  21666778.7344                   21666777.8594
 -42045688.97746 -32743369.04244  23626283.4534                   23626286.8014
 -95050607.19947 -74045923.56345  23200543.8984                   23200544.5314
 -50013226.44148 -38952061.23346  20998378.3364                   20998378.6174
 -25190081.74647 -19609761.15846  22224704.0474                   22224705.0234
 -74524890.76248 -58050822.77546  21689196.3204                   21689196.5044
   -752077.74646   -567521.05143  24106824.0784                   24106824.3404
 -59290061.06248 -46180416.84846  20735165.7424                   20735163.2934
   -520005.37146   -386548.53243  24433844.6724                   24433848.5004
 11  8 21  0 12 30.0000000  0  9G12G09G17G10G05G04G30G02G25
 -34062355.17647 -26523406.43246  21634126.5164                   21634125.6644
 -42076889.50846 -32767681.33044  23620345.9614                   23620350.0704
 -95107234.56647 -74090048.83445  23189768.0164                   23189768.6024
 -50125390.37547 -39039461.67946  20977034.2894                   20977034.2974
 -25389601.86347 -19765231.27846  22186736.5394                   22186737.6724
 -74556767.90248 -58075662.11245  21683130.5164                   21683130.4184
   -960890.31646   -730232.12843  24067088.8984                   24067088.3594
 -59399988.26647 -46266074.39247  20714247.3914                   20714245.0124
   -728483.98447   -548999.40743  24394172.9454                   24394176.3134
 11  8 21  0 13  0.0000000  0  9G12G09G17G10G05G04G30G02G25
 -34233484.86347 -26656754.21646  21601561.3594                   21601560.7974
 -42107840.10947 -32791798.83644  23614455.9844                   23614460.1054
 -95163657.41447 -74134014.71545  23179031.1174                   23179031.5824
 -50236873.48047 -39126331.61346  20955819.5234                   20955819.7194
 -25588787.16047 -19920440.49746  22148832.8134                   22148833.5634
 -74588439.55548 -58100341.33645  21677103.7034                   21677103.3954
  -1169421.98446   -892724.31543  24027406.7114                   24027406.5124
 -59509564.82847 -46351458.72546  20693395.8364                   20693393.1884
   -936760.84847   -711293.05144  24354538.7894                   24354543.2384
 11  8 21  0 13 30.0000000  0  9G12G09G17G10G05G04G30G02G25
 -34404148.79747 -26789739.07746  21569085.2194                   21569084.7584
 -42138539.82447 -32815720.84844  23608614.0234                   23608618.9734
 -95219871.51647 -74177817.95445  23168333.7424                   23168334.2504
 -50347671.04747 -39212667.36446  20934735.3834                   20934735.3444
 -25787630.50047 -20075383.24446  22110993.8834                   22110995.4104
 -74619903.49248 -58124858.72045  21671116.3204                   21671116.2704
  -1377665.51246  -1054991.94943  23987779.3204                   23987780.1724
 -59618787.80147 -46436567.52347  20672611.4534                   20672608.7814
  -1144829.12147   -873424.10644  24314944.6484                   24314948.7704
 11  8 21  0 14  0.0000000  0  9G12G09G17G10G05G04G30G02G25
 -34574344.02047 -26922358.71146  21536697.9844                   21536697.5234
 -42168991.55146 -32839449.59344  23602819.9774                   23602824.1484
 -95275875.50447 -74221457.46445  23157676.8444                   23157678.1764
 -50457781.85947 -39298467.97846  20913782.0784                   20913782.1214
 -25986128.24247 -20230056.69846  22073221.3364                   22073222.6024
 -74651161.30547 -58149215.47946  21665168.0084                   21665168.3204
  -1585617.75847  -1217032.63844  23948206.6804                   23948208.2974
 -59727657.83647 -46521401.30247  20651894.1094                   20651891.4654
  -1352685.69147  -1035390.22244  24275391.3754                   24275395.4964
 11  8 21  0 14 30.0000000  0  9G12G09G17G10G05G04G30G02G25
 -34744072.52347 -27054614.66546  21504399.6094                   21504398.9574
 -42199203.16047 -32862991.29544  23597071.0314                   23597075.2384
 -95331673.09847 -74264936.15645  23147058.9304                   23147059.0784
 -50567209.93447 -39383736.58046  20892958.7894                   20892958.4144
 -26184281.88347 -20384462.01946  22035513.3284                   22035514.8634
 -74682219.44148 -58173416.64645  21659258.0634                   21659258.4454
  -1793280.10247  -1378847.37544  23908690.0864                   23908691.8484
 -59836180.44547 -46605964.36047  20631243.2734                   20631239.9924
  -1560332.33247  -1197192.73544  24235876.6884                   24235880.8484
 11  8 21  0 15  0.0000000  0  9G12G09G17G10G05G04G30G02G25
 -34913332.48847 -27186505.52246  21472190.6954                   21472189.8674
 -42229178.57547 -32886348.86644  23591367.0554                   23591370.7234
 -95387264.08247 -74308253.82245  23136480.8524                   23136480.6764
 -50675955.94947 -39468473.70646  20872264.9924                   20872264.8794
 -26382089.16447 -20538597.45346  21997871.9614                   21997873.4654
 -74713080.61348 -58197464.32445  21653384.9694                   21653385.2074
  -2000650.54347  -1540434.64844  23869229.2034                   23869230.3674
 -59944357.29348 -46690257.99647  20610657.6024                   20610654.6334
  -1767767.21547  -1358830.21544  24196403.4774                   24196406.7894
 11  8 21  0 15 30.0000000  0  9G12G09G17G10G05G04G30G02G25
 -35082124.83647 -27318031.99646  21440070.4534                   21440070.1454
 -42258924.63747 -32909527.81844  23585706.5864                   23585711.0474
 -95442651.33247 -74351412.76145  23125940.3594                   23125941.1954
 -50784022.96147 -39552681.74046  20851700.4614                   20851700.5434
 -26579550.91047 -20692463.62146  21960296.2664                   21960297.6414
 -74743750.25048 -58221362.74045  21647548.7274                   21647548.6604
  -2207729.59447  -1701794.89744  23829823.0864                   23829823.9844
 -60052193.16848 -46774285.92747  20590136.8984                   20590134.2344
  -1974991.16447  -1520303.38344  24156970.4064                   24156973.8714
 11  8 21  0 16  0.0000000  0  9G12G09G17G10G05G04G30G02G25
 -35250445.95747 -27449191.28646  21408040.1024                   21408039.5634
 -42288443.37547 -32932529.57744  23580089.2664                   23580093.1024
 -95497832.94547 -74394411.44445  23115439.7894                   23115440.2894
 -50891409.19148 -39636359.29346  20831265.1804                   20831265.5164
 -26776662.50847 -20846056.96746  21922787.1804                   21922788.0904
 -74774228.80148 -58245112.24245  21641749.0704                   21641749.4064
  -2414512.80147  -1862924.57544  23790473.7504                   23790474.5394
 -60159687.19148 -46858047.47847  20569681.4384                   20569678.9384
  -2181999.92647  -1681608.82644  24117577.6564                   24117581.2034
 11  8 21  0 16 30.0000000  0  9G12G09G17G10G05G04G30G02G25
 -35418296.32047 -27579983.74746  21376099.3054                   21376098.5634
 -42317741.06247 -32955359.08844  23574514.7664                   23574518.6524
 -95552811.21547 -74437251.69245  23104977.8444                   23104979.1134
 -50998116.77047 -39719508.03646  20810960.3054                   20810959.6524
 -26973423.76247 -20999377.32846  21885344.6804                   21885345.6804
 -74804521.09448 -58268716.62745  21635984.3834                   21635984.7894
  -2621000.41046  -2023823.89343  23751179.9454                   23751181.1844
 -60266843.45748 -46941545.84547  20549290.4924                   20549287.7544
  -2388793.91847  -1842746.91144  24078225.8674                   24078230.1174
 11  8 21  0 17  0.0000000  0  9G12G09G17G10G05G04G30G02G25
 -35585673.51647 -27710407.50646  21344248.5234                   21344247.4494
 -42346820.92647 -32978018.85744  23568980.8594                   23568984.8524
 -95607585.28947 -74479932.82345  23094554.2734                   23094555.4964
 -51104145.56647 -39802127.84046  20790783.2504                   20790783.1024
 -27169831.69547 -21152422.36146  21847969.2504                   21847970.0864
 -74834629.17248 -58292177.45245  21630255.3444                   21630255.2424
  -2827189.31246  -2184490.55543  23711943.4224                   23711945.0514
 -60373663.27048 -47024782.03447  20528963.3054                   20528960.4104
  -2595370.35247  -2003715.52244  24038915.4694                   24038919.2624
 11  8 21  0 17 30.0000000  0  9G12G09G17G10G05G04G30G02G25
 -35752572.02347 -27840458.27746  21312488.7034                   21312487.6054
 -42375683.22347 -33000509.06844  23563489.1174                   23563492.6844
 -95662151.73847 -74522452.16444  23084170.9384                   23084171.1454
 -51209492.23047 -39884216.12646  20770736.4614                   20770736.4024
 -27365880.59447 -21305187.62046  21810662.4454                   21810663.1524
 -74864551.91848 -58315493.85945  21624561.0314                   21624561.2974
  -3033073.69946  -2344919.86143  23672764.8674                   23672766.0514
 -60480144.36347 -47107754.28447  20508700.5554                   20508697.8164
  -2801723.64147  -2164510.18244  23999647.5314                   23999651.4534
 11  8 21  0 18  0.0000000  0  9G12G09G17G10G05G04G30G02G25
 -35918990.53547 -27970135.00246  21280820.2344                   21280819.6414
 -42404332.43747 -33022833.28444  23558036.5554                   23558040.9694
 -95716510.90247 -74564809.99645  23073827.1174                   23073827.5944
 -51314157.69947 -39965773.60046  20750819.2734                   20750818.9264
 -27561568.65647 -21457671.71546  21773423.7974                   21773424.8954
 -74894292.28548 -58338668.16645  21618901.5474                   21618902.2304
  -3238651.74246  -2505110.41843  23633644.5234                   23633645.2814
 -60586289.05948 -47190464.40447  20488501.9774                   20488498.7194
  -3007852.14547  -2325129.71943  23960422.4144                   23960426.3834
 11  8 21  0 18 30.0000000  0  9G12G09G17G10G05G04G30G02G25
 -34509499.29747 -26871830.12546  21549037.4694                   21549036.7384
 -40857349.46947 -31817392.15444  23852418.2894                   23852422.2584
 -94195238.97747 -73379403.35744  23363315.4064                   23363316.0124
 -49842716.70347 -38819196.19346  21030825.2344                   21030824.3054
 -26181464.62147 -20382265.86146  22036048.8834                   22036049.5044
 -73348429.60248 -57134099.83045  21913069.7194                   21913069.7154
  -1868492.10946  -1437453.47643  23894377.7734                   23894378.2934
 -59116673.60547 -46045309.46547  20768160.4454                   20768157.7974
  -1638324.84447  -1257965.44444  24221035.2194                   24221038.0234
 11  8 21  0 19  0.0000000  0  9G12G09G17G10G05G04G30G02G25
 -34674947.43448 -27000750.74046  21517553.8674                   21517552.9454
 -40885579.18447 -31839389.47644  23847046.1414                   23847050.1724
 -94249178.66047 -73421434.29744  23353050.6254                   23353050.9184
 -49946015.96947 -38899689.11446  21011167.6564                   21011167.3794
 -26376418.72747 -20534178.06746  21998950.2114                   21998951.3284
 -73377807.84048 -57156991.93745  21907478.6804                   21907478.9304
  -2073445.55946  -1597157.40643  23855375.7584                   23855375.9614
 -59222145.87547 -46127495.61847  20748089.3524                   20748086.6764
  -1843992.71146  -1418226.06143  24181897.3134                   24181900.5864
 11  8 21  0 19 30.0000000  0  9G12G09G17G10G05G04G30G02G25
 -34839905.64147 -27129289.57246  21486163.2974                   21486162.2234
 -40913603.05547 -31861226.42043  23841714.1254                   23841717.6914
 -94302906.38347 -73463300.10344  23342827.1644                   23342828.0664
 -50048630.59848 -38979648.55946  20991640.7114                   20991641.0554
 -26571000.35947 -20685800.00746  21961922.7274                   21961923.1954
 -73407006.68448 -57179744.26345  21901922.2344                   21901922.7894
  -2278081.15246  -1756613.65043  23816435.0634                   23816435.4064
 -59327282.38748 -46209420.14347  20728082.6954                   20728079.7384
  -2049424.99246  -1578303.06544  24142805.0234                   24142808.2814
 11  8 21  0 20  0.0000000  0  9G12G09G17G10G05G04G30G02G25
 -35004369.73848 -27257443.39546  21454866.7424                   21454865.5314
 -40941421.98447 -31882903.63143  23836419.7344                   23836424.7624
 -94356419.45747 -73504998.64144  23332643.0864                   23332644.2894
 -50150558.78148 -39059073.11046  20972244.5164                   20972244.0944
 -26765204.61747 -20837127.90046  21924966.4064                   21924967.3364
 -73436025.87148 -57202356.60645  21896400.8054                   21896400.7664
  -2482394.08247  -1915818.45644  23777555.4064                   23777556.7074
 -59432081.91848 -46291082.08947  20708139.9304                   20708137.2704
  -2254616.99247  -1738192.87544  24103758.3674                   24103762.0274
 11  8 21  0 20 30.0000000  0  9G12G09G17G10G05G04G30G02G25
 -35168339.96948 -27385212.38746  21423663.9534                   21423663.0204
 -40969042.21546 -31904426.04143  23831163.6644                   23831168.2624
 -94409719.57447 -73546531.25144  23322500.8524                   23322501.3634
 -50251802.81648 -39137964.55546  20952978.5084                   20952977.7624
 -26959031.07847 -20988161.42046  21888082.8134                   21888083.2424
 -73464870.23848 -57224832.71945  21890911.7114                   21890911.9064
  -2686383.99647  -2074771.59244  23738737.7664                   23738738.6454
 -59536548.60547 -46372484.68047  20688260.6024                   20688257.9414
  -2459568.65647  -1897895.37844  24064757.2424                   24064760.5314
 11  8 21  0 21  0.0000000  0  9G12G09G17G10G05G04G30G02G25
 -35331816.32048 -27512596.53646  21392555.6094                   21392554.6884
 -40996469.55946 -31925798.11343  23825944.9694                   23825948.6414
 -94462809.16047 -73587899.77544  23312397.7894                   23312398.7344
 -50352364.78148 -39216324.50646  20933842.1414                   20933841.8984
 -27152479.45747 -21138900.31846  21851270.4614                   21851271.2234
 -73493543.70348 -57247175.67745  21885455.3594                   21885455.5634
  -2890050.38746  -2233472.62844  23699981.1254                   23699981.8484
 -59640685.67648 -46453630.41347  20668443.8834                   20668441.3014
  -2664279.72347  -2057410.46444  24025801.8984                   24025804.6524
 11  8 21  0 21 30.0000000  0  9G12G09G17G10G05G04G30G02G25
 -35494796.37147 -27639593.96246  21361541.6254                   21361540.8284
 -41023707.16047 -31947022.34143  23820761.6724                   23820765.8794
 -94515687.48447 -73629103.71844  23302335.5474                   23302336.8164
 -50452244.84448 -39294153.11046  20914835.6954                   20914835.4964
 -27345546.80547 -21289342.30446  21814531.2814                   21814531.8054
 -73522048.33648 -57269387.06645  21880031.0234                   21880031.3204
  -3093390.33647  -2391919.25644  23661287.2974                   23661287.8874
 -59744494.33247 -46534520.24147  20648689.9774                   20648687.2344
  -2868747.42247  -2216735.85744  23986893.2584                   23986896.2894
 11  8 21  0 22  0.0000000  0  9G12G09G17G10G05G04G30G02G25
 -35657279.39847 -27766204.08046  21330621.8754                   21330621.2814
 -41050759.83646 -31968102.50943  23815613.9224                   23815618.8524
 -94568355.40647 -73670143.69144  23292313.8134                   23292314.6524
 -50551444.56648 -39371451.59046  20895958.5864                   20895958.2154
 -27538231.42647 -21439486.07246  21777864.4454                   21777865.1804
 -73550387.50048 -57291469.53645  21874638.1174                   21874638.3754
  -3296402.52747  -2550110.52544  23622654.6724                   23622656.6724
 -59847977.08647 -46615156.12547  20628997.5474                   20628995.3054
  -3072970.67247  -2375870.78244  23948030.6414                   23948033.8634
 11  8 21  0 22 30.0000000  0  9G12G09G17G10G05G04G30G02G25
 -35819260.85947 -27892423.38046  21299797.8754                   21299796.9104
 -41077628.87946 -31989039.59544  23810501.0004                   23810505.8324
 -94620809.53947 -73711017.08844  23282331.8834                   23282333.1134
 -50649961.61348 -39448218.12346  20877211.4064                   20877211.2584
 -27730528.66047 -21589327.98046  21741271.6644                   21741272.4614
 -73578560.62947 -57313422.63045  21869276.7734                   21869276.8714
  -3499081.72347  -2708042.29844  23584086.1254                   23584087.4574
 -59951132.75047 -46695537.14147  20609367.9064                   20609365.4024
  -3276944.45747  -2534811.35544  23909215.3444                   23909218.5784
 11  8 21  0 23  0.0000000  0  9G12G09G17G10G05G04G30G02G25
 -35980742.64547 -28018253.31546  21269068.8754                   21269068.2974
 -41104321.54747 -32009839.18444  23805422.1564                   23805426.5044
 -94673053.73847 -73751726.86844  23272390.5164                   23272390.9774
 -50747800.18048 -39524455.95546  20858593.1644                   20858592.8634
 -27922439.23847 -21738868.58646  21704752.1174                   21704752.9884
 -73606573.46148 -57335250.81745  21863945.9774                   21863946.5124
  -3701429.02347  -2865715.45044  23545580.7424                   23545581.6294
 -60053966.71547 -46775667.48946  20589799.4064                   20589796.5784
  -3480670.09047  -2693558.52744  23870447.8524                   23870450.9574
 11  8 21  0 23 30.0000000  0  9G12G09G17G10G05G04G30G02G25
 -36141718.09847 -28143688.69146  21238436.1644                   21238435.7304
 -41130836.59446 -32030500.38844  23800376.4304                   23800380.4454
 -94725082.96947 -73792269.18144  23262489.4064                   23262489.9304
 -50844956.08248 -39600161.85646  20840105.0314                   20840105.0554
 -28113956.59447 -21888102.79546  21668307.5554                   21668308.2814
 -73634423.90248 -57356952.47645  21858646.2814                   21858646.9384
  -3903437.32446  -3023124.46444  23507139.8204                   23507140.5124
 -60156475.49248 -46855544.43746  20570292.5004                   20570289.7114
  -3684140.53147  -2852106.89344  23831728.4924                   23831731.8324
 11  8 21  0 24  0.0000000  0  9G12G09G17G10G05G04G30G02G25
 -36302184.37947 -28268727.31346  21207900.3914                   21207899.8404
 -41157177.02346 -32051025.56844  23795364.1094                   23795368.8754
 -94776896.33647 -73832643.25844  23252629.6094                   23252630.4264
 -50941428.93448 -39675335.49046  20821746.9534                   20821746.7274
 -28305077.22747 -22037027.86846  21631938.2274                   21631938.7894
 -73662113.12148 -57378528.51145  21853377.5864                   21853377.6724
  -4105103.28946  -3180266.72244  23468764.1884                   23468765.0554
 -60258660.08647 -46935168.78747  20550847.3754                   20550844.6054
  -3887352.79747  -3010454.05244  23793058.6024                   23793061.5434
 11  8 21  0 24 30.0000000  0  9G12G09G17G10G05G04G30G02G25
 -36462144.93047 -28393371.86146  21177460.9774                   21177459.9614
 -41183351.90647 -32071421.72144  23790382.6954                   23790387.3554
 -94828498.69547 -73872852.93044  23242810.2424                   23242811.3954
 -51037224.56648 -39749981.41846  20803517.7424                   20803517.3164
 -28495803.75447 -22185645.84846  21595644.3054                   21595644.7974
 -73689648.69548 -57399984.82445  21848137.6174                   21848137.7584
  -4306429.63747  -3337144.33644  23430452.5164                   23430453.6334
 -60360527.15248 -47014545.71447  20531462.8364                   20531459.9264
  -4090309.73447  -3168602.27044  23754436.8914                   23754440.3874
 11  8 21  0 25  0.0000000  0  9G12G09G17G10G05G04G30G02G25
 -36621597.48047 -28517620.55746  21147118.1644                   21147117.1844
 -41209364.10546 -32091691.08844  23785433.1884                   23785436.9024
 -94879889.69947 -73912897.91244  23233030.7664                   23233032.1374
 -51132343.06248 -39824099.71046  20785416.7664                   20785416.9344
 -28686133.46147 -22333954.60846  21559425.5634                   21559425.7384
 -73717032.07848 -57421322.51845  21842926.5554                   21842926.5944
  -4507413.27047  -3493754.89844  23392206.6564                   23392207.7194
 -60462077.58648 -47093675.91347  20512138.4614                   20512135.6484
  -4293008.27747  -3326549.13544  23715864.7894                   23715867.8404
 11  8 21  0 25 30.0000000  0  9G12G09G17G10G05G04G30G02G25
 -36780538.41048 -28641470.59146  21116872.8674                   21116871.7584
 -41235215.68446 -32111835.29844  23780514.2034                   23780518.4844
 -94931066.76247 -73952776.18345  23223292.2584                   23223293.3134
 -51226782.90648 -39897689.18146  20767445.7504                   20767445.3364
 -28876061.93047 -22481950.71546  21523283.1564                   21523284.0514
 -73744263.52047 -57442541.85445  21837744.7734                   21837745.3634
  -4708049.78146  -3650094.95644  23354026.9304                   23354027.4774
 -60563310.92248 -47172559.04247  20492874.0704                   20492871.4804
  -4495444.37147  -3484291.48644  23677342.5394                   23677345.1954
 11  8 21  0 26  0.0000000  0  9G12G09G17G10G05G04G30G02G25
 -35363537.80947 -27537314.23446  21386518.9454                   21386518.2664
 -39685486.59047 -30904254.37444  24075418.1804                   24075422.8634
 -93406605.76647 -72764884.51744  23513387.5234                   23513388.2854
 -49745118.83648 -38743145.73046  21049397.4144                   21049396.7384
 -27490157.41447 -21402025.02646  21787011.8364                   21787012.3954
 -72195921.68448 -56236041.73745  22132384.4614                   22132385.0704
  -3332907.26247  -2578555.24144  23615707.2034                   23615708.7584
 -59088802.64847 -46023591.55847  20773463.8524                   20773461.0124
  -3122186.07047  -2414220.02244  23938664.7894                   23938668.0394
 11  8 21  0 26 30.0000000  0  9G12G09G17G10G05G04G30G02G25
 -35521446.09448 -27660359.61046  21356470.2194                   21356469.0274
 -39711024.00047 -30924153.74944  24070558.7034                   24070563.0944
 -93457351.39847 -72804426.60244  23503731.0164                   23503732.0124
 -49838199.73448 -38815676.29946  21031684.1724                   21031684.2854
 -27679272.30947 -21549387.19546  21751024.4224                   21751025.2624
 -72222852.26647 -56257026.62645  22127259.6644                   22127260.4344
  -3532838.35247  -2734345.65043  23577662.1334                   23577662.2344
 -59189402.92648 -46101981.41047  20754320.2274                   20754317.5354
  -3324086.55547  -2571545.00644  23900244.3284                   23900247.7154
 11  8 21  0 27  0.0000000  0  9G12G09G17G10G05G04G30G02G25
 -35678838.84047 -27783003.26046  21326519.0004                   21326518.2344
 -39736413.29746 -30943937.72744  24065726.3204                   24065732.1484
 -93507884.48846 -72843803.05644  23494114.7114                   23494115.6884
 -49930605.56648 -38887680.83346  21014100.1954                   21014100.1024
 -27867980.36747 -21696432.34346  21715114.4844                   21715114.9494
 -72249639.14547 -56277899.54945  22122162.4844                   22122162.6054
  -3732416.58647  -2889861.11844  23539683.6954                   23539683.2584
 -59289692.53148 -46180129.17246  20735235.6724                   20735233.2544
  -3525719.19947  -2728661.28944  23861875.1414                   23861877.5824
 11  8 21  0 27 30.0000000  0  9G12G09G17G10G05G04G30G02G25
 -35835708.66848 -27905239.45446  21296667.9304                   21296666.7464
 -39761652.64147 -30963604.91544  24060923.7274                   24060929.1454
 -93558199.29346 -72883009.44444  23484540.0474                   23484541.0784
 -50022331.87948 -38959155.85146  20996645.3594                   20996645.0354
 -28056273.73047 -21843154.37146  21679283.5704                   21679283.5984
 -72276279.01248 -56298657.90245  22117092.8984                   22117093.1214
  -3931633.98047  -3045095.35544  23501773.9454                   23501774.0434
 -59389667.35548 -46258031.65447  20716211.2584                   20716208.6254
  -3727076.25447  -2885562.81744  23823557.9694                   23823561.1804
 11  8 21  0 28  0.0000000  0  9G12G09G17G10G05G04G30G02G25
 -35992055.56248 -28027068.16046  21266916.0554                   21266915.2074
 -39786747.22746 -30983159.25444  24056148.6644                   24056153.8444
 -93608297.10947 -72922046.70044  23475007.2584                   23475007.4694
 -50113380.30948 -39030102.65546  20979319.2274                   20979318.8524
 -28244151.20347 -21989552.30746  21643531.6484                   21643531.9964
 -72302775.37147 -56319304.44945  22112050.8674                   22112050.8594
  -4130489.18747  -3200047.38744  23463932.6724                   23463932.7854
 -59489330.27348 -46335691.07546  20697245.7664                   20697243.2274
  -3928156.61347  -3042248.73444  23785293.4924                   23785296.3364
 11  8 21  0 28 30.0000000  0  9G12G09G17G10G05G04G30G02G25
 -36147878.17248 -28148488.33946  21237263.8364                   21237263.0634
 -39811700.93047 -31002603.85844  24051400.2504                   24051405.5704
 -93658178.39847 -72960915.26944  23465515.0554                   23465515.8594
 -50203752.17248 -39100522.25846  20962122.0864                   20962121.9224
 -28431611.00847 -22135624.79146  21607858.9304                   21607859.1644
 -72329130.78947 -56339841.14845  22107035.6254                   22107036.1174
  -4328980.37547  -3354715.77344  23426161.2894                   23426161.2774
 -59588683.43048 -46413109.11946  20678339.8674                   20678337.2034
  -4128958.56247  -3198717.70844  23747082.6334                   23747084.7304
 11  8 21  0 29  0.0000000  0  9G12G09G17G10G05G04G30G02G25
 -36303171.93748 -28269496.44446  21207712.4064                   21207711.2704
 -39836514.76247 -31021939.43344  24046678.4844                   24046683.3324
 -93707840.02746 -72999612.67344  23456064.3984                   23456065.7734
 -50293445.86748 -39170413.42546  20945053.8204                   20945054.1024
 -28618648.08247 -22281367.87546  21572266.9774                   21572267.2664
 -72355344.42648 -56360267.37045  22102047.4064                   22102048.0084
  -4527102.29347  -3509096.39744  23388459.9454                   23388460.5084
 -59687725.63748 -46490284.86946  20659492.5784                   20659490.0044
  -4329476.90647  -3354965.66644  23708925.2114                   23708927.2774
 11  8 21  0 29 30.0000000  0  9G12G09G17G10G05G04G30G02G25
 -36457939.20748 -28390094.28546  21178261.1414                   21178260.2074
 -39861196.43747 -31041172.02944  24041982.0704                   24041986.8524
 -93757285.75047 -73038141.81944  23446655.0784                   23446656.7074
 -50382466.31648 -39239779.99046  20928113.7504                   20928113.6844
 -28805264.32847 -22426783.04146  21536755.0164                   21536755.6604
 -72381422.84048 -56380588.21845  22097085.1094                   22097085.2504
  -4724856.63747  -3663190.58644  23350828.1644                   23350828.8324
 -59786462.43748 -46567222.63647  20640703.5864                   20640700.9924
  -4529713.55547  -3510994.12444  23670820.8524                   23670823.6174
 11  8 21  0 30  0.0000000  0  9G12G09G17G10G05G04G30G02G25
 -36612181.20748 -28510282.83746  21148909.7274                   21148908.7194
 -39885752.38747 -31060306.63644  24037309.3524                   24037313.6484
 -93806518.73447 -73076505.22944  23437286.4144                   23437287.6764
 -50470817.21948 -39308624.82846  20911301.0314                   20911300.9384
 -28991460.18448 -22571870.63646  21501323.2194                   21501323.2304
 -72407370.91047 -56400807.50445  22092147.0234                   22092147.5394
  -4922243.79447  -3816998.70944  23313266.2504                   23313267.3794
 -59884898.42248 -46643925.98647  20621972.0554                   20621969.2304
  -4729669.08247  -3666803.48244  23632770.6644                   23632773.5044
 11  8 21  0 30 30.0000000  0  9G12G09G17G10G05G04G30G02G25
 -36765892.16048 -28630057.58246  21119659.6334                   21119658.5904
 -39910182.21947 -31079343.01844  24032660.5474                   24032665.2464
 -93855534.27746 -73114699.19844  23427959.0084                   23427959.9574
 -50558494.96148 -39376945.13746  20894616.8674                   20894616.6094
 -29177229.16047 -22716625.59446  21465972.1334                   21465972.8164
 -72433186.57447 -56420923.63245  22087234.2274                   22087235.3204
  -5119257.17246  -3970515.43344  23275775.4384                   23275777.0744
 -59983030.72748 -46720392.71147  20603297.9844                   20603295.1214
  -4929336.89547  -3822388.68944  23594774.6724                   23594777.4654
 11  8 21  0 31  0.0000000  0  9G12G09G17G10G05G04G30G02G25
 -36919076.96548 -28749422.34646  21090509.2974                   21090508.4694
 -39934496.36747 -31098289.22244  24028034.0554                   24028039.3914
 -93904339.25046 -73152729.09044  23418672.0634                   23418673.0864
 -50645507.31648 -39444746.93046  20878058.8914                   20878058.6024
 -29362575.62148 -22861051.33546  21430702.0634                   21430702.4384
 -72458878.33647 -56440943.20645  22082345.4224                   22082345.9454
  -5315900.82846  -4123744.18044  23238355.3914                   23238357.1374
 -60080867.64548 -46796629.24747  20584679.9614                   20584677.4534
  -5128721.35247  -3977753.07544  23556832.7584                   23556836.3284
 11  8 21  0 31 30.0000000  0  9G12G09G17G10G05G04G30G02G25
 -37071732.21948 -28868374.49546  21061460.0084                   21061458.9304
 -39958696.37146 -31117146.49343  24023428.7814                   24023433.7034
 -93952931.60947 -73190593.28044  23409425.3594                   23409426.1214
 -50731853.20348 -39512029.42346  20861627.6024                   20861627.2584
 -29547495.16448 -23005144.40446  21395512.5634                   21395513.1454
 -72484446.64147 -56460866.59645  22077479.9844                   22077480.2624
  -5512170.50846  -4276681.46044  23201006.1884                   23201007.6214
 -60178409.00448 -46872635.49747  20566118.8284                   20566116.1094
  -5327818.24247  -4132893.39645  23518946.1564                   23518949.6054
 11  8 21  0 32  0.0000000  0  9G12G09G17G10G05G04G30G02G25
 -37223856.74248 -28986913.08446  21032511.8754                   21032510.4534
 -39982786.38346 -31135918.12344  24018844.6024                   24018849.8164
 -94001311.72347 -73228292.12244  23400218.3834                   23400219.9924
 -50817534.27748 -39578793.86946  20845322.9844                   20845322.9574
 -29731986.20748 -23148903.57146  21360405.2034                   21360405.6094
 -72509894.19947 -56480695.88345  22072637.8834                   22072637.7074
  -5708064.26246  -4429325.87744  23163729.1804                   23163730.9884
 -60275656.70348 -46948412.89447  20547613.1954                   20547610.6294
  -5526625.75047  -4287808.23744  23481113.8914                   23481117.1764
 11  8 21  0 32 30.0000000  0  9G12G09G17G10G05G04G30G02G25
 -37375444.21148 -29105033.19946  21003665.7424                   21003664.7624
 -40006765.72346 -31154603.52243  24014281.2424                   24014286.5824
 -94049474.78947 -73265821.77644  23391054.2034                   23391054.9024
 -50902546.96948 -39645037.51246  20829145.7974                   20829145.6484
 -29916041.59448 -23292323.27446  21325380.7894                   21325380.9884
 -72535218.12547 -56500428.84045  22067818.9064                   22067818.8364
  -5903574.96146  -4581671.77644  23126524.4064                   23126526.0234
 -60372607.73048 -47023959.13247  20529163.6644                   20529161.1684
  -5725136.92247  -4442492.16445  23443338.9224                   23443342.2704
 11  8 21  0 33  0.0000000  0  9G12G09G17G10G05G04G30G02G25
 -37526491.12548 -29222732.09846  20974922.2664                   20974921.3554
 -40030635.72746 -31173203.69543  24009739.6644                   24009744.1994
 -94097418.59047 -73303180.60744  23381930.3834                   23381930.7734
 -50986890.37948 -39710759.63646  20813095.6804                   20813095.1334
 -30099657.86748 -23435400.81546  21290439.4304                   21290439.7274
 -72560418.69947 -56520065.67845  22063023.1334                   22063023.5354
  -6098698.43047  -4733715.95944  23089393.6884                   23089394.8244
 -60469261.83648 -47099273.99647  20510771.2114                   20510768.5664
  -5923347.46947  -4596941.84345  23405620.2034                   23405623.9534
 11  8 21  0 33 30.0000000  0  9G12G09G17G10G05G04G30G02G25
 -36101574.11748 -28112407.16646  21246075.0394                   21246073.9414
 -38478982.43446 -29964123.38943  24305009.4534                   24305014.9384
 -92569725.07047 -72112770.11844  23672640.5864                   23672640.8094
 -49495146.14148 -38548361.52546  21096965.3754                   21096964.7894
 -28707409.44948 -22350531.84746  21555375.8364                   21555376.1644
 -71010080.24247 -55312009.74845  22358042.5164                   22358043.0744
  -4718008.71946  -3657853.77044  23352130.4304                   23352131.5124
 -58990200.47348 -45946758.62146  20792226.9614                   20792224.5274
  -4545831.73847  -3523552.87345  23667753.2424                   23667756.1294
 11  8 21  0 34  0.0000000  0  9G12G09G17G10G05G04G30G02G25
 -36251541.51648 -28229264.88046  21217537.1804                   21217536.5164
 -38502650.85546 -29982566.52243  24300505.8444                   24300511.2154
 -92617236.65647 -72149792.14444  23663600.0704                   23663601.6414
 -49578160.55548 -38613048.06446  21081167.8594                   21081167.7664
 -28890145.78548 -22492923.71246  21520602.2344                   21520602.3324
 -71035046.22347 -55331463.81345  22353291.6954                   22353292.2424
  -4912356.18747  -3809293.28744  23315147.6414                   23315148.4614
 -59086271.37548 -46021619.04547  20773945.6024                   20773942.7584
  -4743440.17247  -3677533.38845  23630149.5004                   23630152.2114
 11  8 21  0 34 30.0000000  0  9G12G09G17G10G05G04G30G02G25
 -36400969.00048 -28345701.88746  21189102.1414                   21189101.2154
 -38526226.16846 -30000937.06243  24296019.0084                   24296024.2934
 -92664534.17647 -72186647.37944  23654599.4924                   23654600.2854
 -49660514.56248 -38677220.01146  21065496.5704                   21065496.3524
 -29072441.27348 -22634972.08146  21485912.4454                   21485912.7854
 -71059900.37947 -55350830.73745  22348562.2344                   22348563.2194
  -5106314.32447  -3960429.45844  23278238.4774                   23278238.7384
 -59182055.12948 -46096255.71147  20755718.3444                   20755715.9264
  -4940746.46947  -3831278.49045  23592602.6804                   23592605.9574
 11  8 21  0 35  0.0000000  0  9G12G09G17G10G05G04G30G02G25
 -36549856.23848 -28461717.92346  21160769.9774                   21160768.8444
 -38549713.15646 -30019238.77243  24291550.9454                   24291555.5904
 -92711618.73447 -72223336.64744  23645639.3594                   23645640.3364
 -49742209.74648 -38740878.59346  21049950.7344                   21049949.9574
 -29254294.82448 -22776676.06046  21451306.5944                   21451306.9144
 -71084645.50047 -55370112.70045  22343853.5394                   22343854.7664
  -5299881.58647  -4111261.01944  23241403.5004                   23241404.3444
 -59277554.17248 -46170670.53847  20737545.5634                   20737543.0744
  -5137749.10947  -3984786.96544  23555115.2894                   23555117.2344
 11  8 21  0 35 30.0000000  0  9G12G09G17G10G05G04G30G02G25
 -36698197.75448 -28577308.72746  21132541.3204                   21132540.5124
 -38573111.37946 -30037471.44643  24287097.8204                   24287103.3954
 -92758486.44547 -72259856.96444  23636720.5634                   23636721.8524
 -49823243.78548 -38804021.99546  21034530.3284                   21034529.9384
 -29435699.97748 -22918030.65446  21416786.4454                   21416786.6174
 -71109279.81247 -55389308.30245  22339165.4384                   22339166.2624
  -5493051.84047  -4261783.25944  23204644.6954                   23204645.0354
 -59372766.99648 -46244862.34246  20719426.8754                   20719424.4614
  -5334442.02747  -4138054.12245  23517685.5474                   23517687.6454
 11  8 21  0 36  0.0000000  0  9G12G09G17G10G05G04G30G02G25
 -36845985.18748 -28692467.76446  21104418.4224                   21104417.3834
 -38596417.44546 -30055632.23743  24282663.5314                   24282668.7384
 -92805130.09846 -72296202.66244  23627844.8284                   23627845.7234
 -49903611.19948 -38866645.96146  21019236.9534                   21019236.1094
 -29616648.06248 -23059029.08346  21382353.0944                   21382353.0944
 -71133798.41447 -55408413.75345  22334500.1564                   22334500.4304
  -5685815.77047  -4411988.83044  23167963.2894                   23167963.5664
 -59467687.87548 -46318826.65447  20701364.2504                   20701361.2774
  -5530816.00447  -4291072.73844  23480316.6414                   23480318.3674
 11  8 21  0 36 30.0000000  0  9G12G09G17G10G05G04G30G02G25
 -36993218.95348 -28807195.37646  21076400.7274                   21076399.6374
 -38619636.78547 -30073725.47943  24278245.3914                   24278250.9104
 -92851551.57846 -72332375.29744  23619011.1414                   23619012.3094
 -49983314.64548 -38928752.53946  21004069.7504                   21004069.6134
 -29797138.54348 -23199670.93846  21348006.7664                   21348006.4494
 -71158205.14847 -55427432.01045  22329855.7194                   22329855.7704
  -5878172.87547  -4561877.44244  23131358.6174                   23131358.8794
 -59562319.86748 -46392565.85947  20683356.3444                   20683353.5004
  -5726870.55547  -4443842.46944  23443008.4064                   23443010.8754
 11  8 21  0 37  0.0000000  0  9G12G09G17G10G05G04G30G02G25
 -37139893.95748 -28921487.56346  21048489.3204                   21048488.2344
 -38642769.58647 -30091751.21943  24273842.8204                   24273848.8834
 -92897747.33246 -72368371.98444  23610220.2424                   23610221.1024
 -50062352.03148 -38990340.10546  20989029.6174                   20989029.2584
 -29977165.85248 -23339951.87646  21313748.5704                   21313748.7814
 -71182498.48447 -55446361.93145  22325232.8524                   22325233.3554
  -6070117.06247  -4711444.26844  23094832.4144                   23094832.9614
 -59656661.37148 -46466078.71046  20665403.6334                   20665400.8754
  -5922599.81247  -4596358.68844  23405762.3594                   23405765.1294
 11  8 21  0 37 30.0000000  0  9G12G09G17G10G05G04G30G02G25
 -37286006.24248 -29035341.29846  21020685.3594                   21020684.2274
 -38665816.83246 -30109710.34643  24269457.6644                   24269463.0044
 -92943714.53146 -72404190.61544  23601473.4454                   23601473.8014
 -50140722.52748 -39051407.99146  20974115.8834                   20974115.7624
 -30156725.17648 -23479868.15246  21279579.2894                   21279579.7934
 -71206678.08247 -55465203.21945  22320631.7814                   22320632.3094
  -6261643.56247  -4860685.63244  23058386.2424                   23058387.1994
 -59750711.43748 -46539364.47247  20647506.6644                   20647503.8554
  -6117998.93447  -4748617.67844  23368579.4694                   23368582.2664
 11  8 21  0 38  0.0000000  0  9G12G09G17G10G05G04G30G02G25
 -37431549.82448 -29148751.87546  20992989.1804                   20992988.4574
 -38688777.37147 -30127601.81443  24265087.9384                   24265093.4414
 -92989448.72746 -72439827.70244  23592770.7274                   23592770.5704
 -50218422.42248 -39111953.34146  20959330.3754                   20959329.9614
 -30335809.60548 -23619414.38946  21245500.9064                   21245501.1414
 -71230740.71547 -55483953.35145  22316053.1484                   22316053.8054
  -6452745.18747  -5009595.90544  23022020.4924                   23022021.5044
 -59844466.93448 -46612420.70447  20629665.4384                   20629662.9804
  -6313060.87147  -4900613.90344  23331459.6724                   23331462.8244
 11  8 21  0 38 30.0000000  0  9G12G09G17G10G05G04G30G02G25
 -37576526.35548 -29261720.58846  20965400.9844                   20965400.2034
 -38711658.23446 -30145431.29943  24260734.1644                   24260739.4414
 -93034953.19946 -72475285.74544  23584111.1094                   23584111.4654
 -50295456.37948 -39171979.77946  20944670.9694                   20944670.6374
 -30514420.59448 -23758591.70246  21211512.3204                   21211512.5474
 -71254691.90247 -55502616.64345  22311494.5634                   22311495.7544
  -6643422.98447  -5158175.94844  22985736.0784                   22985737.2034
 -59937932.64148 -46685251.12246  20611879.6174                   20611876.8554
  -6507786.65247  -5052348.19845  23294404.8674                   23294407.7624
 11  8 21  0 39  0.0000000  0  9G12G09G17G10G05G04G30G02G25
 -37720934.14548 -29374246.12046  20937921.3284                   20937920.1054
 -38734462.01246 -30163200.64543  24256395.1174                   24256400.7234
 -93080227.54746 -72510564.49944  23575495.9224                   23575496.8094
 -50371825.41047 -39231488.10646  20930138.7584                   20930138.4184
 -30692555.54348 -23897398.07446  21177614.2034                   21177614.1564
 -71278533.20347 -55521194.30145  22306958.2664                   22306958.4924
  -6833674.06247  -5306423.45544  22949532.3594                   22949533.0044
 -60031109.57848 -46757856.52047  20594148.6564                   20594146.0704
  -6702173.52747  -5203818.39644  23257414.6024                   23257417.2154
 11  8 21  0 39 30.0000000  0  9G12G09G17G10G05G04G30G02G25
 -37864774.19148 -29486329.25946  20910549.2344                   20910547.9064
 -38757195.13746 -30180915.05444  24252069.5944                   24252074.5744
 -93125274.02746 -72545665.66344  23566923.4384                   23566925.0904
 -50447533.12548 -39290481.11246  20915731.8594                   20915731.7114
 -30870214.32848 -24035833.42246  21143806.8204                   21143806.9024
 -71302268.82047 -55539689.61445  22302441.6174                   22302441.8404
  -7023498.40647  -5454338.47744  22913409.7114                   22913410.8954
 -60124001.97348 -46830240.19246  20576471.8984                   20576469.4064
  -6896221.53947  -5355024.56545  23220488.3914                   23220490.8874
 11  8 21  0 40  0.0000000  0  9G12G09G17G10G05G04G30G02G25
 -38008040.24248 -29597965.13246  20883286.6094                   20883285.3754
 -38779855.93046 -30198572.95144  24247757.1094                   24247762.6054
 -93170087.16846 -72580585.01644  23558395.9454                   23558397.2344
 -50522575.61347 -39348955.75446  20901451.6094                   20901451.2344
 -31047390.11348 -24173892.39146  21110091.3594                   21110091.3594
 -71325895.48447 -55558100.03945  22297945.8364                   22297946.1094
  -7212888.40647  -5601915.01844  22877370.1954                   22877370.9414
 -60216606.12148 -46902399.25546  20558849.6094                   20558846.7464
  -7089923.09047  -5505960.76345  23183627.9844                   23183630.5474
 11  8 21  0 40 30.0000000  0  9G12G09G17G10G05G04G30G02G25
 -38150732.60248 -29709153.96246  20856133.1024                   20856132.1994
 -38802449.79746 -30216178.76144  24243457.4844                   24243463.9344
 -93214669.02046 -72615324.14944  23549912.6094                   23549913.5204
 -50596956.67647 -39406914.98746  20887297.3984                   20887297.1484
 -31224082.76648 -24311574.90246  21076467.7504                   21076467.8244
 -71349416.87947 -55576428.40345  22293469.7344                   22293469.8834
  -7401843.69947  -5749152.85744  22841413.2974                   22841414.5514
 -60308925.43748 -46974336.37846  20541281.9774                   20541279.3674
  -7283277.92247  -5656626.80345  23146833.5164                   23146836.5984
 11  8 21  0 41  0.0000000  0  9G12G09G17G10G05G04G30G02G25
 -36717426.81248 -28592292.28946  21128882.0314                   21128881.5004
 -37249561.23446 -29006135.88244  24538963.3594                   24538969.1684
 -91683599.77346 -71422283.21044  23841265.0784                   23841266.6024
 -49095256.95747 -38236759.33946  21173061.1024                   21173061.0314
 -29824865.96148 -23221276.01546  21342729.8364                   21342729.7814
 -69797415.76247 -54367076.87745  22588805.9144                   22588806.0824
  -6014937.23447  -4668446.45944  23105332.8914                   23105333.5824
 -58825539.87548 -45818451.51046  20823561.1954                   20823557.8914
  -5900858.83647  -4579417.06145  23409899.0474                   23409902.3164
 11  8 21  0 41 30.0000000  0  9G12G09G17G10G05G04G30G02G25
 -36858971.97748 -28702587.19846  21101947.1884                   21101946.0274
 -37272035.39146 -29023648.42544  24534686.5084                   24534692.1914
 -91727723.19546 -71456665.09244  23832868.7734                   23832870.1214
 -49168323.66848 -38293694.41146  21159157.1334                   21159156.9064
 -30000590.07048 -23358203.81546  21309290.4534                   21309290.3444
 -69820736.46947 -54385248.86845  22584367.6804                   22584368.9454
  -6203019.93047  -4815004.34644  23069541.3834                   23069542.3204
 -58917298.19148 -45889951.48447  20806099.7424                   20806096.9104
  -6093517.10247  -4729540.33645  23373237.6254                   23373240.4264
 11  8 21  0 42  0.0000000  0  9G12G09G17G10G05G04G30G02G25
 -36999939.04348 -28812431.63646  21075121.9924                   21075120.6524
 -37294452.59046 -29041116.53844  24530420.6254                   24530426.6884
 -91771614.99646 -71490866.51844  23824517.1334                   23824516.9224
 -49240733.08248 -38350117.32146  21145378.0864                   21145377.7704
 -30175824.59448 -23494750.13046  21275944.6804                   21275944.4414
 -69843957.28547 -54403343.02445  22579948.9454                   22579949.1884
  -6390660.63347  -4961217.81544  23033835.0784                   23033835.3204
 -59008776.07448 -45961232.92646  20788692.1724                   20788689.3484
  -6285821.43447  -4879387.80645  23336643.1024                   23336645.9804
 11  8 21  0 42 30.0000000  0  9G12G09G17G10G05G04G30G02G25
 -37140322.99248 -28921821.71246  21048407.6954                   21048406.6914
 -37316812.22346 -29058539.74143  24526165.5004                   24526172.1604
 -91815271.09846 -71524884.26944  23816209.4614                   23816210.2194
 -49312482.41448 -38406025.86346  21131724.6484                   21131724.4924
 -30350563.07848 -23630909.92646  21242692.9924                   21242693.0744
 -69867076.03547 -54421357.66945  22575550.1884                   22575550.1294
  -6577852.77347  -5107081.77944  22998213.2974                   22998213.6174
 -59099971.13348 -46032293.99646  20771338.1484                   20771335.6684
  -6477765.27347  -5028954.36645  23300117.4614                   23300120.4804
 11  8 21  0 43  0.0000000  0  9G12G09G17G10G05G04G30G02G25
 -37280122.53548 -29030756.39346  21021804.6804                   21021803.7274
 -37339117.93446 -29075920.98843  24521920.9144                   24521927.3014
 -91858691.34846 -71558718.21744  23807946.4224                   23807947.1254
 -49383572.95348 -38461421.05946  21118196.5084                   21118196.4264
 -30524803.60248 -23766681.68746  21209535.8754                   21209536.3094
 -69890094.44547 -54439294.12245  22571169.2814                   22571169.8834
  -6764593.88747  -5252594.25944  22962677.5234                   22962677.4304
 -59190884.49248 -46103135.55446  20754037.9924                   20754035.0354
  -6669346.18747  -5178238.13345  23263660.7974                   23263663.6454
 11  8 21  0 43 30.0000000  0  9G12G09G17G10G05G04G30G02G25
 -37419337.89548 -29139235.87346  20995312.9304                   20995311.8244
 -37361374.52046 -29093263.92943  24517686.6724                   24517691.6524
 -91901877.46146 -71592369.80844  23799728.6804                   23799729.9534
 -49454008.37148 -38516305.76646  21104793.0314                   21104792.6844
 -30698545.88348 -23902065.21346  21176473.8914                   21176473.6214
 -69913016.17647 -54457155.21945  22566807.3444                   22566808.3444
  -6950883.40247  -5397754.86544  22927227.6254                   22927227.9924
 -59281519.62548 -46173760.32246  20736790.9064                   20736788.0004
  -6860563.54747  -5327238.64145  23227273.0164                   23227275.4804
 11  8 21  0 44  0.0000000  0  9G12G09G17G10G05G04G30G02G25
 -37557965.97348 -29247257.72646  20968932.8284                   20968931.5664
 -37383583.71146 -29110569.96743  24513459.8204                   24513465.8444
 -91944827.65646 -71625837.45744  23791555.6174                   23791556.1374
 -49523788.39848 -38570679.79746  21091514.4844                   21091514.2114
 -30871786.06648 -24037057.49746  21143507.3204                   21143507.5944
 -69935840.80547 -54474940.66045  22562464.0394                   22562464.5984
  -7136716.97347  -5542560.17644  22891864.4144                   22891864.8324
 -59371875.91848 -46244167.79946  20719596.6724                   20719593.9614
  -7051413.19947  -5475952.62245  23190955.3834                   23190958.6214
 11  8 21  0 44 30.0000000  0  9G12G09G17G10G05G04G30G02G25
 -37696006.75048 -29354821.94346  20942664.4614                   20942663.4574
 -37405750.18046 -29127842.65243  24509241.9534                   24509248.0744
 -91987543.05546 -71659122.21544  23783426.8134                   23783427.5474
 -49592916.23848 -38624545.61746  21078359.7274                   21078359.5234
 -31044523.39848 -24171657.95146  21110636.2034                   21110636.7384
 -69958571.35547 -54492652.77045  22558139.0394                   22558139.0554
  -7322093.67647  -5687009.49145  22856588.8284                   22856589.3984
 -59461956.42248 -46314360.36646  20702454.6414                   20702452.0944
  -7241894.03147  -5624379.19345  23154708.4924                   23154711.1524
 11  8 21  0 45  0.0000000  0  9G12G09G17G10G05G04G30G02G25
 -37833458.78148 -29461927.39846  20916508.1564                   20916506.9734
 -37427877.07446 -29145084.53743  24505031.3444                   24505038.4344
 -92030023.37946 -71692223.76844  23775343.0004                   23775344.2424
 -49661392.99648 -38677904.12446  21065329.5314                   21065328.7934
 -31216755.86348 -24305865.00846  21077861.5784                   21077861.5004
 -69981209.66047 -54510293.03245  22553830.6564                   22553831.3554
  -7507010.85247  -5831100.72744  22821399.8984                   22821400.4224
 -59551762.35248 -46384338.98346  20685365.1094                   20685362.1844
  -7432003.47747  -5772516.38545  23118531.6094                   23118534.4104
 11  8 21  0 45 30.0000000  0  9G12G09G17G10G05G04G30G02G25
 -37970326.50048 -29568577.53446  20890463.0164                   20890462.1954
 -37449973.28946 -29162302.56043  24500826.6334                   24500833.0944
 -92072274.23446 -71725146.48044  23767302.3674                   23767303.9694
 -49729225.76248 -38730760.79646  21052420.7504                   21052420.3134
 -31388486.62148 -24439681.11046  21045182.2814                   21045182.3954
 -70003762.79747 -54527866.91644  22549539.0084                   22549539.2814
  -7691471.63347  -5974836.35044  22786298.3284                   22786298.7934
 -59641300.71148 -46454109.10746  20668326.7424                   20668323.7344
  -7621744.65247  -5920366.59045  23082425.3524                   23082427.7424
 11  8 21  0 46  0.0000000  0  9G12G09G17G10G05G04G30G02G25
 -38106604.98848 -29674768.53346  20864530.0634                   20864528.7464
 -37472038.52346 -29179496.44843  24496628.0164                   24496634.1254
 -92114292.03146 -71757887.63244  23759306.7584                   23759308.5904
 -49796412.22748 -38783113.87446  21039635.7894                   21039635.5164
 -31559710.14148 -24573101.99846  21012599.3524                   21012599.3204
 -70026228.71147 -54545372.84245  22545264.2584                   22545264.3874
  -7875470.02747  -6118211.63744  22751284.4844                   22751284.5704
 -59730569.33248 -46523669.04046  20651339.3134                   20651336.5084
  -7811111.55147  -6067925.18345  23046389.5864                   23046392.4694
 11  8 21  0 46 30.0000000  0  9G12G09G17G10G05G04G30G02G25
 -38242292.84048 -29780499.29046  20838709.3054                   20838708.2304
 -37494075.83246 -29196668.52143  24492434.6884                   24492441.5944
 -92156076.29346 -71790446.77744  23751356.1334                   23751356.6254
 -49862954.08248 -38834964.66546  21026973.5004                   21026972.9614
 -31730424.57048 -24706126.15846  20980113.8834                   20980113.8714
 -70048609.04347 -54562812.09744  22541005.3674                   22541005.8324
  -8059003.43447  -6261224.64744  22716358.9924                   22716359.2624
 -59819569.28948 -46593019.61646  20634403.1334                   20634400.1054
  -8000101.53547  -6215190.06245  23010426.2974                   23010428.5204
 11  8 21  0 47  0.0000000  0  9G12G09G17G10G05G04G30G02G25
 -38377389.18047 -29885769.14046  20813001.4694                   20813000.4454
 -37516088.93746 -29213821.74543  24488245.4534                   24488252.9924
 -92197627.10247 -71822824.02344  23743449.5944                   23743450.2304
 -49928853.50048 -38886314.87046  21014433.0474                   21014432.6764
 -31900627.75048 -24838751.95246  20947725.0554                   20947724.9144
 -70070905.48847 -54580185.98845  22536762.4844                   22536763.2304
  -8242069.70747  -6403873.62844  22681522.5234                   22681522.8754
 -59908302.18048 -46662162.08846  20617517.7894                   20617514.9534
  -8188712.39547  -6362159.51645  22974534.3444                   22974536.9414
 11  8 21  0 47 30.0000000  0  9G12G09G17G10G05G04G30G02G25
 -38511891.91048 -29990576.42946  20787406.1884                   20787405.2854
 -37538080.69046 -29230958.21743  24484060.4304                   24484067.8444
 -92238944.21147 -71855019.18844  23735586.8754                   23735587.7814
 -49994111.79748 -38937165.51346  21002014.6884                   21002014.3954
 -32070317.39148 -24970977.58346  20915434.0164                   20915434.0084
 -70093119.31647 -54597495.46345  22532535.5314                   22532535.8834
  -8424666.17247  -6546156.53844  22646775.5864                   22646776.1094
 -59996769.24648 -46731097.43746  20600683.1414                   20600680.0634
  -8376941.48047  -6508831.47245  22938715.5634                   22938718.6804
 11  8 21  0 48  0.0000000  0  9G12G09G17G10G05G04G30G02G25
 -38645798.83648 -30094919.44846  20761924.9224                   20761923.7194
 -37560052.05946 -29248079.03543  24479880.0864                   24479886.6134
 -92280025.44947 -71887030.50544  23727769.2894                   23727770.6524
 -50058728.46548 -38987516.15646  20989718.9454                   20989718.4024
 -32239489.15648 -25102799.67446  20883241.8594                   20883241.6334
 -70115250.22347 -54614740.32145  22528323.8284                   22528324.6374
  -8606788.41447  -6688069.95444  22612119.1884                   22612119.6174
 -60084970.05948 -46799825.31246  20583899.2504                   20583896.1214
  -8564784.36347  -6655202.52945  22902970.3754                   22902972.8984
 11  8 21  0 48 30.0000000  0  9G12G09G17G10G05G04G30G02G25
 -37203681.77348 -28971191.85046  21036350.4774                   21036349.3014
 -36006583.93746 -28037584.61943  24775495.5164                   24775502.1954
 -90745447.66047 -70691255.59844  24019789.9144                   24019791.2154
 -48547280.91448 -37809764.81646  21277337.4924                   21277336.9414
 -30832714.06248 -24006611.23446  21150942.2114                   21150941.8914
 -68561877.02747 -53404319.64244  22823921.1484                   22823921.7934
  -7213005.97747  -5602005.67044  22877347.2894                   22877347.7114
 -58597480.96948 -45640742.86646  20866958.6954                   20866955.6804
  -7176810.34047  -5573664.27345  23167092.9924                   23167095.7704
 11  8 21  0 49  0.0000000  0  9G12G09G17G10G05G04G30G02G25
 -37336385.19948 -29074597.07446  21011097.8594                   21011096.7234
 -36028517.67246 -28054676.02243  24771321.8204                   24771328.1684
 -90786050.05147 -70722893.79044  24012063.4384                   24012064.1374
 -48610611.74248 -37859113.50446  21265286.0314                   21265285.6724
 -31000837.98448 -24137616.82146  21118948.9694                   21118948.6644
 -68583839.44947 -53421433.20144  22819741.4384                   22819742.5314
  -7394165.38747  -5743168.80544  22842873.7584                   22842874.0004
 -58685145.95348 -45709053.21246  20850276.5474                   20850273.7424
  -7363866.25047  -5719422.08545  23131497.8754                   23131499.8404
 11  8 21  0 49 30.0000000  0  9G12G09G17G10G05G04G30G02G25
 -37468483.19548 -29177530.55046  20985960.5004                   20985959.6094
 -36050435.10246 -28071754.66343  24767151.9384                   24767157.3874
 -90826410.54346 -70754343.50844  24004382.7894                   24004383.6684
 -48673300.58648 -37907961.96446  21253356.7504                   21253356.3484
 -31168433.08248 -24268210.33946  21087056.7344                   21087056.5744
 -68605717.92247 -53438481.38744  22815577.9064                   22815579.0314
  -7574837.75447  -5883952.44744  22808492.7194                   22808493.6414
 -58772543.24648 -45777154.96946  20833645.3594                   20833642.5124
  -7550522.89547  -5864868.81245  23095977.9304                   23095980.2154
 11  8 21  0 50  0.0000000  0  9G12G09G17G10G05G04G30G02G25
 -37599976.13748 -29279992.54246  20960937.8984                   20960937.0164
 -36072341.07046 -28088824.47043  24762982.5314                   24762989.7464
 -90866531.01246 -70785606.20444  23996748.3444                   23996749.5704
 -48735350.72348 -37956312.73346  21241548.8914                   21241548.7114
 -31335498.52048 -24398391.14846  21055265.0164                   21055264.9534
 -68627515.56346 -53455466.61944  22811430.5084                   22811430.9774
  -7755022.13747  -6024355.83745  22774204.6884                   22774205.4304
 -58859675.14548 -45845049.92846  20817064.8834                   20817062.1994
  -7736779.41847  -6010003.71945  23060534.3364                   23060536.6844
 11  8 21  0 50 30.0000000  0  9G12G09G17G10G05G04G30G02G25
 -37730860.87148 -29381980.62446  20936031.7114                   20936030.7704
 -36094236.81246 -28105886.28043  24758816.1884                   24758822.7894
 -90906409.31246 -70816680.21543  23989159.8284                   23989160.4884
 -48796761.92648 -38004165.60646  21229863.0864                   21229862.4264
 -31502030.53148 -24528156.28746  21023575.0864                   21023575.0904
 -68649231.46547 -53472388.06244  22807297.9144                   22807298.7074
  -7934714.45347  -6164375.79345  22740010.3984                   22740010.4494
 -58946541.52048 -45912737.98546  20800534.5164                   20800531.9964
  -7922631.53947  -6154823.52145  23025168.0084                   23025170.3634
 11  8 21  0 51  0.0000000  0  9G12G09G17G10G05G04G30G02G25
 -37861137.56248 -29483494.88546  20911240.7584                   20911239.7774
 -36116126.84446 -28122943.64243  24754650.7344                   24754657.3364
 -90946046.44146 -70847566.29443  23981616.7504                   23981617.8954
 -48857537.18048 -38051522.93046  21218297.4924                   21218297.3524
 -31668028.67648 -24657505.43446  20991986.4924                   20991986.4064
 -68670869.01647 -53489248.52445  22803180.5864                   22803181.2424
  -8113913.36747  -6304011.27444  22705910.1174                   22705910.2584
 -59033145.02048 -45980221.21346  20784054.2734                   20784051.7584
  -8108077.97747  -6299327.19545  22989878.3674                   22989881.0904
 11  8 21  0 51 30.0000000  0  9G12G09G17G10G05G04G30G02G25
 -37990804.70348 -29584534.18246  20886566.0394                   20886564.9024
 -36138013.59046 -28139998.41543  24750486.0634                   24750493.5354
 -90985442.15246 -70878264.27043  23974120.3204                   23974121.6454
 -48917677.78948 -38098385.71546  21206853.4924                   21206852.8094
 -31833490.30148 -24786436.50846  20960500.6884                   20960499.7544
 -68692428.89547 -53506048.46245  22799077.8754                   22799078.4104
  -8292616.05547  -6443260.10444  22671904.0864                   22671903.7894
 -59119486.25448 -46047500.07346  20767624.1254                   20767621.5824
  -8293115.74647  -6443512.43445  22954667.3204                   22954669.7274
 11  8 21  0 52  0.0000000  0  9G12G09G17G10G05G04G30G02G25
 -38119864.53148 -29685100.25546  20862006.5944                   20862005.5904
 -36159904.11346 -28157056.27643  24746320.4304                   24746328.1764
 -91024599.91846 -70908776.86643  23966668.5944                   23966669.3444
 -48977189.16848 -38144758.18146  21195528.3134                   21195528.2934
 -31998417.25848 -24914950.94646  20929115.9144                   20929115.6134
 -68713916.35247 -53522791.90044  22794989.1334                   22794989.4414
  -8470823.93747  -6582123.35645  22637992.1644                   22637992.5944
 -59205570.28148 -46114578.53446  20751242.9774                   20751240.1804
  -8477746.24647  -6587380.30445  22919533.1414                   22919535.7544
 11  8 21  0 52 30.0000000  0  9G12G09G17G10G05G04G30G02G25
 -38248315.30548 -29785191.73046  20837563.5164                   20837562.5354
 -36181800.00046 -28174118.22043  24742154.5474                   24742160.5084
 -91063518.07046 -70939102.73043  23959262.2664                   23959263.9454
 -49036071.80948 -38190640.74045  21184323.3284                   21184323.2384
 -32162805.86748 -25043045.90746  20897833.5944                   20897833.3794
 -68735331.41047 -53539478.99144  22790914.0004                   22790914.3554
  -8648533.11347  -6720598.01044  22604174.8984                   22604175.1374
 -59291396.99648 -46181456.49046  20734910.5944                   20734908.0204
  -8661965.46548  -6730927.71245  22884477.2664                   22884479.6764
 11  8 21  0 53  0.0000000  0  9G12G09G17G10G05G04G30G02G25
 -38376155.62548 -29884807.53246  20813235.8524                   20813234.9614
 -36203704.09047 -28191186.59443  24737986.3284                   24737991.8094
 -91102196.65246 -70969241.86344  23951902.7664                   23951904.4614
 -49094327.28548 -38236034.59246  21173237.9454                   21173237.1684
 -32326654.75048 -25170720.30346  20866653.8914                   20866653.9264
 -68756675.17647 -53556110.52944  22786852.1414                   22786852.7464
  -8825741.30947  -6858682.28645  22570453.5704                   22570454.0864
 -59376967.89848 -46248135.12146  20718627.1644                   20718624.2734
  -8845771.07447  -6874152.81545  22849500.1644                   22849502.5124
 11  8 21  0 53 30.0000000  0  9G12G09G17G10G05G04G30G02G25
 -38503382.84448 -29983945.61246  20789025.5234                   20789024.2934
 -36225618.37946 -28208262.93143  24733815.5634                   24733822.9884
 -91140634.21146 -70999193.23744  23944588.3444                   23944589.1524
 -49151956.37548 -38280940.35146  21162271.5314                   21162270.6054
 -32489960.66448 -25297971.60246  20835577.8364                   20835577.4574
 -68777947.97347 -53572686.78444  22782803.9774                   22782804.3984
  -9002444.83247  -6996373.29845  22536827.9224                   22536828.3444
 -59462282.89848 -46314614.34346  20702392.1094                   20702389.3954
  -9029159.23048  -7017052.63345  22814602.4384                   22814604.5944
 11  8 21  0 54  0.0000000  0  9G12G09G17G10G05G04G30G02G25
 -38629997.25048 -30082606.16346  20764931.5704                   20764930.3014
 -36247546.68046 -28225350.02043  24729643.1094                   24729649.5474
 -91178831.61746 -71028957.43044  23937319.5634                   23937319.6334
 -49208961.96547 -38325360.25546  21151423.5234                   21151423.5984
 -32652722.44548 -25424798.90546  20804605.4064                   20804605.4064
 -68799152.05947 -53589209.48144  22778769.0004                   22778769.6804
  -9178642.15247  -7133669.88345  22503298.9534                   22503299.2934
 -59547344.07848 -46380895.79446  20686205.8054                   20686202.6454
  -9212128.31247  -7159625.91045  22779784.6094                   22779786.8674
 11  8 21  0 54 30.0000000  0  9G12G09G17G10G05G04G30G02G25
 -38755997.50448 -30180788.14746  20740954.6804                   20740953.2734
 -36269491.64146 -28242450.26343  24725467.5944                   24725474.7424
 -91216788.28946 -71058534.06544  23930096.6254                   23930097.5044
 -49265345.40647 -38369295.35646  21140694.3984                   21140694.0234
 -32814937.87948 -25551200.47546  20773736.8674                   20773736.8094
 -68820288.43047 -53605679.42344  22774747.2034                   22774747.2734
  -9354330.65247  -7270569.98845  22469866.5234                   22469867.1844
 -59632152.35248 -46446980.17546  20670067.2114                   20670064.3204
  -9394675.55147  -7301870.47045  22745047.2274                   22745049.3874
 11  8 21  0 55  0.0000000  0  9G12G09G17G10G05G04G30G02G25
 -38881382.34048 -30278490.60446  20717094.5084                   20717093.2544
 -36291456.42646 -28259565.84543  24721287.9844                   24721295.5274
 -91254504.16446 -71087923.05944  23922919.6024                   23922920.8984
 -49321108.72347 -38412747.27546  21130083.2974                   21130082.7464
 -32976605.18748 -25677174.94246  20742972.4144                   20742972.3754
 -68841358.14547 -53622097.39744  22770737.5864                   22770738.1294
  -9529507.82047  -7407071.65645  22436530.9844                   22436531.4454
 -59716708.57448 -46512868.16546  20653976.6804                   20653974.0164
  -9576798.42247  -7443784.34345  22710390.2664                   22710392.0634
 11  8 21  0 55 30.0000000  0  9G12G09G17G10G05G04G30G02G25
 -39006153.73448 -30375715.06046  20693351.4384                   20693349.9574
 -36313447.17646 -28276701.67343  24717103.6644                   24717111.4064
 -91291982.36346 -71117126.84343  23915787.6644                   23915788.5634
 -49376256.91447 -38455719.87646  21119588.7664                   21119587.9924
 -33137725.56648 -25802723.22946  20712312.1254                   20712312.1484
 -68862365.90247 -53638467.13944  22766739.8674                   22766740.5984
  -9704174.53947  -7543175.54645  22403293.2584                   22403293.3594
 -59801017.55948 -46578563.48546  20637933.0234                   20637930.5084
  -9758497.61747  -7585368.08445  22675813.8754                   22675816.2034
 11  8 21  0 56  0.0000000  0  8G12G17G10G05G04G30G02G25
 -37554887.43448 -29244858.18846  20969518.1884                   20969517.1414
 -89753802.02047 -69918544.71344  24208493.9454                   24208494.6024
 -47855370.57848 -37270613.61546  21409003.3134                   21409002.9454
 -31722872.22748 -24700240.04646  20981549.8204                   20981549.5394
 -67307892.64847 -52427189.34744  23062546.4454                   23062547.2194
  -8302903.29747  -6451275.84945  22669946.3284                   22669946.5984
 -58309658.33648 -45416465.38846  20921729.5944                   20921726.8324
  -8364345.27047  -6499015.56445  22941112.2034                   22941114.4144
 11  8 21  0 56 30.0000000  0  8G12G17G10G05G04G30G02G25
 -37678428.27048 -29341123.77346  20946009.0234                   20946007.9694
 -89790802.80146 -69947376.45144  24201452.7034                   24201454.1484
 -47909292.64848 -37312630.80546  21398742.4454                   21398741.6954
 -31882891.77748 -24824930.55246  20951098.8444                   20951098.7814
 -67328778.53147 -52443464.09044  23058572.1804                   23058572.6254
  -8476540.62947  -6586577.63445  22636904.1334                   22636904.4844
 -58393474.92248 -45481777.02446  20905779.9454                   20905777.1454
  -8545188.22747  -6639932.11245  22906699.0004                   22906701.0394
 11  8 21  0 57  0.0000000  0  8G12G17G10G05G04G30G02G25
 -37801341.98448 -29436900.69246  20922619.0634                   20922618.2664
 -89827554.62146 -69976014.22944  24194458.5004                   24194459.9064
 -47962594.47348 -37354164.69846  21388599.2584                   21388599.1254
 -32042348.07848 -24949182.14446  20920755.6884                   20920754.9144
 -67349595.17647 -52459684.90844  23054610.8134                   23054611.1294
  -8649649.49247  -6721467.61645  22603962.2424                   22603962.8834
 -58477036.85248 -45546890.21146  20889878.6644                   20889875.8284
  -8725589.14147  -6780504.20345  22872370.0554                   22872371.7504
 11  8 21  0 57 30.0000000  0  8G12G17G10G05G04G30G02G25
 -37923622.56248 -29532184.26046  20899350.1954                   20899349.2154
 -89864052.56246 -70004454.18144  24187513.9694                   24187514.7854
 -48015273.08647 -37395212.97046  21378574.9144                   21378574.5354
 -32201234.28148 -25072989.52847  20890520.4454                   20890519.8794
 -67370339.02747 -52475848.99844  23050664.0084                   23050663.6884
  -8822222.70747  -6855940.20945  22571122.9304                   22571123.3244
 -58560340.35948 -45611802.02446  20874026.1804                   20874023.1484
  -8905540.63747  -6920726.10445  22838126.3364                   22838128.4844
 11  8 21  0 58  0.0000000  0  8G12G17G10G05G04G30G02G25
 -38045269.02748 -29626973.71746  20876201.8054                   20876200.4654
 -89900296.27046 -70032696.03043  24180616.7194                   24180617.9924
 -48067330.09047 -37435776.87046  21368668.9064                   21368668.9264
 -32359548.13348 -25196350.91146  20860394.3984                   20860393.8954
 -67391010.83647 -52491956.91744  23046730.1024                   23046730.7704
  -8994257.63347  -6989993.33945  22538385.3674                   22538385.5744
 -58643386.35548 -45676513.17046  20858223.1884                   20858220.5204
  -9085039.98047  -7060595.67345  22803968.3754                   22803970.5314
 11  8 21  0 58 30.0000000  0  8G12G17G10G05G04G30G02G25
 -38166283.19148 -29721270.46846  20853173.4774                   20853172.4064
 -89936287.74646 -70060741.32343  24173767.3914                   24173768.2774
 -48118769.94147 -37475859.89046  21358880.1724                   21358879.4774
 -32517290.66048 -25319267.10846  20830376.9924                   20830376.3754
 -67411614.30147 -52508011.61644  23042808.3834                   23042809.9884
  -9165754.39147  -7123627.14645  22505750.7344                   22505751.6644
 -58726178.53548 -45741026.53846  20842468.1484                   20842465.5314
  -9264087.09447  -7200112.85945  22769897.0084                   22769899.2584
 11  8 21  0 59  0.0000000  0  8G12G17G10G05G04G30G02G25
 -38286671.05548 -29815079.18446  20830264.3754                   20830263.1954
 -89972034.08646 -70088595.59143  24166965.5634                   24166965.9964
 -48169601.53947 -37515468.94446  21349207.3444                   21349207.0434
 -32674466.89148 -25441742.03647  20800467.3054                   20800466.5394
 -67432157.56247 -52524019.38644  23038899.5554                   23038899.9414
  -9336717.56247  -7256845.14245  22473217.5314                   22473218.0984
 -58808725.05148 -45805348.46946  20826760.3134                   20826757.8674
  -9442686.39847  -7339281.09045  22735910.6644                   22735913.0514
 11  8 21  0 59 30.0000000  0  8G12G17G10G05G04G30G02G25
 -38406434.87948 -29908401.65646  20807474.1174                   20807472.9144
 -90007538.35546 -70116261.24143  24160209.2814                   24160210.0434
 -48219830.15247 -37554608.13246  21339649.1024                   21339648.8914
 -32831078.48048 -25563776.98946  20770664.8674                   20770664.5234
 -67452645.05147 -52539983.72845  23035001.1334                   23035002.1644
  -9507148.25047  -7389648.19445  22440785.2504                   22440785.6884
 -58891030.08248 -45869482.22246  20811097.7504                   20811095.2814
  -9620838.79747  -7478101.09345  22702009.2664                   22702011.1644
 11  8 21  1  0  0.0000000  0  8G12G17G10G05G04G30G02G25
 -38525567.26648 -30001232.09246  20784803.9224                   20784803.1524
 -90042793.98046 -70143733.11444  24153500.2504                   24153501.2934
 -48269451.46548 -37593274.10446  21330206.5004                   21330206.3594
 -32987116.94148 -25685365.34546  20740971.7274                   20740971.3014
 -67473071.56647 -52555900.52144  23031113.9304                   23031115.5314
  -9677037.64847  -7522029.50445  22408456.5704                   22408456.8324
 -58973088.48048 -45933423.79546  20795482.6334                   20795479.8984
  -9798535.30147  -7616565.84945  22668194.8284                   22668196.6684
 11  8 21  1  0 30.0000000  0  8G12G17G10G05G04G30G02G25
 -38644073.57848 -30093574.66346  20762252.7584                   20762251.7154
 -90077807.19946 -70171016.10444  24146838.0004                   24146838.4024
 -48318473.55948 -37631473.14146  21320878.1884                   21320877.5984
 -33142586.74648 -25806510.58346  20711386.7974                   20711386.2894
 -67493444.04347 -52571775.22044  23027238.1564                   23027238.6334
  -9846389.55547  -7653991.93545  22376229.9614                   22376230.6454
 -59054907.62548 -45997178.92346  20779912.9064                   20779910.1334
  -9975779.60547  -7754678.21645  22634466.1334                   22634469.1564
 11  8 21  1  1  0.0000000  0  8G12G17G10G05G04G30G02G25
 -38761949.42248 -30185425.96646  20739821.9144                   20739820.5554
 -90112574.16046 -70198107.16344  24140221.2034                   24140222.0124
 -48366894.57448 -37669203.78646  21311663.7734                   21311662.7854
 -33297482.40248 -25927208.45146  20681911.0084                   20681910.6294
 -67513760.03147 -52587605.89444  23023371.5004                   23023372.2304
 -10015198.06647  -7785530.97145  22344107.5634                   22344107.0434
 -59136484.80148 -46060745.52246  20764389.3914                   20764386.7194
 -10152565.56247  -7892433.43445  22600824.9224                   22600827.1844
 11  8 21  1  1 30.0000000  0  8G12G17G10G05G04G30G02G25
 -38879195.18748 -30276786.29847  20717510.8204                   20717509.5164
 -90147096.24246 -70225007.45743  24133652.1804                   24133652.8014
 -48414718.10548 -37706468.84446  21302563.3754                   21302562.8954
 -33451803.79748 -26047458.82946  20652544.7274                   20652544.2704
 -67534022.01647 -52603394.42644  23019516.1804                   23019516.9694
 -10183462.27347  -7916645.87945  22312087.4924                   22312087.5474
 -59217822.42248 -46124125.44646  20748911.3594                   20748908.5434
 -10328891.99247  -8029830.57345  22567270.9694                   22567273.1484
 11  8 21  1  2  0.0000000  0  8G12G17G10G05G04G30G02G25
 -38995808.82048 -30367654.05346  20695319.9144                   20695318.8634
 -90181371.37546 -70251715.26644  24127129.8754                   24127131.1414
 -48461944.73048 -37743268.79546  21293575.8054                   21293575.9694
 -33605547.66048 -26167259.18146  20623288.0704                   20623287.7704
 -67554229.59447 -52619140.61944  23015670.5004                   23015671.3054
 -10351178.27747  -8047333.59445  22280172.2114                   22280172.3714
 -59298920.08648 -46187318.40746  20733479.4614                   20733476.1454
 -10504754.91447  -8166866.53145  22533805.2194                   22533807.5474
 11  8 21  1  2 30.0000000  0  8G12G17G10G05G04G30G02G25
 -39111791.89148 -30458030.46846  20673248.9534                   20673248.0394
 -90215402.61746 -70278233.06543  24120653.5084                   24120655.1134
 -48508579.09048 -37779607.23346  21284702.2894                   21284701.6954
 -33758714.85248 -26286610.19347  20594141.2114                   20594140.7194
 -67574386.43747 -52634847.24544  23011834.9694                   23011835.3204
 -10518346.61347  -8177594.57345  22248361.0634                   22248360.7584
 -59379781.77748 -46250327.47246  20718091.5084                   20718088.8444
 -10680154.61747  -8303541.54245  22500427.8524                   22500430.0234
 11  8 21  1  3  0.0000000  0  8G12G17G10G05G04G30G02G25
 -39227148.05948 -30547918.38446  20651297.5084                   20651296.1644
 -90249193.81646 -70304563.84643  24114223.0634                   24114224.1254
 -48554627.54748 -37815489.12246  21275939.1954                   21275939.1524
 -33911307.93048 -26405513.82346  20565103.6644                   20565102.8554
 -67594497.68446 -52650518.37244  23008008.0474                   23008008.2894
 -10684969.11747  -8307430.21845  22216653.5784                   22216653.5704
 -59460412.32048 -46313156.44146  20702748.0634                   20702745.3164
 -10855092.72747  -8439856.87745  22467137.9534                   22467140.4264
 11  8 21  1  3 30.0000000  0  8G12G17G10G05G04G30G02G25
 -39341870.92648 -30637312.81546  20629466.4774                   20629465.2154
 -90282739.03146 -70330702.95243  24107839.5474                   24107840.8714
 -48600086.17247 -37850911.39846  21267289.0164                   21267288.5634
 -34063319.19148 -26523964.11946  20536177.2194                   20536176.6094
 -67614558.45747 -52666150.19644  23004189.9454                   23004191.1334
 -10851037.80147  -8436834.30045  22185051.6884                   22185052.1524
 -59540807.29748 -46375801.85746  20687449.4384                   20687446.3324
 -11029561.00447  -8575806.09145  22433937.7814                   22433939.8754
 11  8 21  1  4  0.0000000  0  8G12G17G10G05G04G30G02G25
 -37880542.64848 -29498615.44346  20907547.7424                   20907546.8714
 -88740624.05546 -69129054.85043  24401294.4694                   24401294.6214
 -47069542.88747 -36658280.23845  21558540.8914                   21558540.9734
 -32639329.57848 -25414361.76046  20807153.2194                   20807152.7664
 -66059156.39147 -51454148.57644  23300173.5784                   23300173.8754
  -9441131.96547  -7338206.29345  22453347.8054                   22453347.7464
 -58045552.05948 -45210667.87946  20971987.1024                   20971984.1294
  -9628138.27747  -7483788.30345  22700619.5234                   22700621.7934
 11  8 21  1  4 30.0000000  0  8G12G17G10G05G04G30G02G25
 -37994007.20748 -29587029.38046  20885956.2584                   20885955.1604
 -88773688.10946 -69154818.97143  24395002.1174                   24395002.8244
 -47113839.90247 -36692797.37146  21550111.9454                   21550111.4184
 -32790184.25448 -25531910.81246  20778446.5474                   20778445.8324
 -66079130.66047 -51469712.96644  23296372.0784                   23296373.2584
  -9606097.32047  -7466750.66045  22421956.2974                   22421955.7934
 -58125489.78548 -45272956.99646  20956775.3984                   20956772.5474
  -9801670.66847  -7619008.25645  22667597.5474                   22667599.6454
 11  8 21  1  5  0.0000000  0  8G12G17G10G05G04G30G02G25
 -38106837.82448 -29674949.33146  20864485.4614                   20864484.1024
 -88806507.38346 -69180392.42043  24388757.3754                   24388757.8954
 -47157554.69147 -36726860.80946  21541793.3054                   21541793.0004
 -32940453.77048 -25649003.88947  20749851.0474                   20749850.6764
 -66099058.65246 -51485241.32844  23292580.5004                   23292580.8444
  -9770503.44947  -7594859.27445  22390670.3914                   22390670.4654
 -58205196.30548 -45335065.95646  20941607.5394                   20941604.5204
  -9974727.10247  -7753857.33845  22634665.8834                   22634667.8754
 11  8 21  1  5 30.0000000  0  8G12G17G10G05G04G30G02G25
 -38219036.80948 -29762377.10146  20843134.4064                   20843133.3524
 -88839084.88346 -69205777.42043  24382557.7584                   24382558.8054
 -47200692.68047 -36760474.79145  21533584.4774                   21533583.8674
 -33090139.94148 -25765642.43047  20721366.7894                   20721365.9344
 -66118944.67246 -51500736.94944  23288796.3754                   23288796.1564
  -9934351.34847  -7722532.87745  22359491.0634                   22359491.0204
 -58284675.68048 -45396997.91346  20926483.1644                   20926480.2304
 -10147308.41447  -7888336.21745  22601824.7274                   22601826.5944
 11  8 21  1  6  0.0000000  0  8G12G17G10G05G04G30G02G25
 -38330603.48048 -29849312.16546  20821904.0784                   20821902.7384
 -88871420.59846 -69230974.06643  24376404.7584                   24376405.0904
 -47243256.59847 -36793641.48245  21525484.5784                   21525484.4184
 -33239241.11348 -25881825.10747  20692993.6954                   20692992.9064
 -66138789.86346 -51516200.74544  23285019.9774                   23285020.0084
 -10097638.94147  -7849769.89345  22328418.5084                   22328418.5164
 -58363929.05548 -45458753.78146  20911401.9694                   20911398.7934
 -10319412.25047  -8022443.04045  22569074.5164                   22569076.6564
 11  8 21  1  6 30.0000000  0  8G12G17G10G05G04G30G02G25
 -38441538.71948 -29935755.20846  20800793.9844                   20800792.6604
 -88903515.93046 -69255983.40843  24370297.4614                   24370297.3484
 -47285249.67247 -36826363.36445  21517493.9614                   21517493.4224
 -33387757.14148 -25997551.83847  20664731.9304                   20664731.1724
 -66158596.47346 -51531634.47344  23281250.4144                   23281250.9304
 -10260365.52347  -7976569.74845  22297452.3594                   22297452.5514
 -58442958.98848 -45520335.54346  20896362.5394                   20896360.1094
 -10491037.64847  -8156177.05145  22536415.2344                   22536416.9774
 11  8 21  1  7  0.0000000  0  9G12G29G17G10G05G04G30G02G25
 -38551841.80948 -30021705.65746  20779804.1954                   20779803.0554
  13912901.01257  10857109.84353  24650407.0314                   24650410.4694
 -88935370.76247 -69280805.27844  24364235.4384                   24364236.3954
 -47326674.30547 -36858642.28945  21509610.7734                   21509610.3054
 -33535686.62148 -26112821.52246  20636581.7504                   20636580.7664
 -66178365.49246 -51547038.91244  23277488.8134                   23277489.4574
 -10422529.00447  -8102930.80445  22266593.7584                   22266593.8284
 -58521766.46948 -45581743.95846  20881366.3444                   20881363.2154
 -10662182.25447  -8289536.42245  22503847.0704                   22503849.0704
 11  8 21  1  7 30.0000000  0  9G12G29G17G10G05G04G30G02G25
 -38661523.73447 -30107172.08546  20758931.7504                   20758930.9804
  13731676.32846  10715895.89043  24615920.8674                   24615923.7074
 -88966996.40646 -69305448.60643  24358216.8984                   24358217.8634
 -47367543.89147 -36890488.73945  21501833.6024                   21501833.1174
 -33683039.13748 -26227641.62347  20608541.5164                   20608540.7974
 -66198108.94146 -51562423.46944  23273731.9774                   23273732.7304
 -10584138.32047  -8228860.06245  22235840.7194                   22235840.6604
 -58600363.67647 -45642988.53846  20866409.7034                   20866406.5474
 -10832854.75847  -8422527.92545  22471369.4694                   22471371.4064
 11  8 21  1  8  0.0000000  0  9G12G29G17G10G05G04G30G02G25
 -38770589.61748 -30192158.47146  20738177.5704                   20738176.5634
  13550408.91046  10574648.66443  24581427.1254                   24581428.6764
 -88998397.97346 -69329917.31244  24352241.3134                   24352241.9494
 -47407865.98447 -36921908.56745  21494160.7194                   21494160.1054
 -33829818.93048 -26342015.44847  20580610.2664                   20580609.6174
 -66217833.13746 -51577793.00944  23269978.7034                   23269978.9654
 -10745196.96547  -8354360.22545  22205191.7664                   22205192.2424
 -58678756.93448 -45704074.18846  20851492.1484                   20851488.8554
 -11003058.34447  -8555154.03145  22438980.7274                   22438982.3484
 11  8 21  1  8 30.0000000  0  9G12G29G17G10G05G04G30G02G25
 -38879036.22748 -30276662.31546  20717540.9454                   20717539.8054
  13369101.73847  10433370.57543  24546925.3984                   24546925.6684
 -89029573.15647 -69354209.58544  24346309.1254                   24346310.6484
 -47447640.19947 -36952901.46945  21486592.0554                   21486591.2194
 -33976021.74248 -26455939.66747  20552788.6724                   20552787.9694
 -66237536.57846 -51593146.31044  23266228.9614                   23266229.5864
 -10905700.31247  -8479427.71345  22174648.8444                   22174648.9304
 -58756944.92648 -45764999.88146  20836613.3594                   20836610.2114
 -11172788.06647  -8687410.90045  22406682.2194                   22406683.9534
 11  8 21  1  9  0.0000000  0  9G12G29G17G10G05G04G30G02G25
 -38986858.02048 -30360679.27446  20697023.1724                   20697022.1684
  13187759.85547  10292065.37943  24512417.2664                   24512417.0594
 -89060517.40246 -69378321.94144  24340420.7194                   24340421.8914
 -47486864.30947 -36983465.71045  21479127.9924                   21479126.9844
 -34121641.70748 -26569409.72747  20525078.0394                   20525077.3164
 -66257215.47746 -51608480.48544  23262484.5634                   23262484.7894
 -11065641.71547  -8604057.31145  22144213.2274                   22144213.4224
 -58834924.18048 -45825762.93046  20821774.5944                   20821771.2154
 -11342036.97347  -8819293.10845  22374475.0944                   22374477.0944
 11  8 21  1  9 30.0000000  0  9G12G29G17G10G05G04G30G02G25
 -39094057.74247 -30444211.50446  20676623.7424                   20676622.6724
  13006381.59847  10150731.89143  24477902.0554                   24477902.2774
 -89091233.07446 -69402256.09644  24334575.6954                   24334576.4304
 -47525543.35547 -37013605.23745  21471767.3914                   21471766.6214
 -34266680.02048 -26682426.54747  20497478.4614                   20497477.7854
 -66276873.31247 -51623798.28744  23258743.2034                   23258744.2114
 -11225021.62147  -8728249.39245  22113883.7344                   22113884.1954
 -58912698.07847 -45886365.95646  20806974.5164                   20806971.2934
 -11510805.34847  -8950800.88745  22342359.5944                   22342361.7344
 11  8 21  1 10  0.0000000  0  9G12G29G17G10G05G04G30G02G25
 -39200638.88747 -30527261.73146  20656341.8444                   20656340.6254
  12824963.32046  10009367.21443  24443378.8364                   24443379.6914
 -89121724.52746 -69426015.65844  24328773.4454                   24328773.9964
 -47563683.65647 -37043324.97645  21464509.7734                   21464509.2584
 -34411139.30148 -26794992.18047  20469988.6414                   20469987.4454
 -66296515.12146 -51639103.58144  23255005.9534                   23255006.6564
 -11383842.11747  -8852005.57245  22083661.3674                   22083661.5824
 -58990271.59047 -45946812.83746  20792212.6094                   20792209.6134
 -11679094.86747  -9081935.53245  22310334.8914                   22310336.7424
 11  8 21  1 10 30.0000000  0  9G12G29G17G10G05G04G30G02G25
 -39306594.84448 -30609824.78846  20636179.2344                   20636178.2814
  12643511.97346   9867976.77343  24408849.7894                   24408851.1724
 -89151985.14847 -69449595.30344  24323015.1094                   24323015.1884
 -47601281.18747 -37072621.75145  21457355.1254                   21457354.6334
 -34555011.69548 -26907100.49747  20442610.6724                   20442609.9614
 -66316135.46547 -51654392.15544  23251272.2814                   23251272.9574
 -11542094.94547  -8975319.42745  22053546.9064                   22053546.8524
 -59067639.49648 -46007099.50946  20777490.1334                   20777487.0984
 -11846897.06247  -9212690.43845  22278403.1644                   22278404.8754
 11  8 21  1 11  0.0000000  0  9G12G29G17G10G05G04G30G02G25
 -39411929.10948 -30691903.40746  20616134.7664                   20616133.7074
  12462024.16446   9726557.95044  24374312.4454                   24374314.6804
 -89182019.11746 -69472998.34543  24317299.7814                   24317299.9224
 -47638342.39847 -37101500.63245  21450302.5394                   21450301.4844
 -34698300.32448 -27018753.92147  20415343.7034                   20415342.5944
 -66335739.20347 -51669667.78144  23247541.5864                   23247542.7704
 -11699782.15247  -9098192.53545  22023540.0704                   22023539.6724
 -59144806.58648 -46067229.69046  20762805.6024                   20762802.7074
 -12014213.47347  -9343066.82845  22246563.8204                   22246565.6954
 11  8 21  1 11 30.0000000  0  9G12G29G17G10G05G04G30G02G25
 -37941210.79748 -29545889.10746  20896002.9844                   20896001.9964
  13855933.64846  10812721.35243  24639564.8834                   24639566.5394
 -87636398.35946 -68268618.44943  24611420.7974                   24611421.9144
 -46099441.32047 -35902356.92945  21743145.7034                   21743144.9494
 -33265571.82848 -25902342.05047  20687982.8594                   20687981.8954
 -64779899.21947 -50457324.93044  23543608.0234                   23543609.1564
 -10281469.23847  -7993013.62345  22293436.1334                   22293435.9734
 -57646344.41848 -44899596.81546  21047953.5634                   21047950.4494
 -10605609.17647  -8245453.04645  22514612.6094                   22514614.2584
 11  8 21  1 12  0.0000000  0  9G12G29G17G10G05G04G30G02G25
 -38045289.32848 -29626989.23047  20876197.4384                   20876196.3874
  13674386.65646  10671256.32543  24605017.6884                   24605018.9104
 -87665967.30146 -68291659.05343  24605794.0784                   24605795.0274
 -46135425.24248 -35930396.35245  21736298.1484                   21736297.8164
 -33407676.83648 -26013073.17447  20660940.9534                   20660939.9694
 -64799460.24247 -50472567.32544  23539885.9844                   23539886.6644
 -10438007.55947  -8114991.50745  22263648.0084                   22263647.7934
 -57723101.65648 -44959407.65446  21033347.1644                   21033344.1334
 -10771935.64147  -8375058.04945  22482961.5394                   22482963.2344
 11  8 21  1 12 30.0000000  0  9G12G29G17G10G05G04G30G02G25
 -38148741.40648 -29707601.19646  20856511.3594                   20856509.9224
  13492809.00846  10529767.39143  24570464.8754                   24570465.5394
 -87695305.48046 -68314519.88143  24600211.1644                   24600211.5434
 -46170875.77747 -35958020.14145  21729552.2504                   21729551.6214
 -33549190.11348 -26123343.20847  20634011.8754                   20634011.1804
 -64819003.14547 -50487795.55744  23536166.9924                   23536167.7504
 -10593970.30947  -8236520.88945  22233969.0474                   22233969.2584
 -57799657.27748 -45019061.37046  21018779.1254                   21018776.2384
 -10937765.57047  -8504276.15245  22451404.9614                   22451406.8364
 11  8 21  1 13  0.0000000  0  8G12G29G10G05G04G30G02G25
 -38251566.77748 -29787724.81546  20836944.1484                   20836943.0594
  13311201.61746  10388255.26343  24535905.0164                   24535907.2034
 -46205795.46148 -35985230.30245  21722907.0864                   21722906.2424
 -33690110.37148 -26233151.14247  20607195.7114                   20607194.3014
 -64838528.76246 -50503010.27744  23532450.7974                   23532451.8324
 -10749355.75047  -8357600.44045  22204400.6024                   22204399.8094
 -57876012.27348 -45078558.74746  21004249.0554                   21004246.2424
 -11103096.78547  -8633105.65145  22419943.3674                   22419945.6564
 11  8 21  1 13 30.0000000  0  8G12G29G10G05G04G30G02G25
 -38353763.66848 -29867358.72846  20817496.6334                   20817495.4574
  13129566.69946  10246721.59644  24501342.2034                   24501342.8284
 -46240184.84048 -36012027.20845  21716363.0704                   21716362.7154
 -33830435.03948 -26342494.98647  20580492.7504                   20580491.4774
 -64858036.32046 -50518211.03544  23528739.3444                   23528739.8954
 -10904160.25847  -8478227.28945  22174941.8204                   22174941.5124
 -57952165.89548 -45137899.21546  20989757.8134                   20989754.7814
 -11267925.42247  -8761543.52046  22388577.7194                   22388579.7274
 11  8 21  1 14  0.0000000  0  8G12G29G10G05G04G30G02G25
 -38455321.91048 -29946494.97846  20798170.6954                   20798169.6804
  12947914.71546  10105174.64344  24466774.0234                   24466776.5204
 -46274036.78147 -36038405.34445  21709921.1174                   21709920.8674
 -33970152.94948 -26451366.03147  20553905.2974                   20553904.6524
 -64877516.64546 -50533390.54244  23525032.3204                   23525032.6254
 -11058372.18447  -8598392.39845  22145596.7424                   22145596.2344
 -58028109.17248 -45197075.78846  20975305.6094                   20975303.0084
 -11432239.43747  -8889580.38545  22357309.6644                   22357311.9534
 11  8 21  1 14 30.0000000  0  8G12G29G10G05G04G30G02G25
 -38556236.67248 -30025129.81446  20778967.2504                   20778966.0744
  12766251.23446   9963618.66344  24432205.4454                   24432206.6724
 -46307349.05147 -36064362.95345  21703582.4224                   21703581.6884
 -34109257.97748 -26559759.50647  20527434.2344                   20527433.7154
 -64896965.80146 -50548545.74444  23521332.0164                   23521331.7194
 -11211984.86747  -8718090.55345  22116364.5084                   22116364.5824
 -58103838.55148 -45256085.67746  20960895.3444                   20960892.1214
 -11596031.76647  -9017210.72445  22326141.0634                   22326143.5124
 11  8 21  1 15  0.0000000  0  8G12G29G10G05G04G30G02G25
 -38656512.40248 -30103266.71846  20759885.4924                   20759884.1484
  12584572.35246   9822050.65943  24397632.6484                   24397634.9804
 -46340128.53148 -36089905.39445  21697344.4304                   21697343.7464
 -34247753.35948 -26667677.93147  20501079.4534                   20501078.5904
 -64916388.86746 -50563680.61444  23517635.5784                   23517635.4774
 -11365001.05148  -8837323.89545  22087246.6804                   22087246.6954
 -58179359.47748 -45314933.14546  20946524.1254                   20946521.2274
 -11759304.79748  -9144436.42846  22295071.3914                   22295073.2344
 11  8 21  1 15 30.0000000  0  8G12G29G10G05G04G30G02G25
 -38756147.00448 -30180904.02946  20740925.6804                   20740924.4924
  12402880.77746   9680472.78143  24363058.3914                   24363059.4964
 -46372375.77748 -36115033.10645  21691207.9924                   21691207.5864
 -34385636.93748 -26775119.62647  20474840.7504                   20474839.9774
 -64935785.38747 -50578794.78644  23513943.9384                   23513944.5274
 -11517417.16847  -8956089.65945  22058243.4064                   22058242.4414
 -58254670.89148 -45373617.35246  20932192.5394                   20932189.9574
 -11922054.57048  -9271254.38246  22264101.3444                   22264103.0084
 11  8 21  1 16  0.0000000  0  8G12G29G10G05G04G30G02G25
 -38855145.58648 -30258045.74246  20722086.8364                   20722085.3444
  12221172.21146   9538881.64343  24328480.1334                   24328481.4884
 -46404098.26247 -36139751.92445  21685171.5394                   21685170.8754
 -34522912.14148 -26882087.27147  20448718.5474                   20448717.7504
 -64955160.63747 -50593892.44943  23510257.2194                   23510257.5554
 -11669236.44147  -9074390.36645  22029352.5314                   22029352.2504
 -58329778.77048 -45432142.95846  20917900.2034                   20917897.1724
 -12084283.88747  -9397666.79846  22233229.8444                   22233231.7854
 11  8 21  1 16 30.0000000  0  8G12G29G10G05G04G30G02G25
 -38953511.99248 -30334694.86246  20703368.3914                   20703366.8984
  12039443.26646   9397274.60644  24293898.1024                   24293899.3674
 -46435302.59047 -36164066.97245  21679233.3054                   21679233.0314
 -34659582.03148 -26988583.22747  20422710.8674                   20422709.7074
 -64974519.67247 -50608977.41443  23506573.2584                   23506573.7304
 -11820461.24247  -9192227.84445  22000575.3834                   22000575.2624
 -58404688.30148 -45490514.01046  20903645.5784                   20903642.3094
 -12245994.83248  -9523675.28446  22202457.2424                   22202459.2234
 11  8 21  1 17  0.0000000  0  8G12G29G10G05G04G30G02G25
 -39051246.14848 -30410851.32046  20684770.0164                   20684768.7504
  11857695.08246   9255652.65744  24259313.1414                   24259314.5474
 -46465991.02347 -36187980.02445  21673393.4694                   21673392.7274
 -34795645.40247 -27094606.60547  20396818.9694                   20396817.8954
 -64993862.68047 -50624049.88744  23502892.5234                   23502892.4064
 -11971089.43048  -9309600.42845  21971911.8754                   21971911.9414
 -58479400.06647 -45548730.95446  20889428.1414                   20889424.9494
 -12407184.80948  -9649277.81646  22171783.7734                   22171785.7034
 11  8 21  1 17 30.0000000  0  8G12G29G10G05G04G30G02G25
 -39148349.28948 -30486516.08746  20666292.1414                   20666290.5594
  11675927.28546   9114015.45843  24224723.5314                   24224725.3204
 -46496167.36347 -36211494.02845  21667651.4144                   21667650.7974
 -34931102.34848 -27200157.41247  20371042.5084                   20371041.4774
 -65013191.91047 -50639111.62743  23499214.5704                   23499214.2074
 -12121120.59847  -9426507.81045  21943361.5704                   21943361.6844
 -58553916.31648 -45606795.55046  20875247.7974                   20875245.0744
 -12567853.07447  -9774473.82146  22141209.6254                   22141211.5314
 11  8 21  1 18  0.0000000  0  8G12G29G10G05G04G30G02G25
 -39244819.44548 -30561687.61346  20647934.3834                   20647932.9104
  11494142.44147   8972364.99443  24190130.6484                   24190132.6294
 -46525832.12147 -36234609.41945  21662006.2734                   21662005.7034
 -35065949.91848 -27305233.40347  20345381.5864                   20345380.8754
 -65032506.07447 -50654161.68244  23495538.9224                   23495538.4774
 -12270551.18747  -9542947.21145  21914926.3444                   21914925.8914
 -58628235.93448 -45664706.93846  20861105.6804                   20861102.6524
 -12727995.58247  -9899260.15346  22110735.8364                   22110737.5274
 11  8 21  1 18 30.0000000  0  8G12G29G10G05G04G30G02G25
 -39340660.84448 -30636369.21546  20629696.2114                   20629694.6914
  11312337.03146   8830698.56243  24155534.1724                   24155535.5394
 -46554992.29748 -36257331.63745  21656457.1484                   21656456.7384
 -35200191.71548 -27409837.35447  20319836.4614                   20319835.2624
 -65051810.32047 -50669203.94144  23491865.8674                   23491866.2234
 -12419383.81647  -9658920.66445  21886604.1414                   21886603.7034
 -58702364.15648 -45722469.18946  20846999.5944                   20846996.7234
 -12887614.64847 -10023638.61246  22080360.8674                   22080362.5434
 11  8 21  1 19  0.0000000  0  8G12G29G10G05G04G30G02G25
 -39435874.84848 -30710561.94346  20611577.7504                   20611576.1884
  11130510.73046   8689015.84543  24120934.0634                   24120935.6724
 -46583651.62947 -36279663.58745  21651003.3134                   21651003.1484
 -35333827.69548 -27513969.25647  20294406.4064                   20294405.4264
 -65071106.49647 -50684239.95744  23488193.6024                   23488194.5474
 -12567617.92647  -9774427.76945  21858395.8364                   21858396.0824
 -58776302.87148 -45780083.75946  20832929.5084                   20832926.1804
 -13046709.21947 -10147608.37546  22050086.3134                   22050088.2704
 11  8 21  1 19 30.0000000  0  8G12G29G10G05G04G30G02G25
 -37955039.06648 -29556663.91746  20893371.5004                   20893369.9144
  12524089.53946   9774921.55643  24386123.2814                   24386125.2304
 -45036392.33247 -35074006.98045  21945437.3284                   21945436.3554
 -33891433.34048 -26390025.56047  20568884.6334                   20568883.6174
 -63514974.97747 -49471669.94444  23784315.7974                   23784316.7854
 -11139827.71147  -8661863.93545  22130095.3284                   22130095.3554
 -57274631.35948 -44609950.10946  21118688.0474                   21118684.7894
 -11629852.73848  -9043564.34046  22319705.2584                   22319706.8524
 11  8 21  1 20  0.0000000  0  8G12G29G10G05G04G30G02G25
 -38049000.51248 -29629880.63846  20875491.0554                   20875489.7734
  12342221.85546   9633206.67444  24351514.5634                   24351516.2234
 -45064059.44947 -35095565.78845  21940172.3754                   21940171.4654
 -34023857.02348 -26493212.80947  20543685.2664                   20543684.0904
 -63534258.58247 -49486696.16644  23780645.7504                   23780646.5394
 -11286861.89547  -8776436.01445  22102115.6954                   22102115.6024
 -57348195.95748 -44667273.16246  21104689.2504                   21104686.4304
 -11787894.18048  -9166713.49346  22289630.6254                   22289632.3364
 11  8 21  1 20 30.0000000  0  8G12G29G10G05G04G30G02G25
 -38142333.98048 -29702608.02146  20857730.1804                   20857728.6094
  12160336.09846   9491477.70743  24316902.7814                   24316903.3914
 -45091232.91847 -35116739.92145  21935001.1804                   21935000.8954
 -34155671.83647 -26595925.62047  20518601.6024                   20518600.7114
 -63553535.34847 -49501717.01644  23776977.5004                   23776978.6684
 -11433292.19947  -8890537.54045  22074251.1484                   22074251.3134
 -57421573.39848 -44724450.38646  21090726.1564                   21090723.3164
 -11945404.57848  -9289448.84946  22259657.5234                   22259659.1094
 11  8 21  1 21  0.0000000  0  8G12G29G10G05G04G30G02G25
 -38235040.57848 -29774846.92946  20840088.5314                   20840087.6024
  11978433.00046   9349735.17243  24282287.6094                   24282288.8204
 -45117915.15247 -35137531.29845  21929923.9924                   21929923.4884
 -34286876.99648 -26698163.37147  20493634.1484                   20493632.9694
 -63572806.32847 -49516733.39243  23773309.8984                   23773311.7234
 -11579117.17647  -9004167.37045  22046501.6094                   22046501.6724
 -57494764.46948 -44781482.37746  21076797.9694                   21076795.2074
 -12102381.96948  -9411768.85046  22229785.6254                   22229787.1884
 11  8 21  1 21 30.0000000  0  8G12G29G10G05G04G30G02G25
 -38327122.07448 -29846598.76046  20822566.3984                   20822565.0434
  11796511.26246   9207978.07143  24247668.6024                   24247669.6764
 -45144111.07047 -35157943.69445  21924939.1024                   21924938.8324
 -34417473.48848 -26799926.83547  20468782.5474                   20468781.5704
 -63592074.10547 -49531747.28843  23769644.1804                   23769644.7074
 -11724337.34447  -9117325.90545  22018866.5004                   22018867.5784
 -57567772.27748 -44838371.58446  21062905.0164                   21062902.0044
 -12258826.42648  -9533673.59946  22200015.3444                   22200017.0124
 11  8 21  1 22  0.0000000  0  8G12G29G10G05G04G30G02G25
 -38418581.42648 -29917865.79447  20805162.1884                   20805160.6054
  11614569.05146   9066205.07043  24213046.1174                   24213047.6294
 -45169826.24247 -35177981.49645  21920045.2034                   21920045.1804
 -34547464.25448 -26901218.29847  20444046.0474                   20444045.0124
 -63611342.15647 -49546761.33244  23765977.6644                   23765978.3134
 -11868954.34447  -9230014.43245  21991347.2344                   21991347.1884
 -57640600.59448 -44895120.90746  21049046.4144                   21049043.0634
 -12414739.04748  -9655163.93346  22170346.0474                   22170347.7114
 11  8 21  1 22 30.0000000  0  8G12G29G10G05G04G30G02G25
 -38509417.03148 -29988646.78346  20787876.7424                   20787875.2464
  11432609.58646   8924418.60344  24178419.9384                   24178421.8094
 -45195061.11347 -35197645.02645  21915243.4534                   21915243.0984
 -34676845.59848 -27002034.89347  20419425.6564                   20419424.7114
 -63630608.98847 -49561774.44444  23762311.2424                   23762311.3094
 -12012963.99247  -9342229.68345  21963942.7424                   21963942.7814
 -57713247.91448 -44951729.21246  21035222.1094                   21035219.1374
 -12570115.33248  -9776236.32545  22140778.3984                   22140780.2154
 11  8 21  1 23  0.0000000  0  8G12G29G10G05G04G30G02G25
 -38599631.18748 -30058943.53746  20770709.5634                   20770708.0004
  11250631.31346   8782617.46444  24143791.1884                   24143792.3954
 -45219820.01647 -35216937.68445  21910532.0634                   21910531.5984
 -34805618.98448 -27102377.75547  20394920.7504                   20394919.7464
 -63649877.07047 -49576788.54844  23758644.4924                   23758645.6024
 -12156367.02347  -9453972.25645  21936654.5784                   21936654.3404
 -57785717.75048 -45008199.19746  21021431.3914                   21021428.4224
 -12724955.52348  -9896890.96346  22111313.6884                   22111315.5984
 11  8 21  1 23 30.0000000  0  8G12G29G10G05G04G30G02G25
 -38689225.41448 -30128757.22346  20753660.3914                   20753658.8634
  11068633.93446   8640801.41044  24109158.0864                   24109159.5204
 -45244107.14847 -35235862.69745  21905909.9304                   21905909.9414
 -34933785.25448 -27202247.53747  20370531.1804                   20370530.2384
 -63669148.64547 -49591805.35344  23754977.3984                   23754978.3524
 -12299163.66847  -9565242.29445  21909481.1254                   21909481.2154
 -57858011.82448 -45064532.22446  21007674.3444                   21007671.4534
 -12879259.25848 -10017127.59445  22081950.6644                   22081952.1254
 11  8 21  1 24  0.0000000  0  8G12G29G10G05G04G30G02G25
 -38778196.78948 -30198085.56246  20736729.6564                   20736728.1844
  10886621.63747   8498973.73944  24074522.4924                   24074523.7734
 -45267921.81247 -35254419.57745  21901378.3364                   21901378.3444
 -35061340.03948 -27301640.84547  20346258.7734                   20346257.5634
 -63688420.82447 -49606822.65844  23751310.2114                   23751310.6804
 -12441348.81247  -9676035.85045  21882424.0234                   21882424.2274
 -57930127.45348 -45120726.20446  20993951.2974                   20993948.6094
 -13033021.07048 -10136941.92646  22052690.5004                   22052692.2274
 11  8 21  1 24 30.0000000  0  8G12G29G10G05G04G30G02G25
 -38866548.13348 -30266930.77446  20719917.1094                   20719915.4574
  10704593.05547   8357133.38244  24039883.7114                   24039885.3404
 -45291268.91047 -35272612.12645  21896935.4064                   21896935.3484
 -35188285.19148 -27400559.10947  20322101.8204                   20322100.5274
 -63707696.77046 -49621842.85344  23747641.5864                   23747642.9064
 -12582923.72748  -9786353.89645  21855483.2504                   21855483.0084
 -58002067.91448 -45176783.69346  20980261.1484                   20980258.2344
 -13186241.57848 -10256334.48146  22023533.7504                   22023535.0004
 11  8 21  1 25  0.0000000  0  8G12G29G10G05G04G30G02G25
 -38954282.20348 -30335294.97046  20703221.7274                   20703220.3634
  10522546.14547   8215278.76044  24005240.7274                   24005243.3444
 -45314154.00847 -35290444.65245  21892580.9774                   21892580.3324
 -35314622.77048 -27499003.94347  20298060.1254                   20298059.4454
 -63726979.41046 -49636868.31743  23743972.5554                   23743973.6844
 -12723889.45348  -9896197.23645  21828658.1954                   21828657.9694
 -58073836.97348 -45232707.61346  20966603.9924                   20966600.7154
 -13338921.51248 -10375305.78646  21994479.5004                   21994481.2034
 11  8 21  1 25 30.0000000  0  8G12G29G10G05G04G30G02G25
 -39041400.55548 -30403179.39246  20686643.5394                   20686642.0984
  10340481.64547   8073410.38944  23970595.4534                   23970596.8714
 -45336580.33247 -35307919.68245  21888313.1564                   21888312.2544
 -35440352.52748 -27596975.14347  20274134.7894                   20274133.5594
 -63746270.11346 -49651899.99344  23740301.5234                   23740302.6954
 -12864245.14148 -10005565.24845  21801949.5004                   21801949.4494
 -58145435.57448 -45288498.71746  20952979.3284                   20952976.5314
 -13491059.44548 -10493854.77046  21965528.7034                   21965530.2934
 11  8 21  1 26  0.0000000  0  8G12G29G10G05G04G30G02G25
 -39127903.46548 -30470584.25246  20670182.5784                   20670181.2304
  10158400.08246   7931528.74544  23935945.9064                   23935946.9694
 -45358550.80547 -35325039.52545  21884132.5784                   21884132.2774
 -35565474.71548 -27694472.92047  20250324.8364                   20250323.8244
 -63765569.64146 -49666938.55543  23736628.6564                   23736629.8754
 -13003990.02748 -10114457.32645  21775356.7664                   21775356.3324
 -58216865.30948 -45344158.23646  20939386.6954                   20939383.9534
 -13642654.12948 -10611980.43846  21936681.3134                   21936683.0354
 11  8 21  1 26 30.0000000  0  8G12G29G10G05G04G30G02G25
 -39213793.78148 -30537511.76346  20653838.2974                   20653836.9884
   9976299.81646   7789632.52744  23901293.3444                   23901294.4064
 -45380070.88748 -35341808.40845  21880037.2734                   21880036.8674
 -35689991.01648 -27791498.57347  20226630.1564                   20226628.7774
 -63784881.27346 -49681986.58843  23732953.9454                   23732955.4494
 -13143125.32848 -10222874.38745  21748880.5004                   21748879.9924
 -58288129.36748 -45399688.66446  20925825.7734                   20925822.6024
 -13793706.22748 -10729683.31946  21907937.1094                   21907938.4264
 11  8 21  1 27  0.0000000  0  8G12G29G10G05G04G30G02G25
 -37723646.99248 -29376358.40646  20937403.7274                   20937402.5004
  11369610.53546   8875329.28144  24166431.9534                   24166433.2074
 -43825719.55147 -34130625.54145  22175820.2194                   22175819.9654
 -34238473.89548 -26660446.23547  20502844.6804                   20502843.5514
 -62228781.75446 -48469441.53643  24029069.7504                   24029070.6174
 -11706222.11748  -9103209.49745  22022313.6724                   22022313.5634
 -56783803.34448 -44227486.54946  21212089.2734                   21212086.1954
 -12368785.93748  -9619355.76746  22179090.1174                   22179091.8054
 11  8 21  1 27 30.0000000  0  8G12G29G10G05G04G30G02G25
 -37808306.07848 -29442326.49646  20921293.5784                   20921292.1024
  11187483.64146   8733412.29744  24131773.9694                   24131775.1804
 -43846338.66047 -34146692.37745  22171897.0164                   22171896.4694
 -34361768.77348 -26756520.13247  20479382.5004                   20479381.4774
 -62248110.96946 -48484503.23943  24025391.9384                   24025392.5704
 -11844126.25048  -9210667.22945  21996071.4924                   21996070.9694
 -56854730.46948 -44282754.42746  21198592.6334                   21198589.4694
 -12518739.46948  -9736202.63646  22150554.8674                   22150556.7854
 11  8 21  1 28  0.0000000  0  8G12G29G10G05G04G30G02G25
 -37892352.19148 -29507816.95646  20905300.0234                   20905298.5704
  11005343.41846   8591484.93943  24097114.0164                   24097114.3204
 -43866512.87147 -34162412.56245  22168058.1564                   22168056.9924
 -34484453.64148 -26852118.69547  20456035.9454                   20456035.1054
 -62267451.23046 -48499573.53943  24021711.2344                   24021711.2234
 -11981414.53148  -9317645.07345  21969946.2424                   21969945.7974
 -56925491.97348 -44337893.25646  21185126.8594                   21185123.9654
 -12668142.50448  -9852620.54946  22122124.4454                   22122125.6994
 11  8 21  1 28 30.0000000  0  8G12G29G10G05G04G30G02G25
 -37975791.93048 -29572834.91246  20889422.0944                   20889420.1454
  10823184.51246   8449543.02943  24062450.2814                   24062450.0354
 -43886251.20347 -34177793.07945  22164301.5554                   22164301.1524
 -34606534.55548 -26947246.64747  20432804.9304                   20432803.6564
 -62286809.34846 -48514657.79243  24018027.3524                   24018027.6564
 -12118092.04748  -9424147.01045  21943937.6334                   21943937.0784
 -56996094.84047 -44392908.48246  21171691.4694                   21171688.4104
 -12816999.74648  -9968613.17346  22093797.9844                   22093799.7544
 11  8 21  1 29  0.0000000  0  8G12G29G10G05G04G30G02G25
 -38058624.28948 -29637379.58946  20873659.7194                   20873658.1764
  10641009.74246   8307588.76743  24027783.3984                   24027783.1524
 -43905554.42247 -34192834.55545  22160628.6414                   22160628.1524
 -34728009.15648 -27041902.14247  20409689.0554                   20409688.0164
 -62306184.25846 -48529755.10843  24014340.2424                   24014341.3954
 -12254155.69948  -9530170.61645  21918045.5944                   21918045.1214
 -57066538.04348 -44447799.27946  21158286.5554                   21158283.6294
 -12965307.58248 -10084177.68746  22065575.9064                   22065577.4454
 11  8 21  1 29 30.0000000  0  8G12G29G10G05G04G30G02G25
 -38140848.23448 -29701450.17046  20858012.7194                   20858011.4344
  10458821.97746   8165624.33444  23993113.8134                   23993114.4414
 -43924423.75047 -34207537.93545  22157037.8444                   22157036.9454
 -34848875.32448 -27136083.53947  20386688.9614                   20386688.0634
 -62325574.76646 -48544864.65843  24010650.4924                   24010651.6564
 -12389603.00048  -9635713.94945  21892270.5084                   21892269.9494
 -57136820.84448 -44502565.10446  21144912.1954                   21144909.0944
 -13113062.79348 -10199311.59146  22037458.9064                   22037460.6134
 11  8 21  1 30  0.0000000  0  8G12G29G10G05G04G30G02G25
 -38222466.66848 -29765048.93246  20842481.3134                   20842479.9494
  10276619.30546   8023648.29644  23958441.5554                   23958442.4414
 -43942864.67247 -34221907.47645  22153528.2974                   22153528.0514
 -34969135.57448 -27229792.80047  20363804.1724                   20363803.0084
 -62344984.15246 -48559988.89243  24006957.8594                   24006957.6214
 -12524435.23448  -9740778.01145  21866613.2424                   21866612.4224
 -57206946.42248 -44557208.40946  21131568.2034                   21131564.6414
 -13260266.33648 -10314015.62946  22009447.0784                   22009448.6374
 11  8 21  1 30 30.0000000  0  8G12G29G10G05G04G30G02G25
 -38303476.17648 -29828173.20446  20827065.7894                   20827064.5514
  10094406.86747   7881664.63044  23923767.9924                   23923768.9494
 -43960875.90247 -34235942.19845  22150101.3674                   22150100.7734
 -35088785.06648 -27323026.13547  20341035.4614                   20341034.4734
 -62364408.53146 -48575124.79543  24003260.9614                   24003261.6724
 -12658647.11748  -9845358.69045  21841073.3914                   21841072.7544
 -57276911.50048 -44611726.66146  21118254.2114                   21118250.8594
 -13406912.29748 -10428285.19346  21981541.0864                   21981542.8204
 11  8 21  1 31  0.0000000  0  8G12G29G10G05G04G30G02G25
 -38383880.00048 -29890825.51146  20811765.5004                   20811764.0944
   9912183.41847   7739672.39544  23889091.8984                   23889093.3204
 -43978462.54747 -34249646.07545  22146754.3204                   22146753.9384
 -35207826.33648 -27415785.53647  20318382.7734                   20318381.8404
 -62383850.57946 -48590274.45743  23999561.3204                   23999561.7974
 -12792239.94147  -9949456.99045  21815651.5634                   21815650.9614
 -57346719.26248 -44666122.31646  21104970.1484                   21104967.0004
 -13553001.35248 -10542120.81246  21953741.3754                   21953743.0944
 11  8 21  1 31 30.0000000  0  8G12G29G10G05G04G30G02G25
 -38463678.59848 -29953006.22246  20796580.6174                   20796579.1374
   9729950.48847   7597672.79944  23854414.3674                   23854415.6994
 -43995626.78547 -34263020.79045  22143488.3054                   22143487.2424
 -35326258.09048 -27508069.98747  20295845.9534                   20295844.6844
 -62403310.35946 -48605437.91743  23995858.1954                   23995859.1724
 -12925212.09848 -10053071.64445  21790347.8134                   21790347.1524
 -57416369.69948 -44720395.37946  21091715.7894                   21091712.6524
 -13698531.34848 -10655520.78146  21926047.7974                   21926050.1804
 11  8 21  1 32  0.0000000  0  8G12G29G10G05G04G30G02G25
 -38542874.11748 -30014716.98946  20781509.8054                   20781508.1214
   9547707.65647   7455665.50945  23819734.7424                   23819735.9534
 -44012372.81647 -34276069.65045  22140301.4534                   22140300.5704
 -35444081.59048 -27599880.47547  20273424.8754                   20273424.0744
 -62422790.05946 -48620617.00343  23992151.8054                   23992152.2624
 -13057564.16048 -10156203.09045  21765161.6024                   21765161.6024
 -57485865.05548 -44774547.60946  21078491.6254                   21078488.5204
 -13843502.32048 -10768485.15446  21898460.9144                   21898462.5314
 11  8 21  1 32 30.0000000  0  8G12G29G10G05G04G30G02G25
 -38621469.78548 -30075960.36246  20766553.5314                   20766551.9534
   9365453.05147   7313649.06545  23785052.5394                   23785053.3524
 -44028706.39147 -34288797.12645  22137193.5704                   22137192.6954
 -35561299.48448 -27691219.06047  20251119.2344                   20251117.9304
 -62442292.76646 -48635813.89443  23988439.8134                   23988441.0514
 -13189297.91447 -10258852.75445  21740093.2734                   21740093.0514
 -57555209.32448 -44828582.09246  21065295.5554                   21065292.6174
 -13987915.43748 -10881014.82846  21870980.0084                   21870981.7544
 11  8 21  1 33  0.0000000  0  8G12G29G10G05G04G30G02G25
 -38699460.94548 -30136732.67446  20751712.2194                   20751710.9574
   9183193.92247   7171629.11844  23750370.0554                   23750369.9734
 -44044624.38747 -34301200.76445  22134164.4304                   22134163.7584
 -35677905.90648 -27782081.17147  20228929.4924                   20228928.3244
 -62461812.86746 -48651024.42543  23984725.6094                   23984726.6524
 -13320406.47747 -10361015.24545  21715144.4304                   21715144.1094
 -57624397.07848 -44882494.61946  21052129.6024                   21052126.3284
 -14131763.28548 -10993104.04346  21843606.5084                   21843607.9064
 11  8 21  1 33 30.0000000  0  8G12G29G10G05G04G30G02G25
 -38776848.04348 -30197034.29246  20736986.0704                   20736984.3754
   9000931.63347   7029606.73344  23715686.5394                   23715687.4264
 -44060128.92647 -34313282.23145  22131214.0004                   22131213.4804
 -35793900.01248 -27872466.15447  20206856.5554                   20206855.3834
 -62481350.55946 -48666248.59943  23981007.2734                   23981009.2114
 -13450888.57047 -10462689.57445  21690314.9304                   21690313.9574
 -57693428.64547 -44936285.44046  21038993.3444                   21038990.5474
 -14275043.88348 -11104751.22446  21816341.3834                   21816342.6684
 11  8 21  1 34  0.0000000  0  8G12G29G10G05G04G30G02G25
 -38853633.42648 -30256867.05246  20722374.2194                   20722373.0904
   8818665.55547   6887581.40344  23681001.6024                   23681003.5704
 -44075224.62147 -34325045.11445  22128341.6254                   22128340.8364
 -35909283.14148 -27962375.04847  20184899.6724                   20184898.5204
 -62500907.93746 -48681488.14343  23977286.0704                   23977287.3164
 -13580744.85547 -10563876.25845  21665603.8284                   21665603.4064
 -57762306.37947 -44989956.37746  21025886.4384                   21025883.1174
 -14417757.38748 -11215956.51946  21789183.8594                   21789185.4304
 11  8 21  1 34 30.0000000  0  8G12G29G10G05G04G30G02G25
 -38929817.50048 -30316231.25046  20707876.8364                   20707875.4494
   8636397.11347   6745554.25344  23646317.2194                   23646318.8444
 -44089913.88747 -34336491.28745  22125545.9614                   22125545.1724
 -36024054.86348 -28051807.52147  20163059.4224                   20163058.1294
 -62520485.02346 -48696742.94543  23973560.4844                   23973562.1724
 -13709974.04747 -10664574.32145  21641012.2194                   21641011.8014
 -57831030.61747 -45043507.70646  21012808.3674                   21012805.4454
 -14559901.90648 -11326718.44246  21762134.5164                   21762135.9454
 11  8 21  1 35  0.0000000  0  8G12G29G10G05G04G30G02G25
 -37429979.75048 -29147526.50746  20993286.4064                   20993284.9694
  10029552.69547   7831130.21044  23911425.3674                   23911426.6724
 -42528780.04747 -33120023.38045  22422619.9224                   22422619.2974
 -34562792.51648 -26913161.50047  20441128.0314                   20441127.3134
 -60964662.51646 -47484413.74443  24269623.8524                   24269625.0124
 -12263152.11347  -9537180.57445  21916333.2584                   21916332.8094
 -56324180.89848 -43869339.07046  21299552.5634                   21299549.5704
 -13126052.31248 -10209433.01146  22034986.7504                   22034988.4534
 11  8 21  1 35 30.0000000  0  8G12G29G10G05G04G30G02G25
 -37504965.52748 -29205956.96946  20979016.8524                   20979015.7304
   9847281.67647   7689101.01144  23876740.4304                   23876741.5664
 -42542666.30147 -33130843.85445  22419977.1024                   22419976.6294
 -34676342.99248 -27001642.35747  20419520.4384                   20419519.1844
 -60984281.66046 -47499701.42543  24265890.8284                   24265891.2114
 -12391126.18747  -9636900.62745  21891980.8834                   21891980.3484
 -56392601.70748 -43922653.96446  21286532.5704                   21286529.3014
 -13267056.00448 -10319305.98046  22008154.7664                   22008156.3954
 11  8 21  1 36  0.0000000  0  8G12G29G10G05G04G30G02G25
 -37579353.87948 -29263921.92346  20964861.7114                   20964860.1294
   9665010.82447   7547071.98944  23842055.5554                   23842056.1484
 -42556155.67647 -33141355.06345  22417410.3984                   22417409.5704
 -34789282.56248 -27089647.18647  20398028.7894                   20398027.6374
 -61003922.66046 -47515006.05243  24262153.0784                   24262152.7894
 -12518471.55947  -9736130.76445  21867747.5704                   21867747.4494
 -56460871.85947 -43975851.47046  21273540.9924                   21273538.2424
 -13407487.27048 -10428732.90046  21981431.5554                   21981433.2114
 11  8 21  1 36 30.0000000  0  8G12G29G10G05G04G30G02G25
 -37653147.69948 -29321423.59746  20950819.0394                   20950817.7304
   9482739.24247   7405042.28244  23807370.2814                   23807370.5784
 -42569252.75047 -33151560.59745  22414918.7814                   22414917.4144
 -34901613.03948 -27177177.39647  20376653.2194                   20376651.7034
 -61023587.69146 -47530329.45943  24258410.9064                   24258410.8834
 -12645189.27747  -9834871.81645  21843633.7424                   21843633.5984
 -56528994.18747 -44028933.78746  21260577.9224                   21260574.7504
 -13547346.58248 -10537714.15546  21954816.9844                   21954818.3954
 11  8 21  1 37  0.0000000  0  8G12G29G10G05G04G30G02G25
 -37726345.87948 -29378461.13846  20936889.7584                   20936888.3634
   9300470.40247   7263014.76244  23772685.7584                   23772685.7854
 -42581958.13747 -33161460.92945  22412500.1024                   22412499.8594
 -35013332.74248 -27264231.67547  20355393.2734                   20355391.9184
 -61043275.05946 -47545670.28143  24254664.5234                   24254665.2704
 -12771276.53147  -9933121.60345  21819640.6954                   21819639.8754
 -56596967.30948 -44081899.82846  21247642.7114                   21247639.7074
 -13686630.47348 -10646247.02246  21928312.1724                   21928313.2154
 11  8 21  1 37 30.0000000  0  8G12G29G10G05G04G30G02G25
 -37798952.43048 -29435037.65646  20923073.2974                   20923071.9144
   9118202.28547   7120987.76244  23738001.0474                   23738001.1604
 -42594277.77047 -33171060.66745  22410156.1094                   22410155.2624
 -35124444.59848 -27350812.31747  20334249.5164                   20334247.8714
 -61062988.15246 -47561031.06943  24250912.9924                   24250914.1564
 -12896735.77748 -10030882.03645  21795765.9844                   21795765.7274
 -56664794.68448 -44134752.30846  21234735.7894                   21234732.7894
 -13825340.67648 -10754332.87146  21901916.6804                   21901917.8134
 11  8 21  1 38  0.0000000  0  8G12G29G10G05G04G30G02G25
 -37870968.67248 -29491154.21846  20909368.9844                   20909367.6094
   8935935.89847   6978962.12944  23703317.2114                   23703316.5904
 -42606214.93047 -33180362.35945  22407885.1644                   22407884.0984
 -35234948.87548 -27436919.51347  20313221.3134                   20313220.0984
 -61082727.72746 -47576412.58243  24247156.7274                   24247157.4924
 -13021566.49648 -10128152.69545  21772012.0314                   21772011.3204
 -56732477.45348 -44187492.10246  21221856.3524                   21221853.3484
 -13963476.17648 -10861970.89246  21875630.4064                   21875631.4804
 11  8 21  1 38 30.0000000  0  8G12G29G10G05G04G30G02G25
 -37942395.77748 -29546811.69746  20895776.9454                   20895775.6684
   8753672.21547   6836938.57444  23668633.3754                   23668633.1024
 -42617772.14147 -33189367.98845  22405685.5784                   22405684.8524
 -35344845.56248 -27522553.27747  20292308.4144                   20292307.2274
 -61102494.10946 -47591814.91043  24243395.5864                   24243396.0164
 -13145767.93748 -10224933.00945  21748376.9694                   21748375.9384
 -56800016.19948 -44240119.69146  21209004.1174                   21209000.9964
 -14101035.50448 -10969159.94146  21849453.4614                   21849454.8914
 11  8 21  1 39  0.0000000  0  8G12G29G10G05G04G30G02G25
 -38013233.89548 -29602010.24346  20882297.1174                   20882295.5314
   8571413.47347   6694918.83944  23633950.5554                   23633950.6994
 -42628951.43747 -33198079.15045  22403558.0004                   22403557.5824
 -35454133.93048 -27607713.02347  20271511.5704                   20271510.2704
 -61122286.74246 -47607237.71043  24239628.8674                   24239629.9304
 -13269338.55148 -10321221.76646  21724862.2734                   21724861.8244
 -56867410.62148 -44292634.81846  21196179.2114                   21196176.1564
 -14238016.49248 -11075898.35946  21823386.9224                   21823388.3714
 11  8 21  1 39 30.0000000  0  9G12G29G26G10G05G04G30G02G25
 -38083487.29748 -29656753.14646  20868927.8754                   20868926.8094
   8389157.77747   6552901.52144  23599268.0474                   23599268.6884
  20200402.17656  15757265.10153  24794049.1644                   24794051.3954
 -42639758.78147 -33206500.46645  22401501.3834                   22401501.2974
 -35562817.49248 -27692401.49447  20250829.8754                   20250828.5394
 -61142109.02746 -47622683.65343  24235856.3594                   24235857.1134
 -13392281.01248 -10417021.04145  21701467.2894                   21701466.3674
 -56934664.74248 -44345040.61446  21183381.1484                   21183378.0084
 -14374421.11348 -11182187.65446  21797429.7274                   21797431.3484
 11  8 21  1 40  0.0000000  0  9G12G29G26G10G05G04G30G02G25
 -38153165.10948 -29711047.55746  20855669.0084                   20855667.4064
   8206898.46547   6410881.35044  23564585.5004                   23564586.1804
  20009439.78546  15608463.41243  24757709.8674                   24757712.0434
 -42650205.17647 -33214640.53345  22399513.4534                   22399513.3914
 -35670903.73448 -27776624.52047  20230261.7034                   20230260.4964
 -61161969.33246 -47638159.22743  24232077.5474                   24232078.0514
 -13514602.47348 -10512336.42645  21678190.2114                   21678189.2704
 -57001786.67648 -44397343.41346  21170608.4614                   21170605.5514
 -14510255.89548 -11288032.91346  21771581.4774                   21771583.1684
 11  8 21  1 40 30.0000000  0  9G12G29G26G10G05G04G30G02G25
 -38222273.70348 -29764898.39946  20842518.0314                   20842516.5234
   8024631.44946   6268855.19944  23529900.9614                   23529900.9064
  19818357.28546  15459568.14343  24721348.0234                   24721350.1174
 -42660298.46547 -33222505.46345  22397593.0474                   22397592.0354
 -35778398.17248 -27860386.39647  20209806.3674                   20209805.0314
 -61181872.92646 -47653668.48043  24228290.4694                   24228291.1724
 -13636307.59048 -10607171.51845  21655029.9384                   21655029.7624
 -57068782.69148 -44449548.10046  21157859.4384                   21157856.2774
 -14645524.78548 -11393437.19646  21745840.5554                   21745842.0204
 11  8 21  1 41  0.0000000  0  9G12G29G26G10G05G04G30G02G25
 -38290812.57448 -29818305.32046  20829475.6334                   20829473.8524
   7842359.57047   6126825.23244  23495216.0004                   23495215.8914
  19627159.25846  15310582.85643  24684963.9774                   24684966.7154
 -42670039.83247 -33230096.18445  22395739.1564                   22395738.9734
 -35885299.40648 -27943686.04147  20189463.4384                   20189462.2774
 -61201818.64546 -47669210.62343  24224494.4144                   24224495.7584
 -13757394.14848 -10701524.63046  21631988.1094                   21631987.2584
 -57135651.44548 -44501653.61846  21145134.6094                   21145131.5634
 -14780224.96548 -11498398.34046  21720208.0704                   21720209.7344
 11  8 21  1 41 30.0000000  0  9G12G29G26G10G05G04G30G02G25
 -38358779.27748 -29871266.38246  20816542.1254                   20816540.4384
   7660087.90247   5984795.46444  23460530.4844                   23460530.6524
  19435852.10946  15161512.45243  24648559.3524                   24648561.6334
 -42679428.48447 -33237412.01545  22393952.5084                   22393951.9494
 -35991603.77748 -28026520.59747  20169234.7274                   20169233.1994
 -61221803.03546 -47684782.84943  24220692.3054                   24220692.7934
 -13877858.00448 -10795392.51445  21609064.5314                   21609064.0234
 -57202389.78948 -44553657.51646  21132434.6414                   21132431.4024
 -14914351.53148 -11602912.50646  21694684.4304                   21694685.8204
 11  8 21  1 42  0.0000000  0  9G12G29G26G10G05G04G30G02G25
 -38426176.34448 -29923783.57346  20803716.6724                   20803714.8524
   7477816.56347   5842765.95744  23425845.6254                   23425845.9804
  19244437.76646  15012358.61743  24612134.8284                   24612136.2114
 -42688468.50447 -33244456.19945  22392232.4534                   22392231.7934
 -36097312.84848 -28108891.28347  20149118.5164                   20149117.4144
 -61241827.54346 -47700386.41643  24216880.8834                   24216881.1884
 -13997699.71948 -10888775.62446  21586259.5004                   21586259.2234
 -57268999.65648 -44605561.29746  21119759.1954                   21119756.4694
 -15047904.49248 -11706979.70746  21669270.2664                   21669271.7384
 11  8 21  1 42 30.0000000  0  9G12G29G26G10G05G04G30G02G25
 -38493001.17648 -29975854.86946  20791000.0634                   20790998.9774
   7295550.46547   5700740.47044  23391160.9304                   23391161.9264
  19052922.78146  14863126.29342  24575690.8054                   24575691.8634
 -42697159.14547 -33251228.13044  22390578.4844                   22390578.6214
 -36202423.32448 -28190795.52947  20129116.7114                   20129115.4454
 -61261888.80146 -47716018.50843  24213063.6954                   24213063.3554
 -14116915.27348 -10981670.83046  21563573.1724                   21563572.6804
 -57335478.00848 -44657362.60946  21107109.0474                   21107105.9924
 -15180879.04748 -11810596.20546  21643966.0164                   21643967.3794
 11  8 21  1 43  0.0000000  0  9G12G29G26G10G05G04G30G02G25
 -36983832.12548 -28799878.96846  21078185.5784                   21078184.0594
   8688717.82047   6786325.51544  23656271.9144                   23656272.9454
  20436736.98446  15941423.25643  24839021.8754                   24839022.6524
 -41130082.15247 -32030129.15944  22688783.0864                   22688782.5554
 -34731511.18748 -27044630.20147  20409021.9454                   20409020.6334
 -59706565.48446 -46504078.32143  24509031.2584                   24509032.5514
 -12660079.48048  -9846474.08345  21840800.1724                   21840799.6684
 -55826402.36748 -43481459.50746  21394276.8364                   21394273.4144
 -13737848.90648 -10686157.08446  21918565.4144                   21918566.4454
 11  8 21  1 43 30.0000000  0  9G12G29G26G10G05G04G30G02G25
 -37049515.09848 -28851060.51746  21065686.5164                   21065684.9454
   8506467.68047   6644312.48545  23621591.4774   23621591.8754   20245030.65645
  15792041.83043                  24802540.0704                   24802542.2384
 -41138080.70346 -32036361.81644  22687261.5704                   22687260.5824
 -34835423.49248 -27125600.81647  20389248.2424                   20389247.0204
 -59726699.28146 -46519767.00043  24505200.0394                   24505201.0274
 -12778039.79748  -9938391.19746  21818353.2344                   21818352.4414
 -55892617.78148 -43533055.92746  21381676.1024                   21381673.0784
 -13869661.73848 -10788868.34146  21893482.2344                   21893483.3954
 11  8 21  1 44  0.0000000  0  9G12G29G26G10G05G04G30G02G25
 -37114628.19148 -28901797.96846  21053295.7974                   21053294.5234
   8324228.24247   6502307.79144  23586912.0084   23586912.2854   20053234.14145
  15642590.14643                  24766042.5864                   24766044.7344
 -41145736.54347 -32042327.43244  22685804.4384                   22685803.9654
 -34938736.10248 -27206104.12147  20369588.3204                   20369587.2194
 -59746868.89146 -46535483.58343  24501362.3444                   24501362.6564
 -12895370.97348 -10029818.07246  21796025.6414                   21796024.8244
 -55958701.59848 -43584549.79946  21369100.8984                   21369097.6214
 -14000891.16448 -10891124.99246  21868509.8984                   21868511.4184
 11  8 21  1 44 30.0000000  0  9G12G29G26G10G05G04G30G02G25
 -37179173.35548 -28952092.90546  21041013.3914                   21041012.0474
   8142000.71147   6360312.34144  23552235.0474   23552235.3794   19861349.78946
  15493070.01743                  24729528.7734                   24729530.3714
 -41153053.10247 -32048028.67044  22684412.4454                   22684411.3204
 -35041450.27048 -27286141.10947  20350042.7114                   20350041.4574
 -59767075.08246 -46551228.61343  24497517.5554                   24497517.9844
 -13012073.05948 -10120754.74646  21773817.7344                   21773817.3244
 -56024654.98448 -43635942.02746  21356550.1804                   21356547.0984
 -14131536.57048 -10992926.57946  21843649.0554                   21843650.4804
 11  8 21  1 45  0.0000000  0  9G12G29G26G10G05G04G30G02G25
 -37243149.43748 -29001944.38246  21028839.1414                   21028837.5394
   7959788.50447   6218328.87944  23517561.2194   23517561.6524   19669382.94546
  15343485.60743                  24692998.1254                   24693000.4224
 -41160030.83647 -32053465.87544  22683084.2734                   22683083.3094
 -35143563.76248 -27365710.04547  20330610.9924                   20330609.9104
 -59787315.50446 -46567000.34343  24493665.2734                   24493666.3754
 -13128143.44148 -10211199.20045  21751730.2734                   21751729.7774
 -56090475.95748 -43687231.08946  21344025.0164                   21344021.7664
 -14261594.58648 -11094270.47346  21818900.1024                   21818900.8794
 11  8 21  1 45 30.0000000  0  9G12G29G26G10G05G04G30G02G25
 -37306558.48848 -29051354.03846  21016772.9774                   21016771.3324
   7777592.02747   6076357.65344  23482890.3444   23482890.2304   19477336.04746
  15193838.83243                  24656452.8674                   24656454.9454
 -41166673.49647 -32058642.02944  22681820.3674                   22681820.2154
 -35245077.57848 -27444811.68847  20311293.4844                   20311292.2814
 -59807591.39546 -46582799.71543  24489807.0634                   24489807.8484
 -13243582.53548 -10301151.74146  21729762.9844                   21729762.6294
 -56156165.76248 -43738417.93646  21331524.5394                   21331521.3554
 -14391064.95748 -11195156.45346  21794262.5634                   21794263.4264
 11  8 21  1 46  0.0000000  0  9G12G29G26G10G05G04G30G02G25
 -37369402.26648 -29100323.20646  21004814.0084                   21004812.5984
   7595412.93847   5934399.98744  23448222.8204   23448222.3284   19285211.60946
  15044131.56743                  24619892.4384                   24619894.2154
 -41172983.71547 -32063559.08244  22680619.5944                   22680618.8914
 -35345992.37548 -27523446.56347  20292090.1334                   20292088.8594
 -59827902.82846 -46598626.79943  24485941.9224                   24485942.8714
 -13358390.07848 -10390612.16246  21707916.0004                   21707915.3204
 -56221725.08648 -43789503.10546  21319048.9844                   21319045.5664
 -14519946.69148 -11295583.75446  21769736.9614                   21769738.6174
 11  8 21  1 46 30.0000000  0  9G12G29G26G10G05G04G30G02G25
 -37431683.70348 -29148854.19146  20992962.0554                   20992961.0514
   7413250.96947   5792455.67044  23413558.6414   23413558.5864   19093011.59046
  14894365.43743                  24583317.7344                   24583319.0434
 -41178965.71147 -32068220.38344  22679481.0474                   22679480.4574
 -35446309.98448 -27601616.10247  20273000.1254                   20272998.8794
 -59848251.60946 -46614483.03543  24482069.6954                   24482071.1644
 -13472567.21148 -10479581.36646  21686188.6334                   21686188.1094
 -56287155.84848 -43840488.09646  21306598.0704                   21306594.6954
 -14648240.28548 -11395552.77146  21745323.5164                   21745324.9844
 11  8 21  1 47  0.0000000  0  9G12G29G26G10G05G04G30G02G25
 -37493405.44148 -29196949.04546  20981217.1094                   20981215.6994
   7231105.90647   5650524.54544  23378897.1564   23378897.0704   18900737.07046
  14744541.25943                  24546729.2584                   24546730.7194
 -41184624.16046 -32072629.61044  22678404.7664                   22678403.7504
 -35546032.55548 -27679321.95447  20254023.5554                   20254022.1684
 -59868639.36746 -46630369.60243  24478190.7194                   24478191.1804
 -13586115.41848 -10568060.48146  21664581.2814                   21664580.7774
 -56352460.09448 -43891374.51146  21294170.9614                   21294167.4774
 -14775946.42248 -11495064.03046  21721022.0784                   21721023.2344
 11  8 21  1 47 30.0000000  0  9G12G29G26G10G05G04G30G02G25
 -37554565.45348 -29244606.20146  20969578.8134                   20969576.8284
   7048983.25046   5508610.88444  23344240.0784   23344240.7384   18708395.42646
  14594664.84343                  24510128.0474                   24510129.8554
 -41189957.78547 -32076785.71844  22677389.3754                   22677389.0634
 -35645156.49648 -27756561.35147  20235160.8914                   20235159.1914
 -59889062.35947 -46646283.65543  24474303.4064                   24474304.2974
 -13699030.37948 -10656046.15746  21643094.3054                   21643093.7274
 -56417634.52048 -43942159.77346  21281768.6334                   21281765.3324
 -14903060.11747 -11594113.65246  21696832.9144                   21696834.3794
 11  8 21  1 48  0.0000000  0  9G12G29G26G10G05G04G30G02G25
 -37615166.30548 -29291827.63546  20958046.9304                   20958045.1914
   6866883.33647   5366714.95144  23309587.9614   23309588.2664   18515988.48446
  14444737.45043                  24473514.4304                   24473515.8484
 -41194970.41847 -32080691.69844  22676435.8444                   22676435.3594
 -35743683.39148 -27833335.52347  20216411.7734                   20216410.1994
 -59909521.73046 -46662225.99443  24470410.5704                   24470411.2704
 -13811313.05948 -10743539.15446  21621727.9304                   21621726.8554
 -56482680.74248 -43992845.13746  21269390.4844                   21269387.7114
 -15029581.53948 -11692701.76446  21672756.9844                   21672758.0594
 11  8 21  1 48 30.0000000  0  9G12G29G26G10G05G04G30G02G25
 -37675211.43048 -29338616.04046  20946620.3674                   20946619.2114
   6684805.20347   5224836.00344  23274939.5634   23274939.8364   18323517.03946
  14294759.81243                  24436888.4614                   24436889.2384
 -41199667.32846 -32084351.66144  22675541.8054                   22675541.6604
 -35841615.99648 -27909646.61347  20197776.1414                   20197774.9384
 -59930020.04746 -46678198.73643  24466509.8524                   24466511.4384
 -13922965.53548 -10830541.07946  21600481.0084                   21600480.1414
 -56547601.32047 -44043432.60346  21257036.9614                   21257033.7304
 -15155512.10948 -11790829.45646  21648793.0084                   21648794.0204
 11  8 21  1 49  0.0000000  0  9G12G29G26G10G05G04G30G02G25
 -37734703.28148 -29384973.32846  20935299.3674                   20935298.1764
   6502749.73447   5082974.68445  23240295.5784   23240295.5744   18130983.46147
  14144733.78143                  24400249.6174                   24400251.2584
 -41204052.05146 -32087768.34744  22674707.6724                   22674707.5234
 -35938955.60948 -27985495.63347  20179252.5004                   20179251.2774
 -59950558.04746 -46694202.40643  24462601.6174                   24462602.4574
 -14033988.41848 -10917052.40746  21579353.9774                   21579353.4924
 -56612397.37547 -44093923.03746  21244706.4774                   21244703.5664
 -15280851.62148 -11888496.59946  21624941.6884                   21624943.0234
 11  8 21  1 49 30.0000000  0  9G12G29G26G10G05G04G30G02G25
 -37793642.79348 -29430900.21946  20924083.4614                   20924082.5824
   6320719.18847   4941132.80745  23205656.3444   23205656.3284   17938391.50846
  13994662.25043                  24363600.9304                   24363602.6604
 -41208126.30546 -32090943.10744  22673932.2424                   22673932.1254
 -36035702.06247 -28060882.44647  20160842.3284                   20160840.9144
 -59971135.09846 -46710236.44943  24458685.8204                   24458686.9024
 -14144380.80548 -11003072.43946  21558346.7344                   21558346.5634
 -56677068.77348 -44144316.35746  21232399.8984                   21232396.6174
 -15405598.57448 -11985702.00546  21601203.1954                   21601204.4414
 11  8 21  1 50  0.0000000  0  9G12G29G26G10G05G04G30G02G25
 -37852031.98048 -29476398.27846  20912972.3754                   20912970.9454
   6138714.19946   4799310.82244  23171021.9064   23171021.8714   17745743.90246
  13844547.32343                  24326940.8674                   24326943.0044
 -41211893.81247 -32093878.84244  22673215.3054                   22673215.1484
 -36131856.46547 -28135807.93747  20142544.8524                   20142543.6294
 -59991751.97346 -46726301.57843  24454762.8914                   24454763.5164
 -14254143.10248 -11088601.46746  21537459.7894                   21537459.2234
 -56741616.50047 -44194613.29746  21220116.6564                   21220113.8364
 -15529752.56248 -12082445.36146  21577577.1954                   21577578.8594
 11  8 21  1 50 30.0000000  0  9G12G29G26G10G05G04G30G02G25
 -37909871.34448 -29521467.91046  20901965.8914                   20901964.8444
   5956737.23446   4657510.66345  23136392.5864   23136392.6764   17553044.64546
  13694392.19943                  24290271.4454                   24290272.6294
 -41215356.27747 -32096576.87644  22672556.0864                   22672556.4344
 -36227418.14147 -28210271.56747  20124360.1254                   20124358.5704
 -60012407.53146 -46742396.82843  24450832.1804                   24450832.9774
 -14363274.16448 -11173638.64346  21516693.0864                   21516692.1134
 -56806039.84047 -44244813.30446  21207857.7584                   21207854.2504
 -15653311.69148 -12178725.19646  21554064.6484                   21554066.0004
 11  8 21  1 51  0.0000000  0  9G12G29G26G10G05G04G30G02G25
 -36391743.24648 -28338510.94346  21190856.1094                   21190854.7704
   7350213.51247   5743336.40644  23401562.3444   23401562.1644   18935720.74246
  14771802.22543                  24553386.0084                   24553387.0234
 -39643099.21146 -30871441.50744  22971747.2194                   22971746.2774
 -34746967.82048 -27056673.88647  20406080.5164                   20406079.1134
 -58457684.09446 -45530923.96743  24746686.0944                   24746687.1764
 -12896353.14148 -10030583.27746  21795838.6174                   21795837.8834
 -55294919.84447 -43067317.20446  21495414.1804                   21495411.5124
 -14200853.89548 -11046939.87846  21830458.3914                   21830459.8054
 11  8 21  1 51 30.0000000  0  9G12G29G26G10G05G04G30G02G25
 -36448491.24248 -28382730.16046  21180057.5704                   21180056.1684
   7168294.05147   5601581.06645  23366944.4304   23366944.2734   18742924.44546
  14621571.50943                  24516697.6484                   24516699.0824
 -39645963.75846 -30873673.63744  22971201.4924                   22971201.2274
 -34841349.91048 -27130218.37547  20388120.0084                   20388118.7384
 -58478421.11746 -45547082.70143  24742740.4064                   24742741.1844
 -13004225.34048 -10114639.51546  21775311.2974                   21775310.3984
 -55359099.10548 -43117327.02446  21483201.2504                   21483198.1414
 -14323224.68748 -11142293.72646  21807172.2194                   21807173.3094
 11  8 21  1 52  0.0000000  0  9G12G29G26G10G05G04G30G02G25
 -36504697.60548 -28426527.32346  21169361.6644                   21169360.4924
   6986404.13347   5459848.71845  23332331.6564   23332331.1524   18550082.66846
  14471305.29443                  24480001.3054                   24480002.6454
 -39648534.57846 -30875676.87144  22970712.5394                   22970712.1174
 -34935144.78948 -27203305.27947  20370271.5234                   20370270.1254
 -58499200.50046 -45563274.52143  24738785.4144                   24738786.2504
 -13111469.63348 -10198206.46346  21754903.5164                   21754903.0474
 -55423158.44948 -43167243.39746  21471010.8834                   21471008.0354
 -14445001.71548 -11237184.90246  21783998.5084                   21783999.7464
 11  8 21  1 52 30.0000000  0  9G12G29G26G10G05G04G30G02G25
 -36560364.83248 -28469904.38646  21158768.5474                   21158767.2464
   6804544.25846   5318139.78445  23297724.6804   23297724.5354   18357197.75046
  14321005.46743                  24443296.2894                   24443297.4104
 -39650815.76646 -30877454.42144  22970278.1954                   22970277.7464
 -35028353.89548 -27275935.74347  20352534.3444                   20352533.1414
 -58520023.36346 -45579500.03743  24734823.7504                   24734823.4304
 -13218087.00848 -10281284.91046  21734614.6804                   21734614.1644
 -55487099.13747 -43217067.31446  21458843.7274                   21458840.5124
 -14566185.20748 -11331613.57746  21760938.0314                   21760938.8984
 11  8 21  1 53  0.0000000  0  9G12G29G26G10G05G04G30G02G25
 -36615496.61748 -28512864.20846  21148277.5474                   21148276.0004
   6622714.42646   5176454.24445  23263123.8834   23263123.5234   18164271.32046
  14170673.26743                  24406583.9534                   24406584.8554
 -39652811.66446 -30879009.69044  22969898.9774                   22969898.3834
 -35120979.59048 -27348111.59447  20334908.1024                   20334907.1684
 -58540891.17646 -45595760.70143  24730852.6174                   24730852.3754
 -13324079.14548 -10363876.15946  21714444.9384                   21714444.4734
 -55550923.40647 -43266800.51446  21446698.3674                   21446695.1454
 -14686776.07048 -11425580.46946  21737990.5234                   21737991.6484
 11  8 21  1 53 30.0000000  0  8G12G29G26G10G05G30G02G25
 -36670094.58248 -28555408.08446  21137887.8914                   21137886.2074
   6440915.52046   5034792.77945  23228528.6644   23228528.6804   17971305.95746
  14020310.85543                  24369863.6884                   24369865.3094
 -39654525.52346 -30880345.17744  22969572.0554                   22969572.3524
 -35213023.03548 -27419833.75447  20317393.1804                   20317391.9064
 -13429446.50048 -10445980.57346  21694394.1094                   21694393.4804
 -55614631.72348 -43316443.35246  21434574.7424                   21434571.7934
 -14806774.06648 -11519085.38046  21715155.5084                   21715156.8794
 11  8 21  1 54  0.0000000  0  8G12G29G26G10G05G30G02G25
 -36724155.49648 -28597533.46646  21127600.2274                   21127598.6804
   6259154.92246   4893161.16945  23193940.0784   23193940.8484   17778310.55546
  13869924.87043                  24333137.6804                   24333139.5204
 -39655954.57446 -30881458.75844  22969301.2274                   22969300.4884
 -35304479.66447 -27491098.64147  20299989.3834                   20299988.2734
 -13534183.66448 -10527593.92246  21674463.5864                   21674463.0864
 -55678219.19148 -43365992.02546  21422474.7584                   21422471.8794
 -14926172.91848 -11612123.43246  21692434.9064                   21692436.1484
 11  8 21  1 54 30.0000000  0  8G12G29G26G10G05G30G02G25
 -36777675.50448 -28639237.37246  21117416.0394                   21117414.5234
   6077439.46547   4751564.77245  23159361.1884   23159361.3244   17585293.64546
  13719522.20043                  24296407.0784                   24296409.3714
 -39657096.56646 -30882348.65044  22969083.8524                   22969083.6684
 -35395344.77348 -27561902.60347  20282698.3914                   20282697.1374
 -13638285.60948 -10608712.30246  21654653.8284                   21654652.9774
 -55741681.00848 -43415442.78346  21410398.5004                   21410395.5394
 -15044966.87548 -11704690.13046  21669828.7894                   21669830.0274
 11  8 21  1 55  0.0000000  0  8G12G29G26G10G05G30G02G25
 -36830651.05148 -28680517.02546  21107334.9774                   21107333.4614
   5895776.12946   4610008.95345  23124791.8984   23124791.8754   17392263.80546
  13569109.43443                  24259674.7504                   24259676.1254
 -39657948.62146 -30883012.58144  22968921.1884                   22968921.5004
 -35485613.80148 -27632242.08047  20265520.7894                   20265519.4144
 -13741747.06648 -10689331.60746  21634965.5234                   21634964.7234
 -55805011.66048 -43464791.32146  21398346.9774                   21398344.0434
 -15163149.93048 -11796780.80646  21647339.4064                   21647340.6454
 11  8 21  1 55 30.0000000  0  8G12G29G26G10G05G30G02G25
 -36883085.00048 -28721374.65746  21097356.7814                   21097355.6884
   5714165.00447   4468493.82645  23090232.1884   23090232.2704   17199222.91846
  13418688.14843                  24222940.2584                   24222941.1844
 -39658514.94546 -30883453.90144  22968814.0234                   22968813.7154
 -35575289.09448 -27702118.91047  20248456.0474                   20248454.8714
 -13844569.57048 -10769453.02346  21615399.0944                   21615398.1334
 -55868213.14548 -43514039.22246  21386320.2424                   21386316.5124
 -15280722.83248 -11888396.04946  21624965.9224                   21624967.6564
 11  8 21  1 56  0.0000000  0  8G12G29G26G10G05G30G02G25
 -36934982.37948 -28761814.17146  21087481.3914                   21087479.9264
   5532604.87147   4327018.45444  23055682.6174   23055682.3634   17006171.22746
  13268258.43743                  24186204.3594                   24186204.1884
 -39658801.54346 -30883677.20344  22968759.0474                   22968758.6414
 -35664374.25848 -27771535.89447  20231503.5784                   20231502.4774
 -13946756.43048 -10849079.13446  21595953.5084                   21595953.1334
 -55931288.77348 -43563189.05846  21374317.2584                   21374314.0704
 -15397688.15248 -11979537.84146  21602708.2034                   21602709.7544
 11  8 21  1 56 30.0000000  0  8G12G29G26G10G05G30G02G25
 -36986347.78148 -28801839.16946  21077706.6414                   21077705.1604
   5351094.42647   4185581.76645  23021141.7274   23021142.0164   16813109.27347
  13117820.73443                  24149465.8134                   24149466.0234
 -39658813.40647 -30883686.50044  22968756.6644                   22968756.1914
 -35752872.77048 -27840495.75447  20214663.1174                   20214661.6604
 -14048310.43448 -10928212.13046  21576628.5634                   21576628.1054
 -55994241.57848 -43612243.18246  21362337.7344                   21362334.7194
 -15514047.83648 -12070207.71346  21580565.7274                   21580567.1604
 11  8 21  1 57  0.0000000  0  8G12G29G26G10G05G30G02G25
 -37037180.29348 -28841448.92746  21068033.8674                   21068032.2504
   5169638.41847   4044187.51444  22986611.9924   22986612.1094   16620043.54347
  12967380.03243                  24112726.2274                   24112726.8244
 -39658550.63747 -30883481.77044  22968806.5944                   22968806.3444
 -35840782.69148 -27908996.97747  20197934.1334                   20197933.1094
 -14149229.09848 -11006850.05646  21557424.5234                   21557423.4884
 -56057068.84848 -43661199.48446  21350381.8834                   21350378.9064
 -15629798.57048 -12160403.09546  21558539.0234                   21558540.6454
 11  8 21  1 57 30.0000000  0  8G12G29G26G10G05G30G02G25
 -37087486.77048 -28880648.78246  21058460.7734                   21058459.1254
   4988233.23047   3902832.85545  22952091.7974   22952091.7194   16426971.45347
  12816934.31743                  24075985.6334                   24075986.0044
 -39658021.55147 -30883069.52344  22968907.7034                   22968906.7274
 -35928110.55148 -27977044.63047  20181316.0944                   20181315.0124
 -14249518.06248 -11084997.29746  21538339.8524                   21538339.3404
 -56119776.44548 -43710062.55046  21338448.6414                   21338445.7074
 -15744945.33248 -12250127.83846  21536627.4774                   21536628.5904
 11  8 21  1 58  0.0000000  0  8G12G29G26G10G05G30G02G25
 -37137271.07448 -28919441.75446  21048986.8984                   21048985.5314
   4806878.23047   3761517.31445  22917581.2274   22917581.0704   16233894.85947
  12666485.15844                  24039244.5944                   24039244.8914
 -39657230.40247 -30882453.07944  22969058.5394                   22969057.8524
 -36014859.02348 -28044640.82347  20164808.6334                   20164807.0514
 -14349179.46548 -11162655.54646  21519374.7274                   21519374.1804
 -56182366.33248 -43758833.88746  21326538.5394                   21326535.6914
 -15859489.46148 -12339383.01046  21514830.2894                   21514831.3404
 11  8 21  1 58 30.0000000  0  8G12G29G26G10G05G30G02G25
 -37186534.27748 -28957828.66846  21039612.4224                   21039611.0554
   4625576.66047   3620243.39445  22883080.8204   22883080.5664   16040818.14147
  12516035.91343                  24002503.1024                   24002503.8204
 -39656178.97347 -30881633.77144  22969258.2344                   22969257.9494
 -36101027.61348 -28111785.15447  20148411.3364                   20148409.7934
 -14448212.47748 -11239824.13546  21500529.4454                   21500529.0124
 -56244837.58248 -43807512.77446  21314651.1174                   21314647.5744
 -15973429.35548 -12428167.34146  21493148.4454                   21493149.7664
 11  8 21  1 59  0.0000000  0  8G12G29G26G10G05G30G02G25
 -35659854.29748 -27768207.91446  21330130.1724                   21330128.9384
   6019758.05147   4706618.54745  23148384.7274   23148384.1334   17423173.03147
  13593195.71643                  24265556.4384                   24265556.8874
 -38079448.12547 -29653012.30844  23269300.3914                   23269299.5084
 -34611192.62148 -26950874.75047  20431917.3444                   20431915.9574
 -12971192.28948 -10088899.32346  21781597.1024                   21781596.0904
 -54731766.39547 -42628496.25546  21602578.5004                   21602575.5514
 -14511338.80148 -11288876.00646  21771374.6254                   21771376.3754
 11  8 21  1 59 30.0000000  0  8G12G29G26G10G05G30G02G25
 -35708076.83248 -27805783.92446  21320953.7814                   21320952.3484
   5838571.34047   4565434.16045  23113906.0314   23113905.9614   17230109.40247
  13442756.63143                  24228817.9304                   24228817.6994
 -38077880.95347 -29651791.12144  23269598.5084                   23269598.3634
 -34696201.38348 -27017115.31347  20415740.6884                   20415739.1914
 -13068966.51648 -10165087.04746  21762991.1484                   21762990.6844
 -54793997.85948 -42676988.30546  21590736.0944                   21590733.2274
 -14624065.73448 -11376715.18146  21749923.6414                   21749924.9454
 11  8 21  2  0  0.0000000  0  8G12G29G26G10G05G30G02G25
 -35755783.82448 -27842958.20846  21311875.4384                   21311873.6954
   5657443.34847   4424295.50745  23079438.3594   23079438.2664   17037055.50447
  13292325.12843                  24192080.6414                   24192080.6844
 -38076061.40647 -29650373.30444  23269944.2584                   23269943.8164
 -34780633.43048 -27082906.51947  20399673.7734                   20399672.6174
 -13166113.54748 -10240786.04146  21744504.8134                   21744504.2974
 -54856111.68448 -42725388.67946  21578916.6254                   21578913.2424
 -14736187.20748 -11464082.57346  21728587.6804                   21728589.0514
 11  8 21  2  0 30.0000000  0  8G12G29G26G10G05G30G02G25
 -35802978.82048 -27879733.53546  21302894.6884                   21302893.0744
   5476373.89547   4283202.47745  23044981.7194   23044981.7384   16844013.49647
  13141902.92443                  24155345.8444                   24155346.3284
 -38073994.19947 -29648762.54243  23270338.2274                   23270337.2774
 -34864491.23448 -27148250.22747  20383716.4614                   20383715.1254
 -13262635.50848 -10315997.96346  21726137.1484                   21726136.5554
 -54918109.43448 -42773698.61246  21567118.9144                   21567115.8204
 -14847704.58248 -11550979.21246  21707366.6564                   21707367.9574
 11  8 21  2  1  0.0000000  0  8G12G29G26G10G05G30G02G25
 -35849663.77748 -27916111.43246  21294011.1024                   21294009.0944
   5295364.51647   4142156.26645  23010536.7034   23010536.6094   16650986.26247
  12991492.24044                  24118613.9454                   24118614.2194
 -38071681.83247 -29646960.72744  23270778.5474                   23270777.2114
 -34947776.07048 -27213147.48447  20367867.5234                   20367866.2344
 -13358533.00048 -10390723.28246  21707888.6884                   21707888.2074
 -54979991.73048 -42821918.59046  21555343.1484                   21555339.6844
 -14958617.63748 -11637404.97946  21686260.6954                   21686261.8444
 11  8 21  2  1 30.0000000  0  8G12G29G26G10G05G30G02G25
 -35895842.65248 -27952094.98146  21285223.3134                   21285221.4104
   5114415.40247   4001157.02145  22976103.1254   22976103.1174   16457975.70346
  12841094.47744                  24081884.4384                   24081885.8714
 -38069128.82047 -29644971.36744  23271264.2424                   23271263.7734
 -35030490.67648 -27277600.41047  20352127.5474                   20352126.2034
 -13453808.20748 -10464963.70446  21689758.4144                   21689758.1644
 -55041760.12948 -42870049.80346  21543588.7504                   21543585.4734
 -15068927.81248 -11723360.95846  21665269.0864                   21665270.4104
 11  8 21  2  2  0.0000000  0  8G12G29G26G10G05G30G02G25
 -35941519.80548 -27987687.57546  21276531.2424                   21276529.4964
   4933525.85247   3860204.18145  22941681.0864   22941680.8954   16264982.68446
  12690710.44843                  24045158.8204                   24045160.0984
 -38066340.14547 -29642798.36544  23271794.7584                   23271794.2384
 -35112638.45748 -27341611.65147  20336495.2274                   20336493.9654
 -13548464.06248 -10538721.52446  21671745.9774                   21671745.4924
 -55103417.35248 -42918094.39246  21531855.7274                   21531852.4964
 -15178637.19548 -11808848.76746  21644392.2894                   21644393.1214
 11  8 21  2  2 30.0000000  0  8G12G29G26G10G05G30G02G25
 -35986695.07848 -28022889.08346  21267934.7584                   21267933.1764
   4752699.64847   3719300.69245  22907271.0554   22907270.9184   16072012.64146
  12540344.33043                  24008437.9534                   24008439.0084
 -38063316.91047 -29640442.60444  23272370.3594                   23272369.7154
 -35194218.75448 -27405180.69947  20320970.9844                   20320969.7544
 -13642499.28948 -10611995.70546  21653851.6804                   21653850.8324
 -55164961.82048 -42966051.11946  21520144.3524                   21520140.9734
 -15287743.66048 -11893866.77346  21623629.7894                   21623631.2074
 11  8 21  2  3  0.0000000  0  8G12G29G26G10G05G30G02G25
 -36031372.74248 -28057702.86146  21259432.4384                   21259430.9734
   4571936.23447   3578446.16545  22872872.7344   22872872.4144   15879067.01646
  12389997.17843                  23971721.8914                   23971722.0904
 -38060063.85947 -29637907.73344  23272989.1174                   23272988.1844
 -35275234.78148 -27468310.05547  20305554.1254                   20305552.9224
 -13735916.44147 -10684788.28346  21636075.3054                   21636074.4454
 -55226395.66847 -43013921.63946  21508454.0474                   21508450.0164
 -15396249.09048 -11978416.42346  21602981.7894                   21602983.3324
 11  8 21  2  3 30.0000000  0  8G12G29G26G10G05G30G02G25
 -36075552.41448 -28092128.58946  21251025.4304                   21251024.0784
   4391240.19947   3437644.13645  22838487.3134   22838487.1954   15686151.64546
  12239673.64443                  23935011.4924                   23935011.1844
 -38056580.97347 -29635193.79344  23273651.8914                   23273651.3324
 -35355684.96548 -27530998.48847  20290245.3134                   20290243.4804
 -13828713.62547 -10757097.76246  21618416.1884                   21618415.6214
 -55287716.46947 -43061704.07946  21496784.9534                   21496781.5354
 -15504150.68748 -12062495.56846  21582448.8364                   21582450.1994
 11  8 21  2  4  0.0000000  0  8G12G29G26G10G05G30G02G25
 -36119232.90648 -28126165.34346  21242713.1884                   21242712.1334
   4210616.76247   3296898.67445  22804115.7814   22804115.8094   15493273.20346
  12089378.86843                  23898307.6414                   23898307.6564
 -38052867.81247 -29632300.42344  23274358.2274                   23274357.6134
 -35435567.26248 -27593244.41347  20275044.1174                   20275042.6094
 -13920888.30547 -10828922.16646  21600875.8754                   21600875.3284
 -55348921.40648 -43109396.24446  21485137.8284                   21485134.8594
 -15611445.17648 -12146101.63546  21562031.4844                   21562032.9384
 11  8 21  2  4 30.0000000  0  8G12G29G26G10G05G30G02G25
 -36162421.03948 -28159818.44946  21234495.1094                   21234493.7774
   4030062.23047   3156206.90245  22769757.9534   22769757.1844   15300430.16046
  11939111.66443                  23861610.2664                   23861610.9184
 -38048931.52747 -29629233.22544  23275107.3914                   23275107.1094
 -35514887.67648 -27655052.51947  20259949.7974                   20259948.3524
 -14012446.10548 -10900265.88846  21583453.4224                   21583452.4884
 -55410015.65648 -43157002.15246  21473512.0634                   21473508.8444
 -15718137.31648 -12229238.33546  21541728.6954                   21541730.0044
 11  8 21  2  5  0.0000000  0  8G12G29G26G10G05G30G02G25
 -36205116.89548 -28193087.94346  21226370.3594                   21226368.6374
   3849580.85947   3015572.15545  22735412.7504   22735412.4734   15107628.39546
  11788876.61343                  23824921.7424                   23824921.4924
 -38044772.84047 -29625992.72844  23275898.5234                   23275898.1294
 -35593645.48048 -27716422.21747  20244962.4304                   20244960.9454
 -14103385.48448 -10971127.71046  21566148.0784                   21566147.0514
 -55470996.91448 -43204520.01446  21461907.9924                   21461904.3914
 -15824224.74248 -12311903.82146  21521540.7344                   21521542.1764
 11  8 21  2  5 30.0000000  0  8G12G29G26G10G05G30G02G25
 -36247324.33648 -28225976.86646  21218338.5314                   21218337.0044
   3669173.00847   2874994.69245  22701082.9304   22701081.5904   14914869.60546
  11638675.04643                  23788240.3204                   23788240.7464
 -38040396.18747 -29622582.37344  23276731.6094                   23276731.6484
 -35671843.28548 -27777355.55647  20230081.8834                   20230080.6684
 -14193708.72347 -11041509.43246  21548959.7584                   21548959.4804
 -55531866.98047 -43251951.23046  21450324.5234                   21450321.2034
 -15929709.01648 -12394099.31946  21501467.6724                   21501468.7664
 11  8 21  2  6  0.0000000  0  8G12G29G26G10G05G30G02G25
 -36289047.67648 -28258488.57646  21210398.6334                   21210397.3444
   3488838.23047   2734474.16645  22666765.7974   22666765.0234   14722154.97746
  11488507.87943                  23751568.0784                   23751568.3244
 -38035806.60246 -29619006.09943  23277604.4304                   23277604.3594
 -35749484.50848 -27837855.20347  20215307.5314                   20215305.7194
 -14283418.99648 -11111413.50846  21531888.2034                   21531887.9414
 -55592628.40648 -43299297.79346  21438761.8204                   21438758.8954
 -16034592.42248 -12475826.61346  21481508.9144                   21481510.3794
 11  8 21  2  6 30.0000000  0  8G12G29G26G10G05G30G02G25
 -36330288.65648 -28290624.41946  21202550.8594                   21202549.6604
   3308578.78547   2594012.34445  22632463.6254   22632462.4144   14529488.46146
  11338378.22143                  23714905.3054                   23714905.1524
 -38031006.20346 -29615265.54543  23278518.4454                   23278518.0354
 -35826570.20348 -27897921.96247  20200638.1644                   20200636.7154
 -14372516.52048 -11180840.11946  21514933.9534                   21514933.1954
 -55653280.88748 -43346559.47946  21427220.1094                   21427217.1414
 -16138874.46948 -12557085.31646  21461664.9534                   21461666.4884
 11  8 21  2  7  0.0000000  0  8G12G29G26G10G05G30G02G25
 -34795625.91848 -27094783.31846  21494587.3984                   21494586.1294
   4703824.37147   3681216.77745  22897969.8984   22897968.8524   15912302.00046
  12415895.30843                  23978046.0554                   23978045.9144
 -36450575.40247 -28383761.07044  23579264.4304                   23579263.6684
 -34327677.14548 -26729953.32647  20485867.9384                   20485866.8484
 -12885577.08248 -10022185.98646  21797888.8834                   21797888.1134
 -54138400.30548 -42166133.03646  21715492.2894                   21715489.0944
 -14667129.57048 -11410271.08146  21741728.5164                   21741730.2344
 11  8 21  2  7 30.0000000  0  8G12G29G26G10G05G30G02G25
 -34835908.76248 -27126172.56446  21486921.9614                   21486920.4694
   4523720.81347   3540876.42045  22863697.3524   22863696.9024   15719741.93846
  12265848.60443                  23941402.3594                   23941403.2664
 -36445361.26647 -28379698.08044  23580257.0704                   23580255.8834
 -34403655.98448 -26789157.60647  20471409.8754                   20471408.4144
 -12973451.95748 -10090659.89246  21781166.9614                   21781166.0354
 -54198835.44948 -42213225.34546  21703992.1024                   21703988.7894
 -14770209.20348 -11490592.85546  21722113.0704                   21722114.8484
 11  8 21  2  8  0.0000000  0  8G12G29G26G10G05G30G02G25
 -34875713.48848 -27157189.24346  21479347.0084                   21479345.7584
   4343700.62547   3400601.02545  22829440.0234   22829439.9654   15527243.07847
  12115849.55044                  23904771.2034                   23904771.2344
 -36439941.82847 -28375475.15944  23581288.5474                   23581287.2074
 -34479080.81648 -26847930.17647  20457057.3444                   20457055.4264
 -13060714.16448 -10158656.40646  21764561.2504                   21764560.6134
 -54259159.24648 -42260230.90846  21692512.6954                   21692509.5554
 -14872685.09048 -11570444.15646  21702612.8054                   21702614.0474
 11  8 21  2  8 30.0000000  0  8G12G29G26G10G05G30G02G25
 -34915043.05148 -27187835.67046  21471863.1334                   21471862.0744
   4163765.01247   3260391.53045  22795199.7664   22795199.5634   15334808.26246
  11965900.45043                  23868151.8984                   23868152.4024
 -36434320.58647 -28371094.98344  23582357.9454                   23582357.2194
 -34553953.27348 -26906272.33947  20442809.0474                   20442807.8954
 -13147365.15248 -10226176.63946  21748072.3444                   21748071.5204
 -54319372.49248 -42307150.32246  21681054.8284                   21681051.4694
 -14974557.89548 -11649825.54846  21683226.8524                   21683227.9884
 11  8 21  2  9  0.0000000  0  8G12G29G26G10G05G30G02G25
 -34953900.72748 -27218114.37946  21464468.5944                   21464467.2704
   3983914.24647   3120248.15245  22760975.4454   22760975.1604   15142439.58246
  11816002.90143                  23831545.8054                   23831545.6294
 -36428501.41847 -28366560.55944  23583465.6804                   23583464.8364
 -34628276.57048 -26964186.58347  20428666.4454                   20428664.4694
 -13233407.40648 -10293222.52646  21731698.9614                   21731698.4384
 -54379477.15648 -42353985.13646  21669617.0234                   21669613.7854
 -15075829.27748 -11728738.30146  21663955.4924                   21663956.6684
 11  8 21  2  9 30.0000000  0  8G12G29G26G10G05G30G02G25
 -34992290.41848 -27248028.43946  21457163.4384                   21457161.8324
   3804149.14847   2980171.52345  22726767.2664   22726766.6884   14950139.04746
  11666158.37743                  23794951.8204                   23794951.2344
 -36422488.21947 -28361874.97943  23584609.9144                   23584609.0354
 -34702053.12148 -27021674.78147  20414626.5634                   20414625.2304
 -13318843.21948 -10359795.87846  21715440.9384                   21715440.5274
 -54439474.26648 -42400736.14146  21658200.0314                   21658196.6764
 -15176500.65648 -11807183.51146  21644798.4614                   21644799.5084
 11  8 21  2 10  0.0000000  0  8G12G29G26G10G05G30G02G25
 -35030212.95748 -27277578.48846  21449946.9774                   21449945.5554
   3624473.15647   2840164.31745  22692575.8134   22692575.3554   14757911.76646
  11516370.98243                  23758371.8754                   23758371.7074
 -36416281.96147 -28357038.92344  23585790.6414                   23585790.0204
 -34775283.08248 -27078737.07647  20400691.5394                   20400690.0904
 -13403672.13748 -10425896.32946  21699298.7664                   21699298.1294
 -54499362.71948 -42447402.48246  21646803.3594                   21646800.1684
 -15276570.82048 -11885160.25546  21625755.8284                   21625756.8054
 11  8 21  2 10 30.0000000  0  9G12G29G26G10G05G15G30G02G25
 -35067675.98448 -27306770.44746  21442817.8054                   21442816.6054
   3444882.52747   2700223.62545  22658400.8204   22658400.6844   14565755.82046
  11366639.19543                  23721805.4144                   23721806.0864
 -36409890.88347 -28352058.87344  23587006.9924                   23587005.8364
 -34847973.23448 -27135378.75647  20386859.2114                   20386857.8674
  26503984.32055  20669155.62552  24625355.2344                   24625355.4104
 -13487900.67248 -10491528.95046  21683270.4384                   21683269.8554
 -54559148.08648 -42493988.49146  21635426.8984                   21635423.6684
 -15376045.43048 -11962672.93246  21606826.3674                   21606827.5314
 11  8 21  2 11  0.0000000  0  9G12G29G26G10G05G15G30G02G25
 -35104692.17248 -27335614.24446  21435774.3914                   21435772.7544
   3265369.50447   2560343.40445  22624240.3984   22624240.1094   14373664.63346
  11216957.84844                  23685251.5004                   23685252.8524
 -36403327.38347 -28346944.48944  23588256.0234                   23588254.9144
 -34920135.12548 -27191608.78147  20373127.2664                   20373125.6254
  26313410.64145  20520656.86843  24589090.3674                   24589090.3054
 -13571539.81248 -10556702.29046  21667354.5634                   21667353.8914
 -54618840.40248 -42540501.98346  21624068.1334                   21624064.6294
 -15474934.73848 -12039729.52946  21588008.3524                   21588009.4614
 11  8 21  2 11 30.0000000  0  9G12G29G26G10G05G15G30G02G25
 -35141268.00847 -27364114.88946  21428813.9534                   21428812.2304
   3085930.69147   2420520.98445  22590094.7894   22590094.0434   14181637.09446
  11067326.08944                  23648710.5634                   23648711.0394
 -36396599.16047 -28341701.71544  23589535.9064                   23589535.5634
 -34991775.00048 -27247432.06047  20359494.6884                   20359493.2624
  26122710.09546  20372059.29743  24552800.8134                   24552802.7504
 -13654595.31248 -10621420.87346  21651549.6644                   21651549.3954
 -54678444.52048 -42586946.77146  21612725.5314                   21612722.5664
 -15573243.70348 -12116333.91046  21569300.9454                   21569301.9534
 11  8 21  2 12  0.0000000  0  9G12G29G26G10G05G15G30G02G25
 -35177400.50047 -27392270.09346  21421937.9064                   21421936.9344
   2906574.23447   2280762.75345  22555963.8674   22555963.2854   13989682.73046
  10917751.33344                  23612182.4534                   23612183.3244
 -36389702.90246 -28336328.05743  23590848.0474                   23590847.9964
 -35062888.16048 -27302844.89247  20345962.1024                   20345960.6804
  25931891.23846  20223369.38343  24516488.7734                   24516490.7624
 -13737062.32448 -10685680.87045  21635856.3984                   21635856.0824
 -54737954.35248 -42633318.08346  21601401.5084                   21601397.9494
 -15670966.56248 -12192481.58746  21550704.7194                   21550705.9694
 11  8 21  2 12 30.0000000  0  9G12G29G26G10G05G15G30G02G25
 -35213092.08247 -27420081.72646  21415146.1094                   21415145.1294
   2727301.71547   2141069.92545  22521849.3674   22521849.1054   13797804.92246
  10768236.24944                  23575670.0554                   23575669.9884
 -36382641.30946 -28330825.55144  23592191.5864                   23592192.1454
 -35133476.55148 -27357848.83247  20332529.6254                   20332528.2704
  25740956.30946  20074589.13143  24480154.9454                   24480156.7074
 -13818942.32048 -10749483.46246  21620275.5864                   21620274.8794
 -54797370.13748 -42679616.09046  21590094.7894                   21590091.6374
 -15768104.05548 -12268173.14246  21532220.1024                   21532221.2194
 11  8 21  2 13  0.0000000  0  9G12G29G26G10G05G15G30G02G25
 -35248342.61747 -27447549.67646  21408438.3594                   21408437.0434
   2548117.38747   2001445.80845  22487751.6724   22487751.8984   13606009.18447
  10618785.06144                  23539172.2034                   23539172.2504
 -36375415.00046 -28325194.68544  23593567.6254                   23593566.6294
 -35203539.34848 -27412443.21147  20319197.2504                   20319195.3674
  25549910.34846  19925722.31743  24443799.9774                   24443801.0634
 -13900234.28948 -10812827.85646  21604805.9774                   21604805.2894
 -54856690.36348 -42725839.65846  21578806.6024                   21578803.4574
 -15864654.30548 -12343407.10846  21513846.9614                   21513848.0664
 11  8 21  2 13 30.0000000  0  9G12G29G26G10G05G15G30G02G25
 -35283155.65647 -27474676.71746  21401813.4534                   21401812.3594
   2369022.85947   1861891.64745  22453671.3674   22453670.5744   13414298.70347
  10469400.39644                  23502690.8284                   23502690.8134
 -36368026.93746 -28319437.76043  23594973.3914                   23594972.9064
 -35273078.66048 -27466629.68347  20305964.1334                   20305962.8164
  25358755.18846  19776770.41643  24407424.7734                   24407425.8594
 -13980939.91848 -10875715.35246  21589448.0234                   21589447.7624
 -54915915.51248 -42771989.14746  21567536.4304                   21567532.9804
 -15960618.24248 -12418184.20146  21495585.7894                   21495586.9964
 11  8 21  2 14  0.0000000  0  9G12G29G26G10G05G15G30G02G25
 -35317532.98447 -27501464.25746  21395271.9454                   21395270.7894
   2190020.10247   1722409.02045  22419608.0864   22419607.0204   13222677.23047
  10320085.03944                  23466226.4774                   23466226.0594
 -36360479.62546 -28313556.78643  23596409.4694                   23596408.4884
 -35342096.25048 -27520409.62247  20292830.6884                   20292829.1764
  25167493.46146  19627735.47544  24371028.3524                   24371029.6684
 -14061060.36348 -10938146.88946  21574201.9454                   21574201.4344
 -54975045.07848 -42818064.14746  21556284.1334                   21556281.4844
 -16055996.17248 -12492504.66446  21477435.8204                   21477437.1564
 11  8 21  2 14 30.0000000  0  9G12G29G26G10G05G15G30G02G25
 -35351476.43447 -27527913.69946  21388812.5944                   21388811.2664
   2011111.74647   1582999.95545  22385562.9064   22385562.1724   13031149.31347
  10170842.60944                  23429779.3444                   23429779.3834
 -36352774.76646 -28307553.06643  23597875.6564                   23597874.7974
 -35410592.59848 -27573783.38847  20279796.4144                   20279794.4844
  24976128.96147  19478620.40244  24334613.0864                   24334614.6094
 -14140595.79348 -11000122.53946  21559066.5784                   21559066.0084
 -55034078.43448 -42864064.16646  21545050.5704                   21545047.5594
 -16150787.46548 -12566368.02046  21459397.8134                   21459398.8524
 11  8 21  2 15  0.0000000  0  9G12G29G26G10G05G15G30G02G25
 -33809566.61747 -26326425.52846  21682228.2894                   21682227.2734
   3407726.27047   2671271.04345  22651330.2194   22651329.2424   14415145.38747
  11249281.17244                  23693145.1254                   23693145.3634
 -34769494.68747 -27073828.32243  23899163.7274                   23899162.7624
 -33903146.85948 -26399150.34247  20566653.8134                   20566652.0084
  26360091.25447  20557032.71844  24597972.2894                   24597973.5474
 -12644124.34448  -9834040.89646  21843835.5944                   21843835.0904
 -53517592.77048 -41682387.03746  21833628.3054                   21833625.5004
 -14669568.95348 -11412171.78746  21741264.5164                   21741265.7774
 11  8 21  2 15 30.0000000  0  9G12G29G26G10G05G15G30G02G25
 -33842647.45348 -26352202.81146  21675933.0314                   21675931.8324
   3229015.30947   2532015.78245  22617322.3204   22617321.9064   14223817.58647
  11100194.68744                  23656736.6094                   23656737.0474
 -34761480.05547 -27067583.17043  23900688.7664                   23900688.2544
 -33970603.51648 -26451713.96747  20553817.0784                   20553815.2074
  26168531.22746  20407765.32344  24561520.1174                   24561520.5984
 -12722491.28948  -9895106.06246  21828922.9534                   21828922.0784
 -53576431.13748 -41728235.11946  21822431.7664                   21822428.4104
 -14763186.18048 -11485120.27846  21723449.6024                   21723450.5664
 11  8 21  2 16  0.0000000  0  9G12G29G26G10G05G15G30G02G25
 -33875300.00847 -26377646.36046  21669719.4224                   21669718.1214
   3050406.71147   2392840.29845  22583334.2974   22583333.4804   14032595.86747
  10951190.84244                  23620348.8754                   23620348.6414
 -34753313.82847 -27061219.85343  23902242.5314                   23902242.4924
 -34037541.84448 -26503873.68747  20541079.2734                   20541077.6644
  25976878.10246  20258425.37643  24525048.7424                   24525049.0204
 -12800275.30548  -9955716.96946  21814121.2274                   21814120.2774
 -53635171.79748 -41774007.05645  21811253.6564                   21811250.1914
 -14856216.43448 -11557611.38246  21705746.5704                   21705748.0354
 11  8 21  2 16 30.0000000  0  9G12G29G26G10G05G15G30G02G25
 -33907523.02748 -26402755.22146  21663587.8674                   21663586.8404
   2871905.78147   2253748.70845  22549366.3204   22549366.0864   13841487.06347
  10802274.97744                  23583981.8204                   23583981.6994
 -34744994.96547 -27054737.66743  23903826.4614                   23903824.8014
 -34103960.50448 -26555628.48047  20528439.8204                   20528438.4924
  25785137.89846  20109017.62043  24488562.1334                   24488562.2194
 -12877474.52048 -10015872.20746  21799430.8364                   21799430.0514
 -53693811.03948 -41819699.96645  21800095.1644                   21800092.0514
 -14948656.96548 -11629642.97646  21688155.6024                   21688157.2114
 11  8 21  2 17  0.0000000  0  9G12G29G26G10G05G15G30G02G25
 -33939321.11348 -26427532.96046  21657537.1094                   21657535.6764
   2693512.49647   2114741.00745  22515419.3284   22515418.8524   13650492.97747
  10653448.52344                  23547636.2734                   23547636.4924
 -34736528.37947 -27048140.29943  23905437.6804                   23905435.8524
 -34169862.93748 -26606981.01547  20515899.2814                   20515897.4384
  25593311.14146  19959542.39243  24452058.1564                   24452058.0824
 -12954092.17648 -10075574.28646  21784851.0474                   21784850.3984
 -53752351.18048 -41865315.65246  21788955.3984                   21788952.0784
 -15040510.40248 -11701217.08746  21670676.8674                   21670677.6454
 11  8 21  2 17 30.0000000  0  9G12G29G26G10G05G15G30G02G25
 -33970695.65648 -26451980.66846  21651566.1884                   21651565.1374
   2515230.53147   1975820.04345  22481493.4144   22481493.2344   13459618.74647
  10504715.44544                  23511314.2814                   23511314.5664
 -34727914.91447 -27041428.58243  23907076.3284                   23907075.3524
 -34235249.39148 -26657931.48847  20503456.6884                   20503454.9694
  25401402.74246  19810003.56243  24415539.1724                   24415539.3244
 -13030128.09848 -10134823.04046  21770381.6644                   21770381.1174
 -53810790.38348 -41910852.67746  21777834.6484                   21777831.3834
 -15131775.65648 -11772332.85946  21653309.4454                   21653310.3404
 11  8 21  2 18  0.0000000  0  9G12G29G26G10G05G15G30G02G25
 -34001650.25848 -26476101.14546  21645676.3204                   21645674.8524
   2337060.83247   1836986.56045  22447588.6884   22447588.2074   13268866.90647
  10356077.70943                  23475015.0314                   23475014.5554
 -34719158.01646 -27034605.01343  23908742.5004                   23908741.9964
 -34300122.17648 -26708481.69347  20491111.6414                   20491110.0554
  25209413.60246  19660401.75143  24379004.7974                   24379004.6994
 -13105584.66848 -10193620.38446  21756023.1804                   21756022.2934
 -53869129.82848 -41956311.98645  21766732.9774                   21766729.8834
 -15222454.32448 -11842991.55946  21636054.0164                   21636054.9774
 11  8 21  2 18 30.0000000  0  9G12G29G26G10G05G15G30G02G25
 -34032189.23847 -26499897.76346  21639864.8054                   21639863.3134
   2159003.51647   1698240.62545  22413705.6564   22413705.1764   13078239.18447
  10207536.71844                  23438739.9694                   23438739.8204
 -34710262.16846 -27027673.28443  23910435.1644                   23910434.8484
 -34364485.24248 -26758634.72647  20478863.9384                   20478862.4884
  25017344.48046  19510737.69543  24342454.6724                   24342454.1294
 -13180465.37548 -10251968.99145  21741773.3204                   21741772.9304
 -53927371.33647 -42001694.97245  21755649.8754                   21755646.8204
 -15312549.16048 -11913195.34146  21618909.6024                   21618910.5664
 11  8 21  2 19  0.0000000  0  9G12G29G26G10G05G15G30G02G25
 -34062312.73447 -26523370.63446  21634132.4844                   21634131.2704
   1981062.82847   1559585.61045  22379844.5634   22379844.3284   12887741.25047
  10059096.90144                  23402489.0474                   23402489.0784
 -34701227.68446 -27020633.37743  23912154.3984                   23912154.0984
 -34428338.49648 -26808390.49747  20466712.8594                   20466711.5044
  24825200.20746  19361015.05643  24305891.1414                   24305890.1054
 -13254769.63748 -10309868.41646  21727633.9224                   21727633.2234
 -53985512.97347 -42047000.14246  21744586.0944                   21744582.4344
 -15402058.66447 -11982943.00246  21601876.2894                   21601877.5984
 11  8 21  2 19 30.0000000  0  9G12G29G26G10G05G15G30G02G25
 -34092022.92647 -26546521.42946  21628478.7664                   21628477.2074
   1803241.19947   1421023.33745  22346006.6024   22346005.6454   12697377.40247
   9910761.48443                  23366263.8594                   23366263.3914
 -34692056.91046 -27013487.30043  23913899.9384                   23913898.8794
 -34491683.05148 -26857749.87547  20454658.8594                   20454657.1914
  24632984.35946  19211236.68343  24269313.8284                   24269313.8014
 -13328498.35248 -10367319.36345  21713603.6414                   21713603.3404
 -54043554.17247 -42092227.04346  21733541.2114                   21733538.1094
 -15490982.97748 -12052234.67246  21584954.4144                   21584955.8834
 11  8 21  2 20  0.0000000  0  9G12G29G26G10G05G15G30G02G25
 -34121325.35547 -26569354.52146  21622902.7114                   21622901.4414
   1625538.03947   1282553.38145  22312190.5084   22312189.9024   12507148.77347
   9762531.45744                  23330064.5944                   23330064.3364
 -34682754.66446 -27006238.87143  23915670.0784                   23915669.3134
 -34554523.02348 -26906716.07147  20442700.7424                   20442699.3324
  24440696.96946  19061402.53943  24232722.3204                   24232722.5594
 -13401655.53548 -10424324.98246  21699682.4454                   21699682.0594
 -54101497.37947 -42137377.59546  21722514.5004                   21722511.4534
 -15579325.30548 -12121072.86346  21568143.5704                   21568144.9774
 11  8 21  2 20 30.0000000  0  9G12G29G26G10G05G15G30G02G25
 -34150218.43447 -26591868.61046  21617404.7194                   21617403.3524
   1447959.43447   1144180.46445  22278398.2274   22278397.8094   12317062.73447
   9614412.53244                  23293891.8914                   23293892.7974
 -34673319.84047 -26998887.05543  23917465.3914                   23917465.3404
 -34616856.54348 -26955287.63347  20430839.0784                   20430837.4614
  24248344.59046  18911517.76044  24196118.5004                   24196119.3054
 -13474238.89848 -10480883.43746  21685870.1804                   21685869.5394
 -54159338.71947 -42182448.75246  21711508.1804                   21711504.9104
 -15667082.64848 -12189455.20046  21551444.1094                   21551445.2074
 11  8 21  2 21  0.0000000  0  9G12G29G26G10G05G15G30G02G25
 -34178706.93747 -26614067.46146  21611983.4534                   21611982.0084
   1270505.54347   1005904.77245  22244630.0634   22244629.3674   12127121.16447
   9466406.14644                  23257747.5784                   23257747.9884
 -34663756.71947 -26991435.32643  23919284.8834                   23919284.5704
 -34678687.21548 -27003467.36147  20419073.2504                   20419071.6334
  24055927.92246  18761582.88844  24159502.9924                   24159503.5204
 -13546252.06648 -10536997.60246  21672166.7344                   21672165.8834
 -54217080.05947 -42227441.99045  21700520.2504                   21700517.2814
 -15754257.78548 -12257383.87046  21534854.7974                   21534855.9654
 11  8 21  2 21 30.0000000  0  9G12G29G26G10G05G15G30G02G25
 -34206793.35947 -26635952.99646  21606638.8054                   21606637.3014
   1093178.38347    867727.83045  22210885.7034   22210884.7814   11937327.48447
   9318515.04744                  23221631.1644                   23221630.7464
 -34654067.82047 -26983885.52243  23921128.9064                   23921128.4694
 -34740017.26248 -27051256.99647  20407402.2274                   20407400.5664
  23863449.50846  18611599.84344  24122875.5004                   24122876.2934
 -13617696.64848 -10592668.70546  21658571.0944                   21658570.4734
 -54274721.50447 -42272357.39245  21689551.3914                   21689548.5634
 -15840851.51247 -12324859.51646  21518376.6414                   21518378.0204
 11  8 21  2 22  0.0000000  0  9G12G29G26G10G05G15G30G02G25
 -34234480.05147 -26657527.05446  21601370.0394                   21601368.6214
    915980.19947    729651.37045  22177166.2814   22177165.0664   11747685.64147
   9170742.26044                  23185543.7504                   23185543.5204
 -34644255.66447 -26976239.69243  23922996.6884                   23922996.1804
 -34800848.01248 -27098657.57747  20395826.5554                   20395825.4224
  23670912.58246  18461571.21544  24086236.3134                   24086236.9844
 -13688574.00848 -10647897.83346  21645083.6954                   21645082.7974
 -54332262.93747 -42317194.88646  21678601.6804                   21678598.5124
 -15926864.41448 -12391882.55346  21502009.2194                   21502010.2114
 11  8 21  2 22 30.0000000  0  9G12G29G26G10G05G15G30G02G25
 -34261771.54748 -26678793.16746  21596176.9924                   21596175.4964
    738911.05547    591675.47345  22143470.7584   22143469.6414   11558197.33247
   9023089.09944                  23149485.6414                   23149485.6094
 -34634324.49647 -26968501.12943  23924886.0784                   23924886.2664
 -34861183.13348 -27145671.95147  20384345.3444                   20384343.6564
  23478317.62946  18311497.34444  24049586.6414                   24049586.6844
 -13758887.74648 -10702687.78146  21631703.5554                   21631703.0234
 -54389706.16847 -42361955.83646  21667670.7504                   21667667.5314
 -16012299.38348 -12458455.26346  21485751.1804                   21485752.3634
 11  8 21  2 23  0.0000000  0  9G12G29G26G10G05G15G30G02G25
 -32713247.00448 -25472150.67646  21890850.9844                   21890849.9064
   2137402.26247   1681408.94945  22409594.7664   22409594.2504   12944295.96547
  10103166.02844                  23413250.6804                   23413251.1454
 -33048853.92646 -25733069.57043  24226591.0944                   24226590.8714
 -33345599.44948 -25964697.62547  20672751.1954                   20672749.7234
  24861097.12147  19388988.00744  24312720.4774                   24312721.3364
 -12253214.04348  -9529435.55346  21918223.6884                   21918223.1174
 -52871625.78547 -41179036.06645  21956551.8364                   21956548.3874
 -14521731.13348 -11296973.51346  21769396.9144                   21769398.1604
 11  8 21  2 23 30.0000000  0  9G12G29G26G10G05G15G30G02G25
 -32739754.15247 -25492805.61046  21885806.8834                   21885805.7304
   1960600.60547   1543641.48646  22375950.5164   22375949.4964   12755128.82447
   9955763.12144                  23377253.2424                   23377253.3634
 -33038689.21546 -25725149.00343  24228525.3754                   24228525.6024
 -33404946.47348 -26010942.06747  20661457.8594                   20661456.3984
  24668397.64146  19238832.67744  24276051.4304                   24276050.9494
 -12322402.78148  -9583348.85746  21905057.5234                   21905056.8364
 -52928869.26647 -41223641.36746  21945658.8444                   21945655.0394
 -14606009.99648 -11362645.35846  21753359.4614                   21753360.1054
 11  8 21  2 24  0.0000000  0  9G12G29G26G10G05G15G30G02G25
 -32765874.85947 -25513159.42646  21880836.5314                   21880835.0984
   1783933.14847   1405978.59346  22342331.5944   22342331.2504   12566125.13747
   9808487.60244                  23341286.8834                   23341286.8014
 -33028413.77746 -25717142.23243  24230480.6254                   24230480.6454
 -33463804.66048 -26056805.57147  20650257.8204                   20650256.1454
  24475647.53546  19088637.92643  24239371.9694                   24239372.6484
 -12391034.00047  -9636827.75146  21891997.5704                   21891996.5204
 -52986015.37947 -41268170.79246  21934784.3524                   21934780.9184
 -14689714.61348 -11427869.71946  21737431.1724                   21737432.0004
 11  8 21  2 24 30.0000000  0  9G12G29G26G10G05G15G30G02G25
 -32791612.51647 -25533214.75246  21875938.4614                   21875937.3674
   1607402.13347   1268422.03545  22308738.7664   22308738.1214   12377288.66446
   9661342.36544                  23305352.9064                   23305352.3674
 -33018030.25046 -25709051.12843  24232456.3134                   24232456.3204
 -33522176.03148 -26102289.74947  20639150.0004                   20639148.2584
  24282849.67246  18938405.92943  24202684.1724                   24202684.3484
 -12459109.55547  -9689873.64046  21879042.9454                   21879042.3244
 -53043064.01247 -41312624.26046  21923928.2504                   21923925.1844
 -14772846.02348 -11492647.45246  21721611.2894                   21721612.5004
 11  8 21  2 25  0.0000000  0  9G12G29G26G10G05G15G30G02G25
 -32816970.91847 -25552974.55946  21871113.6174                   21871111.5594
   1431008.82847   1130972.76246  22275172.3834   22275171.7774   12188622.12546
   9514329.54044                  23269450.8134                   23269450.4774
 -33007542.06246 -25700878.55643  24234452.2584                   24234451.9734
 -33580063.52347 -26147396.85947  20628134.3364                   20628132.6954
  24090005.76246  18788138.07344  24165986.6484                   24165987.4884
 -12526632.20347  -9742488.69445  21866193.7974                   21866193.4184
 -53100016.19947 -41357002.58945  21913090.6564                   21913087.2894
 -14855406.28148 -11556980.12346  21705900.6954                   21705902.0514
 11  8 21  2 25 30.0000000  0  9G12G29G26G10G05G15G30G02G25
 -32841950.35248 -25572439.06046  21866359.8444                   21866358.4654
   1254757.37547    993634.04245  22241632.6414   22241631.8284   12000131.49247
   9367453.81844                  23233582.3594                   23233582.3444
 -32996949.34846 -25692624.56343  24236468.1804                   24236467.4844
 -33637466.99247 -26192126.82647  20617210.6884                   20617208.9534
  23897120.82447  18637838.20044  24129282.4454                   24129282.4574
 -12593601.44947  -9794672.52845  21853450.0474                   21853449.6374
 -53156869.54347 -41401303.90246  21902271.7664                   21902268.5784
 -14937394.08248 -11620866.72446  21690298.7974                   21690300.0944
 11  8 21  2 26  0.0000000  0  9G12G29G26G10G05G15G30G02G25
 -32866555.27748 -25591611.71946  21861677.7584                   21861676.3484
   1078648.07047    856406.08046  22208120.4304   22208119.3364   11811818.40647
   9220716.38844                  23197747.3134                   23197747.4304
 -32986256.66446 -25684292.62843  24238503.0554                   24238502.7734
 -33694390.61748 -26236482.88647  20606378.0474                   20606376.1214
  23704195.80147  18487507.12044  24092569.8914                   24092569.4304
 -12660021.10247  -9846428.11045  21840811.0554                   21840810.1134
 -53213625.94947 -41445529.67446  21891471.4384                   21891468.0944
 -15018812.50448 -11684309.64546  21674805.5704                   21674806.6524
 11  8 21  2 26 30.0000000  0  9G12G29G26G10G05G15G30G02G25
 -32890790.05948 -25610495.98046  21857065.8834                   21857064.4734
    902681.93447    719289.68045  22174635.0554   22174634.1414   11623685.26647
   9074119.22144                  23161946.5704                   23161946.1954
 -32975467.59446 -25675885.54543  24240556.0394                   24240555.2544
 -33750836.91447 -26280466.99646  20595637.2814                   20595634.9184
  23511232.11747  18337145.86744  24055849.8204                   24055849.6954
 -12725894.18047  -9897757.76145  21828275.7424                   21828275.0044
 -53270286.53547 -41489680.79046  21880689.0234                   21880686.1914
 -15099663.73848 -11747310.59946  21659420.0234                   21659421.4064
 11  8 21  2 27  0.0000000  0  9G12G29G26G10G05G15G30G02G25
 -32914658.76647 -25629094.98146  21852523.8284                   21852522.2894
    726859.69547    582285.41146  22141176.7274   22141175.7304   11435734.33646
   8927664.00944                  23126180.5704                   23126179.9304
 -32964585.97746 -25667406.32743  24242626.7424                   24242625.8444
 -33806809.40247 -26324081.92847  20584985.6724                   20584984.4884
  23318231.00447  18186755.53543  24019123.1884                   24019122.0594
 -12791224.03148  -9948664.13845  21815843.3984                   21815842.9064
 -53326852.50447 -41533758.17345  21869924.7504                   21869922.1374
 -15179950.46548 -11809871.68646  21644142.0394                   21644143.2274
 11  8 21  2 27 30.0000000  0  9G12G29G26G10G05G15G30G02G25
 -32938159.85948 -25647407.53646  21848051.8444                   21848050.1644
    551187.30547    445397.89045  22107747.4454   22107746.6134   11247973.84047
   8781357.22244                  23090450.2734                   23090450.5394
 -32953609.94146 -25658853.58643  24244715.3674                   24244714.5784
 -33862306.00448 -26367326.01747  20574425.3284                   20574423.4804
  23125199.98847  18036341.83944  23982390.4064                   23982390.2774
 -12856008.41048  -9999145.48145  21803515.9694                   21803515.2154
 -53383319.82847 -41577758.68445  21859179.4774                   21859176.5704
 -15259669.56248 -11871990.45046  21628972.0634                   21628972.9224
 11  8 21  2 28  0.0000000  0  9G12G29G26G10G05G15G30G02G25
 -32961298.66448 -25665437.77046  21843648.8984                   21843646.9844
    375664.67647    308627.06846  22074346.8914   22074345.8834   11060404.64847
   8635199.44944                  23054757.3674                   23054757.7154
 -32942544.23046 -25650230.98243  24246821.5004                   24246821.0554
 -33917331.32848 -26410202.88547  20563954.1564                   20563952.3244
  22932138.82847  17885904.61744  23945651.8674                   23945652.0824
 -12920251.66448 -10049205.14045  21791290.3834                   21791290.0274
 -53439690.91847 -41621684.19646  21848452.3914                   21848448.9694
 -15338824.64548 -11933669.72646  21613908.9844                   21613910.3634
 11  8 21  2 28 30.0000000  0  9G12G29G26G10G05G15G30G02G25
 -32984079.16447 -25683188.83246  21839313.4534                   21839312.0944
    200292.85547    171973.75446  22040974.4384   22040973.9844   10873029.41447
   8489192.84444                  23019101.3204                   23019100.9454
 -32931392.56646 -25641541.41443  24248944.0164                   24248942.9534
 -33971888.69948 -26452715.11646  20553572.3204                   20553570.6414
  22739049.64147  17735445.57044  23908908.2424                   23908908.5864
 -12983956.89848 -10098845.57045  21779167.8914                   21779166.8674
 -53495966.52747 -41665535.31445  21837743.6094                   21837740.1334
 -15417418.03948 -11994911.33346  21598953.2114                   21598954.2854
 11  8 21  2 29  0.0000000  0  9G12G29G26G10G05G15G30G02G25
 -33006503.28547 -25700662.16646  21835046.3834                   21835045.0124
     25074.64147     35440.12646  22007631.6954   22007630.8404   10685852.71147
   8343340.95644                  22983482.3984                   22983482.2464
 -32920156.54346 -25632786.11343  24251081.4384                   24251080.4654
 -34025978.94148 -26494863.34547  20543279.4144                   20543277.4224
  22545935.95747  17584967.48144  23872159.4694                   23872158.9454
 -13047125.05148 -10148067.50045  21767147.3444                   21767146.9384
 -53552145.51647 -41709311.14945  21827053.0394                   21827049.8284
 -15495450.08648 -12055715.52246  21584104.1884                   21584105.5434
 11  8 21  2 29 30.0000000  0  9G12G29G26G10G05G15G30G02G25
 -33028575.63748 -25717861.42346  21830846.2664                   21830844.9614
   -149989.50047   -100973.43346  21974317.9224   21974316.5984   10498876.00447
   8197644.90444                  22947901.6334                   22947901.8444
 -32908840.27046 -25623968.21343  24253234.9144                   24253234.1884
 -34079606.55148 -26536651.08247  20533074.2034                   20533072.7974
  22352798.54347  17434470.86144  23835406.7894                   23835406.1724
 -13109760.37547 -10196874.22445  21755228.2424                   21755228.1684
 -53608230.35947 -41753013.60945  21816380.5314                   21816377.2624
 -15572924.10948 -12116084.88146  21569361.5474                   21569362.7894
 11  8 21  2 30  0.0000000  0  9G12G29G26G10G05G15G30G02G25
 -33050296.32847 -25734786.65746  21826712.9924                   21826711.5234
   -324894.80147   -237263.23146  21941034.0704   21941033.5164   10312105.75047
   8052109.69344                  22912361.0474                   22912360.6334
 -32897443.67646 -25615087.74643  24255403.2424                   24255403.0474
 -34132770.50848 -26578077.53947  20522957.4844                   20522955.6844
  22159642.84047  17283960.01944  23798650.2424                   23798649.7934
 -13171862.10547 -10245265.16545  21743410.4454                   21743410.1804
 -53664218.33247 -41796640.59845  21805726.2974                   21805723.1954
 -15649838.67648 -12176018.29446  21554725.2114                   21554726.0704
 11  8 21  2 30 30.0000000  0  9G12G29G26G10G05G15G30G02G25
 -33071667.48047 -25751439.50846  21822646.2114                   21822644.8594
   -499637.59847   -373426.41446  21907782.0704   21907781.0634   10125547.32047
   7906739.56144                  22876860.1334                   22876860.2034
 -32885967.89846 -25606145.65343  24257587.2664                   24257587.4384
 -34185471.58648 -26619143.31247  20512928.9224                   20512926.8794
  21966473.15247  17133438.29244  23761891.5474                   23761891.5044
 -13233430.94548 -10293240.87745  21731694.2894                   21731693.8984
 -53720107.47747 -41840190.57345  21795090.9384                   21795087.6254
 -15726193.71148 -12235515.72346  21540195.4064                   21540196.3914
 11  8 21  2 31  0.0000000  0  9G12G29G26G10G05G15G30G02G25
 -33092692.14847 -25767822.37646  21818645.4924                   21818644.2734
   -674216.48847   -509461.86546  21874560.6954   21874559.7114
   9939203.67247   7761536.79444  22841399.7974                   22841400.0314
 -32874415.71146 -25597143.94843  24259785.8984                   24259785.9184
 -34237712.88747 -26659850.80946  20502987.3284                   20502985.8244
  21773292.02046  16982907.67644  23725130.1414                   23725130.2974
 -13294469.40648 -10340803.28845  21720078.6564                   21720078.5634
 -53775898.10247 -41883663.77545  21784474.0864                   21784471.0044
 -15801990.99648 -12294578.53546  21525771.4844                   21525772.7194
 11  8 21  2 31 30.0000000  0  9G12G29G26G10G05G15G30G02G25
 -31537952.34848 -24556336.82745  22114502.2424                   22114501.3594
    726796.88747    582236.91446  22141164.5554   22141163.7384
  11328505.04347   8844109.37044  23105774.7424                   23105775.0314
 -31287369.72346 -24360484.76243  24561791.1254                   24561790.7384
 -32714074.68748 -25472600.25246  20792926.2974                   20792924.5434
  23155528.68846  18059975.32744  23988160.4454                   23988160.6254
 -11779557.41448  -9160352.38245  22008357.4774                   22008356.7234
 -52256168.50447 -40699458.88545  22073669.1414                   22073666.0664
 -14301809.24248 -11125605.73246  21811246.8444                   21811247.7854
 11  8 21  2 32  0.0000000  0  9G12G29G26G10G05G15G30G02G25
 -31558291.81647 -24572185.79246  22110631.8834                   22110630.8134
    552553.17247    446462.63146  22108006.8444   22108006.4384
  11142602.45347   8699250.27044  23070398.8284                   23070398.1294
 -31275671.46146 -24351369.33943  24564016.7504                   24564016.8444
 -32765401.83248 -25512595.42246  20783158.9694                   20783157.3714
  22962333.49646  17909433.72344  23951396.8524                   23951396.6994
 -11839541.07448  -9207092.87845  21996942.7034                   21996942.2974
 -52311761.92648 -40742778.42945  22063090.1724                   22063086.9924
 -14376494.79348 -11183802.25146  21797034.5234                   21797035.7074
 11  8 21  2 32 30.0000000  0  9G12G29G26G10G05G15G30G02G25
 -31578292.68047 -24587770.88546  22106825.6564                   22106824.6994
    378480.73847    310821.81346  22074882.0634   22074881.4104
  10956926.61347   8554567.83444  23035066.2034                   23035065.0824
 -31263903.35946 -24342199.35243  24566256.1644                   24566255.8484
 -32816274.30548 -25552236.29846  20773478.2664                   20773476.9384
  22769135.83246  17758890.21444  23914632.6954                   23914631.8134
 -11898999.98448  -9253424.48845  21985628.2584                   21985628.0234
 -52367255.87147 -40786020.44645  22052530.1644                   22052526.8554
 -14450626.02048 -11241566.84446  21782927.7274                   21782928.9454
 11  8 21  2 33  0.0000000  0  9G12G29G26G10G05G15G30G02G25
 -31597957.50447 -24603094.15146  22103084.0084                   22103082.5664
    204582.18447    175316.50046  22041790.2814   22041789.5354
  10771481.56347   8410065.25445  22999777.0784                   22999777.0824
 -31252066.82446 -24332976.19643  24568508.9384                   24568508.4104
 -32866694.15648 -25591524.47847  20763883.9774                   20763881.9924
  22575939.02346  17608347.35344  23877868.3914                   23877867.4494
 -11957935.86748  -9299348.54245  21974412.9694                   21974412.3244
 -52422649.70347 -40829184.47745  22041988.8594                   22041985.8404
 -14524203.90648 -11298900.25846  21768926.5234                   21768927.3164
 11  8 21  2 33 30.0000000  0  9G12G29G26G10G05G15G30G02G25
 -31617293.32048 -24618161.03746  22099404.3204                   22099403.0474
     30855.75047     39945.28846  22008731.4064   22008730.3324
  10586266.54747   8265741.94044  22964531.7194                   22964531.6134
 -31240168.78146 -24323704.98842  24570772.7814                   24570772.3754
 -32916667.85548 -25630465.01546  20754374.0864                   20754372.3324
  22382741.73046  17457804.10744  23841103.9924                   23841103.4884
 -12016355.22748  -9344870.11745  21963296.1954                   21963295.4264
 -52477947.77347 -40872273.87345  22031466.0474                   22031462.7424
 -14597234.28148 -11355807.03946  21755029.0704                   21755030.4414
 11  8 21  2 34  0.0000000  0  9G12G29G26G10G05G15G30G02G25
 -31636301.70347 -24632972.79046  22095787.2814                   22095785.8524
   -142695.66447    -95289.53346  21975705.6254   21975704.8324
  10401286.66047   8121601.81544  22929330.9694                   22929330.8054
 -31228210.18746 -24314386.65242  24573047.9384                   24573047.9304
 -32966196.43048 -25669058.69847  20744948.8204                   20744947.6484
  22189548.28146  17307263.85944  23804340.4844                   23804341.2544
 -12074258.96548  -9389989.90245  21952277.1484                   21952276.6414
 -52533148.62547 -40915287.50745  22020961.4304                   22020958.6844
 -14669717.27748 -11412287.28546  21741235.9534                   21741236.9614
 11  8 21  2 34 30.0000000  0 10G12G29G26G10G05G15G30G02G25G21
 -31654985.28548 -24647531.43246  22092231.5704                   22092230.2774
   -316069.16848   -230385.74046  21942713.4614   21942712.8324
  10216545.73447   7977647.91744  22894175.6564                   22894175.9964
 -31216193.20346 -24305022.78142  24575335.3594                   24575334.1884
 -33015281.80548 -25707307.03346  20735608.5394                   20735606.8984
  21996361.63747  17156728.89844  23767578.2974                   23767579.0474
 -12131649.19948  -9434709.55545  21941356.4844                   21941355.6374
 -52588252.20347 -40958225.35945  22010475.7424                   22010472.3714
 -14741654.28948 -11468342.09846  21727546.7504                   21727547.9924
  31285114.57856  24391480.83953  25194880.4384                   25194880.7704
 11  8 21  2 35  0.0000000  0 10G12G29G26G10G05G15G30G02G25G21
 -31673355.15248 -24661845.63746  22088736.2504                   22088735.2894
   -489270.48848   -365347.76446  21909754.5234   21909753.1604
  10032039.75847   7833877.09244  22859065.7424                   22859065.7854
 -31204127.98046 -24295621.37942  24577630.9614                   24577630.7464
 -33063933.89148 -25745217.74246  20726350.1804                   20726348.6724
  21803176.83647  17006195.40244  23730815.9844                   23730816.8634
 -12188535.94948  -9479036.90145  21930531.7274                   21930530.2384
 -52643265.74247 -41001093.05545  22000006.9924                   22000004.0704
 -14813054.64548 -11523978.72446  21713959.8444                   21713960.8324
  31132233.20746  24272352.65643  25165787.9614                   25165788.1134
 11  8 21  2 35 30.0000000  0  9G12G29G26G05G15G30G02G25G21
 -31691418.15648 -24675920.71346  22085298.5704                   22085297.9804
   -662301.93048   -500177.42146  21876827.4844   21876826.7344
   9847768.30147   7690289.01344  22823999.9064                   22823999.4654
 -33112158.87548 -25782795.64346  20717173.3834                   20717172.0164
  21609992.64147  16855662.36844  23694054.4614                   23694054.5784
 -12244925.59048  -9522976.87945  21919801.0314                   21919799.9414
 -52698193.25847 -41043893.70445  21989554.8594                   21989551.6484
 -14883923.94148 -11579201.55346  21700473.7894                   21700475.2234
  30979362.43046  24153232.67043  25136697.1334                   25136697.6804
 11  8 21  2 36  0.0000000  0  9G12G29G26G05G15G30G02G25G21
 -31709175.78548 -24689757.84846  22081920.0004                   22081918.9734
   -835159.47348   -634871.57246  21843933.7344   21843933.1724
   9663736.65247   7546887.78444  22788979.7664                   22788979.1844
 -33159957.69548 -25820041.46046  20708077.7274                   20708075.7704
  21416813.35947  16705133.10944  23657293.6414                   23657293.0004
 -12300818.88748  -9566530.09545  21909164.3914                   21909164.2934
 -52753033.16047 -41086626.10845  21979119.0164                   21979115.7734
 -14954262.33648 -11634010.69946  21687089.0084                   21687089.8554
  30826503.39846  24034121.93042  25107609.3754                   25107609.5944
 11  8 21  2 36 30.0000000  0  9G12G29G26G05G15G30G02G25G21
 -31726620.31248 -24703351.00245  22078599.6804                   22078598.9384
  -1007829.93048   -769419.94346  21811075.9774   21811075.1094
   9479958.79347   7403684.32644  22754007.7344                   22754007.5594
 -33207321.88348 -25856948.61446  20699064.0704                   20699062.5704
  21223652.62147  16554618.36544  23620536.0474                   23620535.3014
 -12356207.48848  -9609690.05445  21898624.8364                   21898623.7274
 -52807774.76648 -41129281.90245  21968702.2734                   21968698.5204
 -15024060.69548 -11688399.03546  21673806.8674                   21673807.8134
  30673665.91846  23915027.88443  25078525.0784                   25078525.0434
 11  8 21  2 37  0.0000000  0  9G12G29G26G05G15G30G02G25G21
 -31743750.45347 -24716699.17445  22075340.5704                   22075339.1604
  -1180307.39848   -903817.92646  21778254.5554   21778253.9344
   9296442.62547   7260684.80444  22719086.0394                   22719085.4304
 -33254249.96148 -25893515.94946  20690134.4144                   20690132.4454
  21030517.14147  16404123.26444  23583783.7114                   23583783.3834
 -12411089.73448  -9652455.45345  21888181.0784                   21888180.0554
 -52862413.69148 -41171857.67245  21958304.7424                   21958301.4104
 -15093316.70348 -11742364.75346  21660627.8914                   21660629.0044
  30520853.23846  23795953.19942  25049445.8204                   25049445.6024
 11  8 21  2 37 30.0000000  0  9G12G29G26G05G15G30G02G25G21
 -31760568.97747 -24729804.53045  22072139.8914                   22072138.9774
  -1352589.10548  -1038063.37146  21745470.4534   21745469.4384
   9113192.33247   7117892.44745  22684214.3984                   22684213.9414
 -33300743.39148 -25929744.58546  20681286.8834                   20681285.1764
  20837410.70347  16253650.84544  23547036.6804                   23547036.0234
 -12465467.44947  -9694827.69545  21877833.1334                   21877832.4804
 -52916949.46948 -41214353.09645  21947926.7664                   21947924.0204
 -15162031.53148 -11795908.78646  21647551.6884                   21647553.0204
  30368065.35146  23676897.79643  25020370.9454                   25020370.7074
 11  8 21  2 38  0.0000000  0  9G12G29G26G05G15G30G02G25G21
 -31777078.39147 -24742669.01945  22068998.4844                   22068997.3244
  -1524671.93048  -1172153.83446  21712724.0554   21712723.1684
   8930212.36747   6975310.70145  22649394.6884                   22649393.9494
 -33346803.88748 -25965635.88447  20672522.2504                   20672520.1524
  20644336.79747  16103203.71644  23510295.9064                   23510294.8674
 -12519342.28147  -9736808.09145  21867581.1174                   21867580.3404
 -52971381.10248 -41256767.36145  21937568.6254                   21937565.4494
 -15230206.05148 -11849031.77146  21634578.9144                   21634579.6764
  30215302.48046  23557861.93243  24991301.4614                   24991300.0274
 11  8 21  2 38 30.0000000  0  9G12G29G26G05G15G30G02G25G21
 -31793283.18748 -24755296.12845  22065914.7974                   22065913.4064
  -1696555.39547  -1306088.94846  21680015.5554   21680014.2774
   8747504.67647   6832941.10345  22614626.4694                   22614625.9264
 -33392435.66048 -26001193.10746  20663838.7504                   20663836.5704
  20451296.64547  15952782.88644  23473560.8834                   23473560.9654
 -12572718.46147  -9778399.93945  21857423.9144                   21857423.2504
 -53025710.14148 -41299101.66545  21927230.1174                   21927227.2424
 -15297843.84048 -11901736.55246  21621707.7664                   21621708.3444
  30062562.15246  23438843.55243  24962235.9064                   24962235.2274
 11  8 21  2 39  0.0000000  0  9G12G29G26G05G15G30G02G25G21
 -31809184.88347 -24767687.06345  22062888.6254                   22062887.2034
  -1868236.34048  -1439866.26846  21647346.0164   21647345.0274
   8565073.95347   6690787.36745  22579911.0634                   22579910.5204
 -33437639.27748 -26036416.71746  20655236.7034                   20655234.8754
  20258294.39547  15802391.61144  23436834.2584                   23436833.8674
 -12625597.02047  -9819604.00945  21847361.5554                   21847360.7814
 -53079935.23448 -41341355.01345  21916911.6644                   21916908.1454
 -15364945.26648 -11954023.37846  21608938.6094                   21608939.6134
  29909845.39547  23319843.63343  24933175.5234                   24933173.8874
 11  8 21  2 39 30.0000000  0  9G12G29G26G05G15G30G02G25G21
 -30249367.63347 -23552245.05645  22359712.1254                   22359710.8094
   -464288.09048   -345880.57546  21914507.9064   21914507.0164
   9958348.56347   7776455.90345  22845042.3984                   22845041.6884
 -31906997.51248 -24843708.84246  20946507.7114                   20946506.1994
  21640757.68047  16879635.84644  23699908.3674                   23699907.8954
 -11102560.43447  -8632822.26245  22137185.7034                   22137184.8244
 -51558635.82047 -40155926.90245  22206405.4454                   22206401.9734
 -13856091.59048 -10778293.23346  21896064.1174                   21896065.0594
  31332574.79346  24428463.97743  25203911.0554                   25203910.4384
 11  8 21  2 40  0.0000000  0  9G12G29G26G05G15G30G02G25G21
 -30264679.57847 -23564176.44645  22356798.6414                   22356796.9144
   -635563.91048   -479342.20946  21881915.5164   21881914.0824
   9776476.03947   7634737.10245  22810433.2974                   22810432.6214
 -31951359.50448 -24878276.64146  20938066.0704                   20938064.5394
  21447832.65246  16729304.71644  23663195.7894                   23663195.3324
 -11154458.40248  -8673262.24145  22127309.8674                   22127308.8794
 -51612659.51648 -40198023.27945  22196125.1884                   22196121.7424
 -13922132.86348 -10829753.96846  21883496.6484                   21883497.6994
  31179895.87946  24309493.49843  25174857.0314                   25174857.3524
 11  8 21  2 40 30.0000000  0  9G12G29G26G05G15G30G02G25G21
 -30279700.31647 -23575880.92445  22353940.5234                   22353938.9304
   -806633.02348   -612642.77346  21849362.2814   21849360.7774
   9594888.80147   7493240.60345  22775877.9924                   22775877.3754
 -31995303.36748 -24912518.61146  20929703.7114                   20929701.8364
  21254951.23046  16579007.58944  23626491.3594                   23626491.1644
 -11205868.94948  -8713322.42145  22117526.7504                   22117526.1954
 -51666581.41848 -40240040.35745  22185863.8054                   22185860.7504
 -13987645.94148 -10880803.11346  21871029.8594                   21871031.0704
  31027235.59846  24190537.54943  25145806.8594                   25145805.6954
 11  8 21  2 41  0.0000000  0  9G12G29G26G05G15G30G02G25G21
 -30294434.56647 -23587362.16845  22351136.1884                   22351134.7934
   -977494.48848   -745781.52846  21816848.3674   21816847.0314
   9413589.27347   7351968.28745  22741377.9224                   22741377.3794
 -32038832.69148 -24946437.55546  20921420.3524                   20921418.9384
  21062115.46546  16428746.02344  23589796.3364                   23589795.6914
 -11256795.89848  -8753005.76845  22107835.4614                   22107834.8094
 -51720403.11348 -40281979.34045  22175621.8594                   22175618.9884
 -14052633.95348 -10931443.11146  21858662.9694                   21858664.3524
  30874591.98846  24071594.54342  25116759.7584                   25116758.4264
 11  8 21  2 41 30.0000000  0  9G12G29G26G05G15G30G02G25G21
 -30308883.54747 -23598621.11445  22348386.6414                   22348385.2704
  -1148144.36748   -878755.42446  21784374.8284   21784372.8364
   9232582.59447   7210924.17245  22706933.4774                   22706933.0744
 -32081948.55548 -24980034.33446  20913216.1884                   20913214.3014
  20869329.57047  16278523.34444  23553110.5394                   23553109.4734
 -11307240.21148  -8792313.03345  22098236.2114                   22098235.8054
 -51774122.43747 -40323838.55845  22165399.3204                   22165396.3404
 -14117097.28948 -10981674.27646  21846396.1414                   21846396.6994
  30721966.21146  23952665.51743  25087715.2424                   25087715.0824
 11  8 21  2 42  0.0000000  0  9G12G29G26G05G15G30G02G25G21
 -30323050.86347 -23609660.60245  22345691.1094                   22345689.5904
  -1318581.66048  -1011563.66746  21751941.4224   21751939.9534
   9051871.80547   7070110.62844  22672545.4924                   22672544.5984
 -32124654.00048 -25013311.30346  20905089.0864                   20905087.5784
  20676595.88346  16128341.33644  23516434.3054                   23516433.7544
 -11357205.26647  -8831246.84445  22088728.5394                   22088727.9614
 -51827739.75448 -40365618.27645  22155196.2424                   22155193.4964
 -14181038.50848 -11031498.59046  21834228.2424                   21834229.7194
  30569356.91446  23833749.19743  25058675.3364                   25058673.9494
 11  8 21  2 42 30.0000000  0  9G12G29G26G05G15G30G02G25G21
 -30336941.77747 -23620484.70045  22343047.3984                   22343046.3324
  -1488805.64847  -1144205.68846  21719548.8204   21719547.4734
   8871458.51647   6929528.87245  22638213.6484                   22638213.1374
 -32166952.93748 -25046271.51446  20897040.3984                   20897038.2854
  20483915.53546  15978200.89544  23479767.9144                   23479767.5944
 -11406695.46547  -8869810.63345  22079310.5314                   22079310.2544
 -51881257.12148 -40407320.12645  22145012.1254                   22145008.9774
 -14244461.46148 -11080919.07646  21822159.4454                   21822160.3524
  30416761.82446  23714844.06443  25029636.8984                   25029636.5394
 11  8 21  2 43  0.0000000  0  9G12G29G26G05G15G30G02G25G21
 -30350556.63347 -23631093.67845  22340456.3364                   22340455.0984
  -1658811.41448  -1276677.68446  21687197.8054   21687196.6684
   8691349.05147   6789183.90444  22603939.8054                   22603939.4064
 -32208845.08248 -25078914.74346  20889068.3834                   20889066.7034
  20291293.82446  15828106.12044  23443113.5704                   23443112.5084
 -11455710.75447  -8908004.38445  22069983.1954                   22069982.4064
 -51934671.66447 -40448941.84745  22134847.7814                   22134844.6564
 -14307365.47348 -11129935.18946  21810189.1024                   21810190.7034
  30264182.49646  23595951.10542  25000602.2584                   25000601.2154
 11  8 21  2 43 30.0000000  0  9G12G29G26G05G15G30G02G25G21
 -30363900.90647 -23641491.82745  22337917.4064                   22337915.7584
  -1828599.18048  -1408979.80846  21654888.2974   21654886.9104
   8511544.64847   6649076.64045  22569724.5084                   22569723.5944
 -32250335.91048 -25111245.25246  20881173.0084                   20881171.5274
  20098731.40646  15678057.59144  23406469.8674                   23406469.5044
 -11504256.08647  -8945831.91545  22060745.3674                   22060744.7624
 -51987985.36348 -40490484.98745  22124702.6334                   22124699.0824
 -14369754.79348 -11178550.22946  21798317.0944                   21798318.1334
  30111616.30946  23477068.51643  24971569.3674                   24971568.0984
 11  8 21  2 44  0.0000000  0  9G12G29G26G05G15G30G02G25G21
 -30376977.58247 -23651681.46945  22335428.4614                   22335427.7504
  -1998166.60548  -1541110.23846  21622620.3204   21622619.4884
   8332049.07047   6509209.96945  22535567.5784                   22535567.1214
 -32291427.34048 -25143264.55446  20873353.6094                   20873351.9774
  19906231.18446  15528057.48744  23369838.6254                   23369837.9384
 -11552334.07447  -8983295.30145  22051596.4844                   22051595.9384
 -52041198.08647 -40531949.44845  22114576.6414                   22114573.2194
 -14431631.47348 -11226765.82646  21786542.2974                   21786543.6764
  29959062.16446  23358195.13943  24942539.0234                   24942538.6764
 11  8 21  2 44 30.0000000  0  9G12G29G26G05G15G30G02G25G21
 -30389791.33247 -23661666.22345  22332990.4534                   22332989.1954
  -2167513.46548  -1673068.80546  21590394.8054   21590394.0704
   8152863.62547   6369585.01245  22501469.3594                   22501469.2504
 -32332123.77048 -25174976.04346  20865609.1414                   20865607.7074
  19713794.16447  15378106.69044  23333218.5864                   23333218.0394
 -11599949.41447  -9020398.16345  22042535.7034                   22042535.4104
 -52094311.75448 -40573336.73045  22104469.6724                   22104466.6954
 -14492999.46548 -11274585.05046  21774864.2894                   21774865.3284
  29806518.09046  23239329.74143  24913510.7504                   24913511.3954
 11  8 21  2 45  0.0000000  0  9G12G29G26G05G15G30G02G25G21
 -30402341.41447 -23671445.51845  22330602.5314                   22330601.2154
  -2336633.03548  -1804850.25546  21558212.7974   21558211.3364
   7973997.00047   6230208.45145  22467432.0164                   22467431.8834
 -32372423.25848 -25206378.24646  20857940.4774                   20857938.7424
  19521427.66447  15228210.76144  23296612.0314                   23296611.6374
 -11647100.03147  -9057138.92245  22033563.2194                   22033562.7154
 -52147321.76648 -40614643.22845  22094382.0474                   22094378.7424
 -14553856.17648 -11322005.86646  21763283.5944                   21763284.7734
  29653987.48046  23120474.80643  24884485.4064                   24884485.4574
 11  8 21  2 45 30.0000000  0  9G12G29G26G05G15G30G02G25G21
 -30414633.16047 -23681023.52545  22328263.5634                   22328262.1644
  -2505525.30148  -1936454.59546  21526073.4384   21526072.2894
   7795450.15647   6091081.07345  22433455.7114                   22433455.6604
 -32412330.32848 -25237474.65446  20850346.3134                   20850344.6254
  19329132.55947  15078370.50644  23260019.7194                   23260019.4264
 -11693791.06248  -9093521.54245  22024678.1334                   22024677.7734
 -52200229.79748 -40655870.26945  22084314.0864                   22084310.3834
 -14614206.03948 -11369031.74646  21751799.3054                   21751800.6484
  29501467.56346  23001628.19643  24855461.7734                   24855461.6094
 11  8 21  2 46  0.0000000  0  9G12G29G26G05G15G30G02G25G21
 -30426667.89547 -23690401.25545  22325973.3914                   22325971.6724
  -2674186.27748  -2067878.70146  21493978.1334   21493977.1564
   7617228.45747   5952207.08545  22399541.5394                   22399540.5704
 -32451845.69148 -25268265.84546  20842826.7194                   20842825.1564
  19136913.48847  14928589.51144  23223441.9144                   23223441.1764
 -11740023.43747  -9129546.79245  22015880.6644                   22015880.1564
 -52253034.11747 -40697016.50245  22074265.8284                   22074262.5594
 -14674049.41448 -11415662.96946  21740411.6804                   21740413.1414
  29348959.84846  22882791.09443  24826440.4614                   24826440.2664
 11  8 21  2 46 30.0000000  0  9G12G29G26G05G15G30G02G25G21
 -30438448.84047 -23699581.23345  22323731.7974                   22323730.3054
  -2842613.82848  -2199120.91646  21461927.4534   21461926.1804
   7439334.96547   5813588.82445  22365689.2344                   22365688.9494
 -32490972.36348 -25298754.16546  20835381.1174                   20835379.3914
  18944773.16847  14778869.84644  23186878.6884                   23186878.2894
 -11785800.10547  -9165216.92545  22007169.5634                   22007168.7034
 -52305734.93048 -40738082.07145  22064237.1334                   22064233.7034
 -14733388.63348 -11461901.32846  21729119.5634                   21729120.8634
  29196463.03946  22763962.46443  24797420.8284                   24797421.9184
 11  8 21  2 47  0.0000000  0  9G12G29G26G05G15G30G02G25G21
 -30449976.75447 -23708564.03645  22321537.5314                   22321536.3984
  -3010803.85948  -2330178.04946  21429921.8204   21429920.9224
   7261775.54747   5675230.86245  22331901.2584                   22331900.8914
 -32529710.83248 -25328939.98446  20828009.6564                   20828007.8014
  18752716.43047  14629215.33044  23150331.1414                   23150331.0594
 -11831121.98048  -9200532.68545  21998545.2424                   21998544.6724
 -52358330.09448 -40779065.32345  22054228.5004                   22054225.4024
 -14792223.98448 -11507747.07746  21717923.8834                   21717925.1914
  29043978.33246  22645143.39143  24768404.1174                   24768404.6644
 11  8 21  2 47 30.0000000  0  9G12G29G26G05G15G30G02G25G21
 -28885836.58247 -22489753.53345  22619183.7734                   22619182.2344
  -1603330.20348  -1233445.30646  21697755.1954   21697753.8364
   8659978.03947   6764739.35745  22597969.8914                   22597969.9224
 -30992643.82048 -24131225.42746  21120503.6414                   21120502.1054
  20136170.79747  15707231.80244  23413593.8524                   23413593.5004
 -10300571.92248  -8007896.28045  22289799.1804                   22289798.5634
 -50835399.22748 -39592365.95445  22344033.1884                   22344029.2664
 -13275137.23848 -10325601.57846  22006616.0474                   22006617.3714
  30466928.67246  23753935.98243  25039182.1334                   25039182.3244
 11  8 21  2 48  0.0000000  0  9G12G29G26G05G15G30G02G25G21
 -28896871.34047 -22498352.05545  22617083.9064                   22617082.7034
  -1771041.25048  -1364129.20246  21665840.8204   21665839.7274
   8483094.66847   6626908.19545  22564310.1884                   22564310.0234
 -31030615.80948 -24160813.99346  21113277.5394                   21113275.9574
  19944287.01247  15557712.02844  23377079.9224                   23377078.5784
 -10344994.92648  -8042511.60545  22281345.4304                   22281345.1604
 -50887785.01247 -39633186.04345  22334064.1564                   22334060.5664
 -13332973.73448 -10370668.98346  21995610.0234                   21995611.3054
  30314464.28146  23635132.64343  25010170.1954                   25010168.9224
 11  8 21  2 48 30.0000000  0  9G12G29G26G05G15G30G02G25G21
 -28907664.14147 -22506762.05745  22615029.8364                   22615029.0944
  -1938509.18748  -1494623.66946  21633972.9454   21633971.4344
   8306554.89147   6489344.78445  22530715.9384                   22530714.8054
 -31068208.15648 -24190106.72546  21106124.4064                   21106122.4024
  19752494.59447  15408263.46944  23340582.3054                   23340581.8524
 -10388972.59447  -8076779.93245  22272977.2974                   22272976.5314
 -50940065.67647 -39673924.23045  22324115.0394                   22324111.8484
 -13390314.00448 -10415349.73646  21984698.3914                   21984699.3674
  30162008.73746  23516336.18743  24981157.9844                   24981157.2934
 11  8 21  2 49  0.0000000  0  9G12G29G26G05G15G30G02G25G21
 -28918217.30147 -22514985.29945  22613021.6954                   22613020.7544
  -2105730.94548  -1624926.29946  21602151.4614   21602150.1564
   8130363.05947   6352052.49045  22497187.4224                   22497186.3984
 -31105422.09048 -24219104.60246  21099042.6564                   21099040.6334
  19560797.59447  15258889.25944  23304103.6954                   23304103.8524
 -10432506.80147  -8110702.68345  22264692.6644                   22264692.0004
 -50992239.94148 -39714579.50445  22314187.0234                   22314183.6294
 -13447159.31648 -10459644.80046  21973881.0234                   21973882.3834
  30009562.69146  23397547.23143  24952148.6024                   24952148.3094
 11  8 21  2 49 30.0000000  0  9G12G29G26G05G15G30G02G25G21
 -28928533.97747 -22523024.29545  22611058.6724                   22611058.0124
  -2272704.68748  -1755035.66546  21570377.2894   21570376.2854
   7954522.38747   6215033.81745  22463726.1254                   22463725.3404
 -31142260.90648 -24247810.17546  21092032.0474                   21092030.4384
  19369198.18047  15109591.07344  23267643.6884                   23267643.3634
 -10475600.73847  -8144282.37245  22256492.2504                   22256491.6604
 -51044308.14547 -39755152.13345  22304278.6254                   22304275.1334
 -13503512.27348 -10503556.20546  21963157.6334                   21963158.5594
  29857125.44946  23278765.01443  24923140.3054                   24923140.0204
 11  8 21  2 50  0.0000000  0  9G12G29G26G05G15G30G02G25G21
 -28938618.16447 -22530882.11645  22609139.9304                   22609138.4654
  -2439428.48848  -1884950.27246  21538651.1724   21538649.4454
   7779035.90247   6078291.18045  22430332.1954                   22430331.4104
 -31178727.73848 -24276225.90146  21085092.8284                   21085091.4224
  19177698.77747  14960370.82845  23231202.4534                   23231202.0274
 -10518257.86347  -8177521.68145  22248374.9924                   22248373.7854
 -51096270.49248 -39795642.28245  22294390.3984                   22294386.9734
 -13559375.77348 -10547086.22346  21952527.1094                   21952528.1134
  29704695.14546  23159988.32343  24894134.2664                   24894133.6844
 11  8 21  2 50 30.0000000  0  9G12G29G26G05G15G30G02G25G21
 -28948473.52747 -22538561.63045  22607264.3914                   22607263.2424
  -2605900.62148  -2014668.78146  21506972.2734   21506970.7154
   7603906.57047   5941826.79045  22397006.0084                   22397005.2734
 -31214825.29348 -24304353.86146  21078224.0704                   21078222.1174
  18986302.11347  14811230.63945  23194781.0004                   23194780.3204
 -10560481.27347  -8210423.05745  22240340.0004                   22240338.9024
 -51148127.23847 -39836050.13245  22284522.3204                   22284519.1764
 -13614752.40648 -10590236.84846  21941989.0784                   21941990.4414
  29552270.97346  23041216.34943  24865129.0394                   24865127.9024
 11  8 21  2 51  0.0000000  0  9G12G29G26G05G15G30G02G25G21
 -28958104.37147 -22546066.20645  22605431.5944                   22605430.5514
  -2772120.37148  -2144190.62346  21475341.7584   21475340.3794
   7429136.62147   5805642.45145  22363748.6644                   22363747.4534
 -31250557.53148 -24332197.17946  21071424.2034                   21071422.6414
  18795009.39147  14662171.40044  23158379.3054                   23158378.6684
 -10602275.42647  -8242989.93045  22232387.2114                   22232386.2584
 -51199879.89147 -39876376.86845  22274674.3754                   22274671.0004
 -13669645.97348 -10633011.08146  21931543.2584                   21931544.4264
  29399850.89846  22922447.58643  24836124.3204                   24836123.6054
 11  8 21  2 51 30.0000000  0  9G12G29G26G05G15G30G02G25G21
 -28967516.84847 -22553400.61445  22603640.4774                   22603639.4804
  -2938088.10548  -2273516.08646  21443759.0474   21443757.9844
   7254726.78547   5669738.72745  22330559.5084                   22330558.0124
 -31285930.08248 -24359760.20646  21064692.9064                   21064691.4964
  18603820.66447  14513193.22345  23121997.0084                   23121996.7344
 -10643646.05147  -8275226.76445  22224514.6954                   22224513.6174
 -51251530.85948 -39916624.37145  22264845.6254                   22264842.4614
 -13724061.61348 -10675412.89146  21921188.4844                   21921189.9104
  29247431.47346  22803679.30143  24807119.4694                   24807118.9104
 11  8 21  2 52  0.0000000  0  9G12G29G26G05G15G30G02G25G21
 -28976709.89547 -22560564.04645  22601891.4224                   22601890.2934
  -3103797.62148  -2402640.35246  21412225.6094   21412224.2274
   7080684.74247   5534121.60245  22297440.3054                   22297439.9414
 -31320940.95748 -24387041.42346  21058030.7664                   21058029.0984
  18412743.57847  14364302.05845  23085636.3204                   23085636.0394
 -10684591.68047  -8307132.46045  22216722.8674                   22216722.1764
 -51303075.62148 -39956789.11945  22255037.1334                   22255033.6484
 -13777997.30148 -10717440.71846  21910925.1414                   21910925.8204
  29095016.59047  22684914.58443  24778115.9304                   24778115.7194
 11  8 21  2 52 30.0000000  0  9G12G29G26G05G15G30G02G25G21
 -28985682.25447 -22567555.51745  22600183.7664                   22600182.6844
  -3269242.39848  -2531558.30946  21380742.2034   21380741.1954
   6907018.06647   5398796.96045  22264392.0864                   22264391.5234
 -31355588.78148 -24414039.73246  21051437.4064                   21051435.8794
  18221785.20347  14215503.37744  23049298.1724                   23049297.3984
 -10725111.16047  -8338706.08245  22209011.9304                   22209011.9494
 -51354509.78547 -39996867.69645  22245249.5394                   22245246.1414
 -13831451.44948 -10759093.31246  21900752.7114                   21900754.1454
  28942609.33247  22566155.82343  24749113.8524                   24749113.1684
 11  8 21  2 53  0.0000000  0  9G12G29G26G05G15G30G02G25G21
 -28994440.12947 -22574379.86445  22598517.0634                   22598516.2384
  -3434422.58248  -2660270.10346  21349309.3284   21349308.4734
   6733727.57447   5263765.45145  22231416.4774                   22231415.4454
 -31389878.64548 -24440759.10846  21044912.4534                   21044910.7234
  18030945.63747  14066797.25944  23012982.7114                   23012981.5314
 -10765210.12147  -8369952.03245  22201381.6094                   22201381.1134
 -51405836.16047 -40036862.28945  22235482.6484                   22235478.7854
 -13884429.03148 -10800374.55346  21890671.6724                   21890673.1454
  28790206.28546  22447400.32043  24720112.3674                   24720111.6644
 11  8 21  2 53 30.0000000  0  9G12G29G26G05G15G30G02G25G21
 -29002987.10947 -22581039.87645  22596890.9844                   22596889.1994
  -3599336.45348  -2788774.36746  21317927.4224   21317926.0744
   6560816.53947   5129029.62345  22198512.6334                   22198511.1454
 -31423813.54348 -24467201.88046  21038454.6644                   21038453.0164
  17840227.61347  13918185.86844  22976689.7114                   22976689.0634
 -10804891.94947  -8400872.93645  22193830.5634                   22193829.7544
 -51457054.55147 -40076772.70845  22225735.4844                   22225732.6374
 -13936932.93448 -10841286.68346  21880680.4144                   21880681.9694
  28637806.99646  22328647.79943  24691111.4454                   24691110.3794
 11  8 21  2 54  0.0000000  0  9G12G29G26G05G15G30G02G25G21
 -29011323.52347 -22587535.78545  22595304.5704                   22595303.3914
  -3763979.23048  -2917067.40146  21286596.7734   21286595.5944
   6388291.12147   4994594.28845  22165681.6414                   22165680.4574
 -31457393.30948 -24493367.96046  21032064.7664                   21032063.2424
  17649636.52347  13769673.37245  22940421.5314                   22940420.9304
 -10844156.76647  -8431468.90845  22186358.0474                   22186357.7854
 -51508162.10247 -40116596.78645  22216010.1094                   22216006.6294
 -13988962.68048 -10881829.34146  21870779.4384                   21870780.7304
  28485412.89546  22209899.26143  24662111.9384                   24662111.1724
 11  8 21  2 54 30.0000000  0  9G12G29G26G05G15G30G02G25G21
 -29019453.34847 -22593870.74445  22593757.6954                   22593756.7424
  -3928349.37548  -3045147.99546  21255318.5084   21255317.0234
   6216153.89847   4860461.42445  22132925.0864                   22132924.6724
 -31490621.08248 -24519259.73146  21025741.7504                   21025740.1374
  17459174.78947  13621261.66145  22904178.0864                   22904176.8284
 -10883008.38347  -8461742.89245  22178964.6414                   22178964.7704
 -51559159.24247 -40156334.80745  22206305.7974                   22206302.5004
 -14040521.58248 -10922005.11046  21860967.9064                   21860969.0824
  28333022.89546  22091153.90243  24633112.8364                   24633112.0554
 11  8 21  2 55  0.0000000  0  9G12G29G26G05G15G30G02G25G21
 -29027378.40247 -22600046.13045  22592249.5234                   22592248.2734
  -4092443.02348  -3173013.14446  21224092.2344   21224091.2464
   6044409.84047   4726634.92445  22100243.3594                   22100242.4534
 -31523498.22748 -24544878.30146  21019485.5004                   21019483.6414
  17268846.80147  13472954.16845  22867959.9454                   22867958.9614
 -10921448.30947  -8491696.11545  22171650.0004                   22171649.6454
 -51610044.43747 -40195985.61445  22196622.6644                   22196619.3404
 -14091610.64848 -10961814.77046  21851245.8524                   21851247.2424
  28180637.74646  21972412.36043  24604114.8834                   24604113.3014
 11  8 21  2 55 30.0000000  0  9G12G29G26G05G15G30G02G25G21
 -27459684.69947 -21378466.63145  22890571.8834                   22890569.7704
  -2680835.53548  -2073059.21146  21492712.3444   21492710.7544
   7448484.59447   5820719.21145  22367429.8134                   22367429.4614
 -29980609.57048 -23342627.39246  21313087.4614                   21313085.6334
  18654078.75047  14552355.73645  23131560.7974                   23131559.3874
  -9384061.78947  -7293732.58245  22464205.4694                   22464204.5394
 -50085399.09447 -39007950.27245  22486752.9064                   22486749.3634
 -12566814.02048  -9773661.55446  22141405.3134                   22141406.5434
  29603678.69546  23081275.62443  24874910.4694                   24874909.1294
 11  8 21  2 56  0.0000000  0  9G12G29G26G05G15G30G02G25G21
 -27467216.56247 -21384335.62545  22889138.3834                   22889137.1454
  -2844376.77348  -2200493.90446  21461591.3754   21461589.7854
   7277529.91847   5687507.83745  22334898.0944                   22334896.7504
 -30012800.40248 -23367711.17246  21306961.6024                   21306960.1484
  18464020.25047  14404258.25645  23095393.7194                   23095392.9224
  -9421694.52047  -7323056.79845  22457043.8284                   22457043.9064
 -50136066.97747 -39047431.74245  22477110.9384                   22477108.1294
 -12616977.99648  -9812750.36246  22131859.6024                   22131860.6644
  29451294.37146  22962534.73843  24845912.5704                   24845911.6684
 11  8 21  2 56 30.0000000  0 10G12G29G26G18G05G15G30G02G25G21
 -27474558.34847 -21390056.52645  22887740.8204                   22887740.2034
  -3007640.02348  -2327711.99446  21430523.4384   21430522.0704
   7106973.57447   5554606.85445  22302442.0784                   22302441.5274
  35962118.25056  28038919.92253  24780532.2504                   24780532.7034
 -30044653.14548 -23392531.49746  21300900.6094                   21300898.6294
  18274099.18447  14256267.85844  23059252.8524                   23059252.1644
  -9458929.85947  -7352071.36445  22449958.3204                   22449957.5824
 -50186627.23447 -39086829.36045  22467489.8204                   22467486.5234
 -12666684.81248  -9851482.95846  22122400.8444                   22122401.6174
  29298907.83646  22843792.12443  24816914.0234                   24816913.3594
 11  8 21  2 57  0.0000000  0 10G12G29G26G18G05G15G30G02G25G21
 -27481721.67247 -21395638.36645  22886378.0084                   22886377.0164
  -3170631.42248  -2454718.24346  21399507.3524   21399505.8014
   6936810.41447   5422012.20045  22270061.3204                   22270060.4064
  35776450.10246  27894243.65543  24745200.3204                   24745200.3244
 -30076179.11348 -23417097.18446  21294901.2814                   21294899.5124
  18084310.15247  14108380.34545  23023137.0394                   23023136.3404
  -9495779.16047  -7380785.13445  22442946.1174                   22442945.8204
 -50237088.25847 -39126149.64345  22457887.5944                   22457883.9964
 -12715945.41848  -9889867.83646  22113026.5554                   22113027.7464
  29146510.22346  22725040.88543  24787913.6094                   24787912.8594
 11  8 21  2 57 30.0000000  0 10G12G29G26G18G05G15G30G02G25G21
 -27488711.62947 -21401085.09345  22885048.4304                   22885046.8634
  -3333350.64148  -2581512.41146  21368542.6564   21368541.5554
   6767042.01647   5289725.19545  22237755.7584                   22237754.3714
  35590950.20746  27749698.31743  24709901.1564                   24709900.4184
 -30107383.03148 -23441411.93246  21288963.2114                   21288961.5434
  17894654.16847  13960596.51645  22987046.5634                   22987045.9064
  -9532247.49247  -7409202.03845  22436006.4534                   22436006.4534
 -50287451.55147 -39165393.76745  22448303.8364                   22448300.7624
 -12764764.25847  -9927908.48446  22103736.8204                   22103738.3554
  28994098.73846  22606278.83443  24758910.7114                   24758909.8244
 11  8 21  2 58  0.0000000  0 10G12G29G26G18G05G15G30G02G25G21
 -27495528.05147 -21406396.62245  22883750.9454                   22883749.7934
  -3495792.32848  -2708090.32546  21337630.9304   21337629.6334
   6597674.95747   5157750.90945  22205526.1804                   22205525.2544
  35405623.11346  27605287.79143  24674634.5864                   24674633.0434
 -30138264.12548 -23465475.11946  21283086.7274                   21283085.4184
  17705137.39147  13812921.13945  22950982.6174                   22950982.1604
  -9568334.79347  -7437322.02145  22429139.0944                   22429138.9384
 -50337713.96947 -39204559.28945  22438739.6254                   22438736.0704
 -12813140.85248  -9965604.54046  22094530.8134                   22094532.0044
  28841675.82046  22487507.90443  24729905.0554                   24729904.5474
 11  8 21  2 58 30.0000000  0 10G12G29G26G18G05G15G30G02G25G21
 -27502172.02747 -21411573.74945  22882486.3364                   22882485.3794
  -3657951.37548  -2834447.99146  21306773.2344   21306771.8554
   6428715.10247   5026093.90945  22173374.0234                   22173373.2774
  35220472.54346  27461014.79443  24639400.8284                   24639400.3364
 -30168822.39848 -23489286.78446  21277271.7194                   21277269.9414
  17515765.63747  13665358.82145  22914946.5554                   22914946.1254
  -9604041.44547  -7465145.40245  22422344.0864                   22422343.9964
 -50387872.55947 -39243643.91245  22429194.5084                   22429191.2384
 -12861075.07448 -10002955.88246  22085408.9844                   22085410.5474
  28689243.53946  22368729.63143  24700897.5864                   24700896.6564
 11  8 21  2 59  0.0000000  0 10G12G29G26G18G05G15G30G02G25G21
 -27508648.49647 -21416620.38845  22881253.8054                   22881253.3134
  -3819827.62548  -2960585.31146  21275968.9384   21275967.5904
   6260164.15647   4894755.55545  22141299.4774                   22141298.6844
  35035497.61746  27316878.65843  24604200.9774                   24604200.9964
 -30199062.30948 -23512850.33846  21271517.3204                   21271515.6254
  17326539.69547  13517910.08345  22878938.0234                   22878937.1844
  -9639372.42647  -7492676.05345  22415621.5704                   22415620.9144
 -50437929.06247 -39282648.97845  22419668.3364                   22419665.8754
 -12908571.44948 -10039966.04346  22076371.1724                   22076372.3444
  28536799.44946  22249942.11643  24671888.6644                   24671887.2814
 11  8 21  2 59 30.0000000  0 10G12G29G26G18G05G15G30G02G25G21
 -27514957.93747 -21421536.85845  22880053.7274                   22880052.5704
  -3981416.18048  -3086498.45246  21245219.7894   21245218.5944
   6092027.84847   4763740.29045  22109304.4844                   22109303.9064
  34850702.15646  27172882.29243  24569035.2194                   24569035.4184
 -30228983.82448 -23536165.81046  21265823.3984                   21265821.3914
  17137464.80147  13370579.04545  22842958.1644                   22842957.3244
  -9674328.32447  -7519914.43145  22408969.6644                   22408969.1024
 -50487880.44147 -39321572.14045  22410163.0634                   22410160.2034
 -12955630.03148 -10076635.06146  22067416.0864                   22067417.4304
  28384345.20346  22131146.77343  24642877.4144                   24642876.1684
 11  8 21  3  0  0.0000000  0 10G12G29G26G18G05G15G30G02G25G21
 -27521102.68047 -21426324.97245  22878884.4064                   22878883.1524
  -4142714.27348  -3212185.24646  21214526.1024   21214524.5824
   5924310.26647   4633051.30945  22077389.0864                   22077388.2194
  34666088.08246  27029027.32842  24533904.2664                   24533904.4184
 -30258589.23048 -23559234.95446  21260189.8524                   21260187.7074
  16948545.19147  13223369.00645  22807007.5864                   22807007.0124
  -9708911.57047  -7546862.43645  22402388.4924                   22402387.9574
 -50537726.11347 -39360412.91145  22400677.7734                   22400674.9734
 -13002252.84448 -10112964.53846  22058544.1024                   22058545.1914
  28231881.03946  22012343.58943  24613864.5314                   24613863.5234
 11  8 21  3  0 30.0000000  0 10G12G29G26G18G05G15G30G02G25G21
 -27527085.75447 -21430987.14845  22877745.7584                   22877744.8054
  -4303719.05148  -3337643.49746  21183887.8444   21183886.2034
   5757015.30147   4502691.61745  22045553.9534                   22045553.0704
  34481656.79746  26885314.75243  24498808.3674                   24498808.5394
 -30287880.12148 -23582059.03346  21254615.8054                   21254613.9264
  16759784.29347  13076282.64145  22771087.5474                   22771087.4144
  -9743124.69147  -7573522.01745  22395877.9844                   22395877.5164
 -50587465.07447 -39399170.53645  22391212.9224                   22391209.7624
 -13048441.88748 -10148956.00346  22049754.7734                   22049756.1414
  28079406.93446  21893532.66343  24584850.1484                   24584848.1564
 11  8 21  3  1  0.0000000  0 10G12G29G26G18G05G15G30G02G25G21
 -27532910.31247 -21435525.78345  22876637.7114                   22876636.1954
  -4464428.48848  -3462871.60046  21153305.7814   21153304.1914
   5590146.13747   4372663.73345  22013799.8364                   22013798.1134
  34297409.72746  26741745.76343  24463747.7274                   24463747.6884
 -30316859.35948 -23604640.24846  21249101.3524                   21249099.3794
  16571184.83647  12929322.08045  22735198.5864                   22735198.0124
  -9776971.03547  -7599895.80345  22389437.6094                   22389436.5434
 -50637096.99647 -39437844.76345  22381768.4064                   22381764.8634
 -13094200.02748 -10184611.70446  22041047.0474                   22041047.9964
  27926922.13346  21774713.45743  24555833.1414                   24555831.4694
 11  8 21  3  1 30.0000000  0 10G12G29G26G18G05G15G30G02G25G21
 -27538575.21147 -21439939.99645  22875559.2194                   22875558.0864
  -4624835.74248  -3587864.24046  21122781.0234   21122779.5984
   5423710.46147   4242973.61745  21982127.4454                   21982126.2934
  34113351.87146  26598324.13343  24428721.8834                   24428721.4454
 -30345525.48848 -23626977.47946  21243646.1954                   21243644.5824
  16382754.14847  12782493.03645  22699340.9454                   22699340.8794
  -9810449.35947  -7625982.80345  22383066.7894                   22383065.2854
 -50686617.56247 -39476432.21045  22372345.0554                   22372341.4614
 -13139525.60248 -10219930.33646  22032422.0784                   22032423.1174
  27774430.19146  21655888.60543  24526814.6254                   24526813.1524
 11  8 21  3  2  0.0000000  0 10G12G29G26G18G05G15G30G02G25G21
 -27544088.12147 -21444235.79345  22874510.5164                   22874508.5824
  -4784943.08648  -3712623.18446  21092313.7034   21092312.0474
   5257707.32847   4113620.57245  21950538.5704                   21950537.5824
  33929480.11746  26455047.54543  24393731.6334                   24393731.5124
 -30373885.25048 -23649075.98546  21238249.6174                   21238247.8284
  16194490.98047  12635794.51445  22663516.2424                   22663515.1484
  -9843567.14847  -7651788.88245  22376764.6804                   22376763.5084
 -50736030.79347 -39514936.01145  22362941.5314                   22362938.2774
 -13184425.65647 -10254917.39746  22023877.9144                   22023879.1804
  27621926.32846  21537054.54443  24497794.0864                   24497792.4384
 11  8 21  3  2 30.0000000  0 10G12G29G26G18G05G15G30G02G25G21
 -27549451.05547 -21448414.74045  22873489.8984                   22873488.7774
  -4944746.90248  -3837145.61846  21061904.0864   21061902.8524
   5092141.08247   3984607.96145  21919032.3444                   21919031.1914
  33745796.94946  26311918.02343  24358778.3524                   24358778.0474
 -30401939.96148 -23670936.80446  21232910.9694                   21232909.3284
  16006399.28947  12489229.60745  22627723.7194                   22627722.2464
  -9876326.35247  -7677315.54245  22370530.8524                   22370529.9454
 -50785335.19947 -39553355.01445  22353559.5394                   22353555.7424
 -13228901.66848 -10289574.03646  22015414.1334                   22015415.4454
  27469411.02346  21418211.58643  24468771.4844                   24468769.7974
 11  8 21  3  3  0.0000000  0 10G12G29G26G18G05G15G30G02G25G21
 -27554667.24247 -21452479.31945  22872496.9304                   22872496.5004
  -5104245.37548  -3961430.10746  21031552.3284   21031551.2424
   4927014.92647   3855938.25545  21887609.8364                   21887609.2974
  33562303.39846  26168936.14043  24323860.7584                   24323860.5784
 -30429692.69548 -23692562.30646  21227629.6644                   21227627.8484
  15818482.01247  12342800.61045  22591963.4224                   22591962.7504
  -9908730.40647  -7702565.45045  22364364.4694                   22364363.8094
 -50834530.85247 -39591689.28245  22344198.1804                   22344194.5634
 -13272956.59048 -10323902.54646  22007030.9774                   22007032.3874
  27316883.69546  21299359.15743  24439746.2424                   24439744.8444
 11  8 21  3  3 30.0000000  0 10G12G29G26G18G05G15G30G02G25G21
 -27559739.01247 -21456431.37045  22871531.8364                   22871530.8284
  -5263435.17248  -4085474.07846  21001259.5084   21001258.0394
   4762333.28947   3727614.92045  21856271.6024                   21856271.5004
  33379001.48446  26026103.57043  24288979.5474                   24288978.9804
 -30457144.70748 -23713953.47146  21222405.5554                   21222404.1134
  15630743.04347  12196510.56645  22556238.1024                   22556236.8324
  -9940781.37947  -7727540.24945  22358265.3054                   22358264.3014
 -50883616.41447 -39629937.76645  22334857.1804                   22334853.9844
 -13316592.13348 -10357904.28146  21998727.1414                   21998728.9024
  27164344.64846  21180497.61743  24410719.0314                   24410717.2424
 11  8 21  3  4  0.0000000  0 10G12G29G26G18G05G15G30G02G25G21
 -25989247.89547 -20232672.08045  23170386.3984                   23170385.5474
  -3846887.44548  -2981670.62446  21270819.5164   21270818.4304
   6173525.95747   4827245.60445  22124813.1414                   22124811.7974
  34771319.71146  27111027.00943  24553928.8204                   24553926.9614
 -28908876.66448 -22507510.83846  21517031.3594                   21517029.6954
  17018613.00447  13277967.72545  22820341.2194                   22820339.7774
  -8397060.06247  -6524640.50945  22652025.8364                   22652025.3754
 -49357168.43747 -38440497.75745  22625330.6414                   22625327.3054
 -11784388.26247  -9163979.17646  22290295.9614                   22290297.4344
  28587219.65646  22289231.51243  24681482.8524                   24681482.1684
 11  8 21  3  4 30.0000000  0 10G12G29G26G18G05G15G30G02G25G21
 -25994035.48447 -20236402.69545  23169475.7194                   23169474.9414
  -4005448.38348  -3105224.57146  21240646.4614   21240645.2974
   6009747.20747   4699625.80645  22093647.0634                   22093645.5634
  34588409.21546  26968499.45343  24519121.4144                   24519120.8164
 -28935730.73448 -22528436.07546  21511921.4534                   21511919.6564
  16831244.41447  13131966.27145  22784686.3444                   22784684.5164
  -8428409.87947  -6549068.95145  22646060.1024                   22646058.7234
 -49406028.23847 -38478570.32545  22616032.9844                   22616029.6764
 -11827188.73448  -9197330.20846  22282151.6804                   22282153.2304
  28434659.94546  22170353.87843  24652452.4454                   24652450.6024
 11  8 21  3  5  0.0000000  0 10G12G29G26G18G05G15G30G02G25G21
 -25998688.59047 -20240028.52745  23168590.3754                   23168588.5044
  -4163694.09448  -3228532.88346  21210533.5634   21210532.0164
   5846422.34847   4572359.72345  22062566.9384                   22062565.9694
  34405692.74246  26826123.09843  24484351.5314                   24484351.3404
 -28962292.51248 -22549133.53846  21506866.8054                   21506865.1254
  16644062.85247  12986110.55845  22749067.0784                   22749065.2544
  -8459416.58247  -6573230.01045  22640159.4304                   22640158.6684
 -49454777.51647 -38516556.75045  22606756.3984                   22606753.1844
 -11869578.47348  -9230361.17545  22274084.4924                   22274086.3244
  28282086.23046  22051465.35843  24623417.5474                   24623416.9104
 11  8 21  3  5 30.0000000  0 10G12G29G26G18G05G15G30G02G25G21
 -26003208.94547 -20243550.88845  23167729.8754                   23167728.7774
  -4321621.05148  -3351592.82346  21180480.8674   21180479.4264
   5683555.73047   4445450.69945  22031574.2734                   22031573.6334
  34223173.05546  26683900.09443  24449620.6414                   24449619.2894
 -28988563.23048 -22569604.21846  21501867.5864                   21501865.5434
  16457072.67247  12840403.97645  22713483.6414                   22713482.2274
  -8490081.99247  -6597125.13545  22634324.0084                   22634323.2664
 -49503414.46147 -38554455.66745  22597500.7664                   22597497.8794
 -11911558.91448  -9263073.21146  22266096.3914                   22266097.9224
  28129499.37947  21932566.60543  24594381.0784                   24594380.0984
 11  8 21  3  6  0.0000000  0 10G12G29G26G18G05G15G30G02G25G21
 -26007599.63747 -20246972.23045  23166894.0164                   23166893.0004
  -4479226.90648  -3474402.54746  21150489.2584   21150487.8014
   5521150.86747   4318901.48745  22000670.1644                   22000669.1134
  34040851.43046  26541831.39143  24414924.8834                   24414923.9024
 -29014545.39548 -22589850.04746  21496923.2194                   21496921.6134
  16270277.12547  12694849.05645  22677937.2274                   22677935.8484
  -8520409.22347  -6620756.75045  22628553.2424                   22628552.3324
 -49551938.49247 -38592266.58845  22588267.1804                   22588263.2544
 -11953132.76647  -9295468.42046  22258185.1334                   22258186.5234
  27976898.77046  21813657.14743  24565342.8054                   24565341.4924
 11  8 21  3  6 30.0000000  0 10G12G29G26G18G05G15G30G02G25G21
 -26011866.03547 -20250296.72645  23166082.4844                   23166080.9534
  -4636511.77747  -3596962.16346  21120559.0474   21120557.5084
   5359208.66847   4192712.80545  21969852.9614                   21969852.3444
  33858726.69546  26399916.11643  24380267.8834                   24380267.5664
 -29040243.71148 -22609874.69846  21492033.1174                   21492031.4654
  16083676.34047  12549445.90045  22642427.9924                   22642427.5004
  -8550403.85247  -6644129.17745  22622845.1484                   22622844.8834
 -49600352.19148 -38629991.53645  22579054.4064                   22579050.9574
 -11994305.17648  -9327550.82346  22250349.8754                   22250351.7814
  27824281.75047  21694734.95044  24536300.3284                   24536299.0164
 11  8 21  3  7  0.0000000  0 10G12G29G26G18G05G15G30G02G25G21
 -26016009.46147 -20253525.40045  23165294.2664                   23165292.6684
  -4793471.48847  -3719268.39746  21090690.5944   21090689.1954
   5197734.14847   4066888.51445  21939125.2894                   21939124.6884
  33676801.94546  26258156.64543  24345648.7194                   24345647.9734
 -29065658.65248 -22629678.53346  21487196.5784                   21487194.7274
  15897275.86347  12404198.82845  22606957.5864                   22606956.7854
  -8580066.98047  -6667243.30945  22617200.1724                   22617199.6954
 -49648652.79347 -38667628.36545  22569863.0634                   22569859.7934
 -12035076.88748  -9359320.98746  22242591.6414                   22242593.2894
  27671649.68846  21575800.96144  24507255.5164                   24507254.3754
 11  8 21  3  7 30.0000000  0 10G12G29G26G18G05G15G30G02G25G21
 -26020034.72747 -20256662.01044  23164528.1644                   23164526.3834
  -4950105.06648  -3841320.50646  21060884.3524   21060882.4844
   5036729.10547   3941430.07545  21908487.5164                   21908486.3014
  33495076.34046  26116552.43443  24311067.4304                   24311066.6294
 -29090794.79748 -22649265.13846  21482413.4694                   21482411.6484
  15711076.68447  12259108.59845  22571524.7344                   22571523.7734
  -8609403.63747  -6690103.04345  22611617.6174                   22611616.7584
 -49696841.85247 -38705178.28845  22560693.0554                   22560689.5514
 -12075452.46948  -9390782.46646  22234908.4064                   22234909.6914
  27519000.29347  21456853.48444  24478207.4064                   24478206.0704
 11  8 21  3  8  0.0000000  0 10G12G29G26G18G05G15G30G02G25G21
 -26023944.00847 -20259708.24144  23163784.0864                   23163782.8134
  -5106409.60948  -3963116.21446  21031140.3754   21031138.7384
   4876197.54347   3816340.58145  21877939.5704                   21877938.3554
  33313552.04746  25975104.98943  24276524.2114                   24276523.1374
 -29115653.46948 -22668635.51346  21477683.1334                   21477681.2734
  15525083.49247  12114178.90545  22536131.4844                   22536130.3984
  -8638415.77747  -6712709.90745  22606097.6804                   22606096.3014
 -49744917.96547 -38742640.20645  22551544.0784                   22551540.7664
 -12115433.60248  -9421936.60746  22227300.2734                   22227301.1294
  27366334.00046  21337892.87144  24449156.0234                   24449154.1024
 11  8 21  3  8 30.0000000  0 10G12G29G26G18G05G15G30G02G25G21
 -26027737.47347 -20262664.19844  23163062.4844                   23163061.2664
  -5262379.75048  -4084651.36146  21001460.3674   21001458.9844
   4716145.72747   3691624.91045  21847482.2344                   21847481.4654
  33132232.84846  25833817.45043  24242019.9384                   24242019.6134
 -29140234.33248 -22687789.41146  21473005.4224                   21473003.8874
  15339301.78147  11969413.96245  22500778.4384                   22500777.1884
  -8667103.90647  -6735064.30745  22600637.5634                   22600637.3874
 -49792877.91447 -38780011.60945  22542417.6094                   22542414.5744
 -12155020.32048  -9452783.39445  22219767.2734                   22219768.4024
  27213653.28146  21218920.93743  24420101.7814                   24420099.7814
 11  8 21  3  9  0.0000000  0 10G12G29G26G18G05G15G30G02G25G21
 -26031418.36747 -20265532.47244  23162362.3524                   23162360.5474
  -5418013.85548  -4205924.66146  20971844.0944   20971842.7584
   4556576.23847   3567285.09745  21817117.6884                   21817116.4694
  32951119.80146  25692690.40943  24207555.8364                   24207554.3984
 -29164540.71548 -22706729.43346  21468380.3914                   21468378.2734
  15153734.07847  11824815.82045  22465466.2034                   22465464.8674
  -8695471.51647  -6757168.94745  22595239.5004                   22595239.1954
 -49840721.89847 -38817292.62645  22533313.2034                   22533310.3324
 -12194215.82048  -9483325.36046  22212308.6884                   22212309.6094
  27060957.21946  21099937.09943  24391043.2344                   24391043.0434
 11  8 21  3  9 30.0000000  0 10G12G29G26G18G05G15G30G02G25G21
 -26034990.52047 -20268315.98344  23161682.4844                   23161680.9494
  -5573309.78148  -4326934.43146  20942292.1954   20942290.5784
   4397492.04747   3443323.39945  21786844.7034                   21786843.5314
  32770213.39846  25551724.43843  24173130.4064                   24173128.9264
 -29188575.03148 -22725457.45346  21463806.2274                   21463804.9574
  14968383.32447  11680386.69145  22430195.1024                   22430193.9924
  -8723522.27047  -6779026.68845  22589901.7734                   22589901.2704
 -49888449.83247 -38854483.22745  22524231.2974                   22524227.4654
 -12233023.27748  -9513564.92746  22204923.4454                   22204924.6524
  26908245.05146  20980940.69343  24361984.2584                   24361982.2734
 11  8 21  3 10  0.0000000  0 10G12G29G26G18G05G15G30G02G25G21
 -26038457.60947 -20271017.62944  23161022.1484                   23161020.7304
  -5728265.74648  -4447679.30546  20912805.1804   20912803.6334
   4238895.60247   3319741.79145  21756664.8674                   21756664.1214
  32589513.92246  25410919.69143  24138743.8914                   24138742.6884
 -29212340.41048 -22743975.92546  21459283.9144                   21459282.4184
  14783251.64147  11536128.28145  22394965.6334                   22394964.6454
  -8751259.91847  -6800640.45745  22584624.0474                   22584623.1054
 -49936061.81647 -38891583.50545  22515171.0784                   22515167.1564
 -12271446.17247  -9543504.85945  22197612.1414                   22197612.8594
  26755515.35247  20861930.64543  24332920.5474                   24332919.0204
 11  8 21  3 10 30.0000000  0 10G12G29G26G18G05G15G30G02G25G21
 -26041821.35247 -20273638.74545  23160382.6094                   23160381.1334
  -5882877.96947  -4568156.33946  20883383.2424   20883381.5944
   4080791.73847   3196544.00745  21726578.3754                   21726577.9494
  32409024.07846  25270278.34543  24104398.0864                   24104396.9614
 -29235838.01648 -22762285.73846  21454812.6484                   21454810.7504
  14598343.97347  11392044.42345  22359778.6024                   22359777.2934
  -8778686.17647  -6822011.58145  22579404.3364                   22579404.1604
 -49983556.04347 -38928592.00245  22506133.3364                   22506130.1954
 -12309485.84448  -9573146.15545  22190373.4304                   22190374.4304
  26602769.26646  20742907.82743  24303854.3674                   24303852.6174
 11  8 21  3 11  0.0000000  0 10G12G29G26G18G05G15G30G02G25G21
 -26045085.34847 -20276182.17744  23159761.5474                   23159760.4144
  -6037144.95348  -4688364.34846  20854027.3204   20854026.0204
   3923182.86747   3073731.92645  21696586.4304                   21696585.1644
  32228744.17246  25129800.60643  24070091.0784                   24070090.9774
 -29259071.43048 -22780389.68646  21450391.5704                   21450389.6644
  14413662.37547  11248136.73445  22324634.9304                   22324633.5664
  -8805805.08647  -6843143.21845  22574244.4144                   22574243.4184
 -50030932.91047 -38965509.07045  22497117.2344                   22497114.2424
 -12347145.94948  -9602491.71246  22183207.1484                   22183208.0784
  26450005.58646  20623871.24343  24274783.6174                   24274782.4494
 11  8 21  3 11 30.0000000  0 10G12G29G26G18G05G15G30G02G25G21
 -26048255.23447 -20278652.21945  23159158.4774                   23159157.2854
  -6191067.13748  -4808303.69146  20824736.8594   20824735.3324
   3766069.43047   2951305.90345  21666688.8284                   21666687.4774
  32048672.70746  24989485.23943  24035824.8834                   24035824.4574
 -29282045.51248 -22798291.57246  21446019.5084                   21446017.7974
  14229207.31647  11104405.54145  22289534.5004                   22289532.7074
  -8832622.30947  -6864039.76245  22569141.4614                   22569140.6374
 -50078194.73847 -39002336.49345  22488123.9064                   22488120.6804
 -12384431.82448  -9631545.66745  22176111.4144                   22176112.3874
  26297221.43046  20504818.70243  24245709.6174                   24245708.6564
 11  8 21  3 12  0.0000000  0 10G12G29G26G18G05G15G30G02G25G21
 -24475909.54747 -19053447.84045  23458365.8134                   23458365.0984
  -4769212.68448  -3700365.12246  21095306.5554   21095305.1604
   5184883.81647   4056875.59645  21936680.2424                   21936679.0824
  33444240.91446  26076941.02143  24301393.0314                   24301392.5514
 -27729337.51248 -21588389.22646  21741490.0474                   21741488.5084
  15620412.40647  12188461.49745  22554272.1254                   22554270.2894
  -7283715.97347  -5657099.77145  22863887.8594                   22863887.3954
 -48549915.21947 -37811469.37545  22778945.4924                   22778942.7814
 -10845920.97748  -8432706.04546  22468880.9144                   22468881.9614
  27719845.25846  21613356.86043  24516425.8364                   24516424.6174
 11  8 21  3 12 30.0000000  0 10G12G29G26G18G05G15G30G02G25G21
 -24478892.68747 -19055772.37245  23457798.4694                   23457796.6724
  -4922430.56648  -3819755.67246  21066150.3134   21066149.0704
   5028778.16447   3935234.85845  21906974.3364                   21906973.4574
  33264596.87546  25936958.82843  24267208.0554                   24267206.5944
 -27751792.54748 -21605886.64446  21737217.3914                   21737215.7464
  15436427.23847  12045096.47245  22519260.5004                   22519258.9454
  -7309931.95747  -5677527.84745  22858899.5164                   22858899.0944
 -48596937.91047 -37848110.45945  22769997.7114                   22769994.7464
 -10882459.55147  -8461177.68046  22461927.1954                   22461928.8874
  27567025.92646  21494276.93343  24487345.1564                   24487343.7304
 11  8 21  3 13  0.0000000  0 10G12G29G26G18G05G15G30G02G25G21
 -24481785.13347 -19058026.27445  23457247.6564                   23457246.9064
  -5075290.59848  -3938867.36046  21037061.9064   21037060.4454
   4873183.30547   3813992.15945  21877365.4224                   21877364.2384
  33085170.33646  25797146.05743  24233063.7504                   24233063.1054
 -27773989.71148 -21623183.12946  21732993.3364                   21732991.4614
  15252683.96547  11901919.93845  22484295.5314                   22484293.5514
  -7335850.00847  -5697723.73445  22853967.5634                   22853966.3914
 -48643838.26647 -37884656.19445  22761072.6954                   22761070.2504
 -10918626.59447  -8489359.81545  22455045.2114                   22455046.2034
  27414190.69147  21375184.55243  24458262.4614                   24458260.0044
 11  8 21  3 13 30.0000000  0 10G12G29G26G18G05G15G30G02G25G21
 -24484594.45346 -19060215.36644  23456712.7814                   23456712.3094
  -5227795.15648  -4057702.05846  21008041.1644   21008039.4534
   4718097.85547   3693146.38145  21847853.8524                   21847852.4024
  32905957.74646  25657500.02843  24198960.2734                   24198960.6914
 -27795935.84448 -21640283.99746  21728817.1024                   21728815.1094
  15069181.29347  11758930.89645  22449376.1254                   22449374.8634
  -7361477.71547  -5717693.41945  22849090.6414                   22849089.7504
 -48690620.28547 -37921109.71945  22752170.3054                   22752167.7894
 -10954429.53547  -8517258.22545  22448231.5944                   22448233.4264
  27261334.71546  21256076.02643  24429174.1884                   24429172.3444
 11  8 21  3 14  0.0000000  0 10G12G29G26G18G05G15G30G02G25G21
 -24487323.10546 -19062341.61944  23456193.4694                   23456192.8014
  -5379941.53148  -4176257.66246  20979088.7344   20979087.0664
   4563525.13747   3572700.14145  21818439.6414                   21818438.1024
  32726960.30146  25518021.63643  24164898.4694                   24164898.0514
 -27817633.34448 -21657191.13446  21724688.0084                   21724686.0164
  14885922.23447  11616131.66145  22414502.6414                   22414501.6484
  -7386817.91847  -5737439.04345  22844268.8284                   22844267.8484
 -48737283.11347 -37957470.40845  22743290.9224                   22743288.0434
 -10989870.78147  -8544874.81746  22441488.1174                   22441489.0664
  27108457.39846  21136950.93443  24400082.3444                   24400081.5004
 11  8 21  3 14 30.0000000  0 10G12G29G26G18G05G15G30G02G25G21
 -24489972.80946 -19064406.37444  23455689.4774                   23455688.9924
  -5531726.03147  -4294531.27346  20950204.9844   20950203.5514
   4409469.60247   3452656.91245  21789123.8204                   21789122.3444
  32548180.68447  25378713.01643  24130877.9774                   24130876.1954
 -27839083.13348 -21673905.24146  21720606.3754                   21720604.2034
  14702911.35947  11473525.83845  22379677.2194                   22379676.0274
  -7411872.53947  -5756962.14745  22839501.1334                   22839499.8714
 -48783825.34447 -37993737.10345  22734434.4064                   22734431.3714
 -11024951.93047  -8572210.78745  22434811.8524                   22434813.0864
  26955560.24646  21017810.38943  24370987.2504                   24370985.4844
 11  8 21  3 15  0.0000000  0 10G12G29G26G18G05G15G30G02G25G21
 -24492546.21146 -19066411.64844  23455199.5394                   23455199.1764
  -5683145.49647  -4412520.46146  20921391.0004   20921389.4924
   4255934.78147   3333019.41645  21759906.8594                   21759905.5434
  32369620.21947  25239575.08043  24096898.7734                   24096897.7344
 -27860287.19948 -21690427.88246  21716571.0314                   21716569.3364
  14520152.61347  11331116.47145  22344899.5554                   22344898.0554
  -7436644.40247  -5776264.91945  22834786.7974                   22834786.3714
 -48830246.03947 -38029909.09345  22725601.0084                   22725597.2544
 -11059675.45747  -8599268.10446  22428204.1954                   22428205.6764
  26802643.44146  20898654.50543  24341887.7894                   24341886.2384
 11  8 21  3 15 30.0000000  0 10G12G29G26G18G05G15G30G02G25G21
 -24495045.77346 -19068359.41244  23454724.4534                   23454723.1334
  -5834197.78147  -4530223.52946  20892646.5554   20892645.3594
   4102923.77747   3213790.10845  21730789.7424                   21730788.5904
  32191279.92247  25100608.69243  24062961.6644                   24062960.8324
 -27881247.93448 -21706760.91846  21712582.3984                   21712580.9384
  14337648.77347  11188905.72245  22310170.1254                   22310168.8164
  -7461136.48847  -5795349.67544  22830126.0164                   22830125.7584
 -48876544.47747 -38065985.81545  22716790.6724                   22716786.8404
 -11094044.14847  -8626048.93546  22421664.3674                   22421665.8404
  26649706.24646  20779482.69644  24312785.5634                   24312783.9804
 11  8 21  3 16  0.0000000  0 10G12G29G26G18G05G15G30G02G25G21
 -24497473.68046 -19070251.31244  23454262.2814                   23454260.1484
  -5984879.80548  -4647638.08046  20863972.8984   20863971.4144
   3950440.81647   3094972.24645  21701773.0234                   21701772.0274
  32013162.08647  24961815.69943  24029066.9844                   24029066.1954
 -27901966.39148 -21722905.17046  21708639.8524                   21708638.2114
  14155404.23847  11046897.03745  22275489.9694                   22275488.8094
  -7485350.82447  -5814218.01644  22825518.0554                   22825517.8094
 -48922718.95747 -38101965.92945  22708003.9614                   22708000.9024
 -11128059.66047  -8652554.55245  22415191.4844                   22415192.3484
  26496749.54346  20660295.73944  24283678.5944                   24283676.9224
 11  8 21  3 16 30.0000000  0 10G12G29G26G18G05G15G30G02G25G21
 -24499831.18746 -19072088.34844  23453813.6174                   23453811.8714
  -6135186.97348  -4764760.53547  20835370.3204   20835368.6994
   3798491.15647   2976569.94445  21672858.1414                   21672857.1454
  31835269.20347  24823197.96344  23995214.9304                   23995213.5354
 -27922443.17648 -21738861.09546  21704743.3674                   21704741.3164
  13973423.89147  10905094.22345  22240859.6094                   22240858.9774
  -7509288.66447  -5832870.88844  22820962.9384                   22820962.3444
 -48968766.98847 -38137847.54745  22699241.2114                   22699237.8834
 -11161722.96947  -8678785.71246  22408785.2814                   22408786.8524
  26343774.82846  20541094.67743  24254568.4774                   24254566.5664
